[[{"header":{"parameterUnit":"m.s-1","parameterCategory":1,"la1":30.6,"la2":28.766,"lo1":-90.7593,"lo2":-88.6598,"dy":0.0162,"dx":0.0183,"nx":116,"ny":114,"refTime":"2024-06-10T18:00:00:Z","depth":0,"parameterNumber":2,"parameterNumberName":"U-component_of_WINDS"},"data":[0.0,0.0,0.0,0.0,0.0,0.0,0.0,0.0,0.0,0.0,0.0,0.0,0.0,0.0,0.0,0.0,0.0,0.0,0.0,0.0,0.0,0.0,0.0,0.0,0.0,0.0,0.0,0.0,0.0,0.0,0.0,0.0,0.0,0.0,0.0,0.0,0.0,0.0,0.0,0.0,0.0,0.0,0.0,0.0,0.0,0.0,0.0,0.0,0.0,0.0,0.0,0.0,0.0,0.0,0.0,0.0,0.0,0.0,0.0,0.0,0.0,0.0,0.0,0.0,0.0,0.0,0.0,0.0,0.0,0.0,0.0,0.0,0.0,0.0,0.0,0.0,0.0,0.0,0.0,0.0,0.0,0.0,0.0,0.0,0.0,0.0,0.0,0.0,0.0,0.0,0.0,0.0,0.0,0.0,0.0,0.0,0.0,0.0,0.0,0.0,0.0,0.0,0.0,0.0,0.0,0.0,0.0,0.0,0.0,0.0,0.0,0.0,0.0,0.0,0.0,0.0,0.0,0.0,0.0,0.0,0.0,0.0,0.0,0.0,0.0,0.0,0.0,0.0,0.0,0.0,0.0,0.0,0.0,0.0,0.0,0.0,0.0,0.0,0.0,0.0,0.0,0.0,0.0,0.0,0.0,0.0,0.0,0.0,0.0,0.0,0.0,0.0,0.0,0.0,0.0,0.0,0.0,0.0,0.0,0.0,0.0,0.0,0.0,0.0,0.0,0.0,0.0,0.0,0.0,0.0,0.0,0.0,0.0,0.0,0.0,0.0,0.0,0.0,0.0,0.0,0.0,0.0,0.0,0.0,0.0,0.0,0.0,0.0,0.0,0.0,0.0,0.0,0.0,0.0,0.0,0.0,0.0,0.0,0.0,0.0,0.0,0.0,0.0,0.0,0.0,0.0,0.0,0.0,0.0,0.0,0.0,0.0,0.0,0.0,0.0,0.0,0.0,0.0,0.0,0.0,0.0,0.0,0.0,0.0,0.0,0.0,0.0,0.0,0.0,0.0,0.0,0.0,0.0,0.0,0.0,0.0,0.0,0.0,0.0,0.0,0.0,0.0,0.0,0.0,0.0,0.0,0.0,0.0,0.0,0.0,0.0,0.0,0.0,0.0,0.0,0.0,0.0,0.0,0.0,0.0,0.0,0.0,0.0,0.0,0.0,0.0,0.0,0.0,0.0,0.0,0.0,0.0,0.0,0.0,0.0,0.0,0.0,0.0,0.0,0.0,0.0,0.0,0.0,0.0,0.0,0.0,0.0,0.0,0.0,0.0,0.0,0.0,0.0,0.0,0.0,0.0,0.0,0.0,0.0,0.0,0.0,0.0,0.0,0.0,0.0,0.0,0.0,0.0,0.0,0.0,0.0,0.0,0.0,0.0,0.0,0.0,0.0,0.0,0.0,0.0,0.0,0.0,0.0,0.0,0.0,0.0,0.0,0.0,0.0,0.0,0.0,0.0,0.0,0.0,0.0,0.0,0.0,0.0,0.0,0.0,0.0,0.0,0.0,0.0,0.0,0.0,0.0,0.0,0.0,0.0,0.0,0.0,0.0,0.0,0.0,0.0,0.0,0.0,0.0,0.0,0.0,0.0,0.0,0.0,0.0,0.0,0.0,0.0,0.0,0.0,0.0,0.0,0.0,0.0,0.0,0.0,0.0,0.0,0.0,0.0,0.0,0.0,0.0,0.0,0.0,0.0,0.0,0.0,0.0,0.0,0.0,0.0,0.0,0.0,0.0,0.0,0.0,0.0,0.0,0.0,0.0,0.0,0.0,0.0,0.0,0.0,0.0,0.0,0.0,0.0,0.0,0.0,0.0,0.0,0.0,0.0,0.0,0.0,0.0,0.0,0.0,0.0,0.0,0.0,0.0,0.0,0.0,0.0,0.0,0.0,0.0,0.0,0.0,0.0,0.0,0.0,0.0,0.0,0.0,0.0,0.0,0.0,0.0,0.0,0.0,0.0,0.0,0.0,0.0,0.0,0.0,0.0,0.0,0.0,0.0,0.0,0.0,0.0,0.0,0.0,0.0,0.0,0.0,0.0,0.0,0.0,0.0,0.0,0.0,0.0,0.0,0.0,0.0,0.0,0.0,0.0,0.0,0.0,0.0,0.0,0.0,0.0,0.0,0.0,0.0,0.0,0.0,0.0,0.0,0.0,0.0,0.0,0.0,0.0,0.0,0.0,0.0,0.0,0.0,0.0,0.0,0.0,0.0,0.0,0.0,0.0,0.0,0.0,0.0,0.0,0.0,0.0,0.0,0.0,0.0,0.0,0.0,0.0,0.0,0.0,0.0,0.0,0.0,0.0,0.0,0.0,0.0,0.0,0.0,0.0,0.0,0.0,0.0,0.0,0.0,0.0,0.0,0.0,0.0,0.0,0.0,0.0,0.0,0.0,0.0,0.0,0.0,0.0,0.0,0.0,0.0,0.0,0.0,0.0,0.0,0.0,0.0,0.0,0.0,0.0,0.0,0.0,0.0,0.0,0.0,0.0,0.0,0.0,0.0,0.0,0.0,0.0,0.0,0.0,0.0,0.0,0.0,0.0,0.0,0.0,0.0,0.0,0.0,0.0,0.0,0.0,0.0,0.0,0.0,0.0,0.0,0.0,0.0,0.0,0.0,0.0,0.0,0.0,0.0,0.0,0.0,0.0,0.0,0.0,0.0,0.0,0.0,0.0,0.0,0.0,0.0,0.0,0.0,0.0,0.0,0.0,0.0,0.0,0.0,0.0,0.0,0.0,0.0,0.0,0.0,0.0,0.0,0.0,0.0,0.0,0.0,0.0,0.0,0.0,0.0,0.0,0.0,0.0,0.0,0.0,0.0,0.0,0.0,0.0,0.0,0.0,0.0,0.0,0.0,0.0,0.0,0.0,0.0,0.0,0.0,0.0,0.0,0.0,0.0,0.0,0.0,0.0,0.0,0.0,0.0,0.0,0.0,0.0,0.0,0.0,0.0,0.0,0.0,0.0,0.0,0.0,0.0,0.0,0.0,0.0,0.0,0.0,0.0,0.0,0.0,0.0,0.0,0.0,0.0,0.0,0.0,0.0,0.0,0.0,0.0,0.0,0.0,0.0,0.0,0.0,0.0,0.0,0.0,0.0,0.0,0.0,0.0,0.0,0.0,0.0,0.0,0.0,0.0,0.0,0.0,0.0,0.0,0.0,0.0,0.0,0.0,0.0,0.0,0.0,0.0,0.0,0.0,0.0,0.0,0.0,0.0,0.0,0.0,0.0,0.0,0.0,0.0,0.0,0.0,0.0,0.0,0.0,0.0,0.0,0.0,0.0,0.0,0.0,0.0,0.0,0.0,0.0,0.0,0.0,0.0,0.0,0.0,0.0,0.0,0.0,0.0,0.0,0.0,0.0,0.0,0.0,0.0,0.0,0.0,0.0,0.0,0.0,0.0,0.0,0.0,0.0,0.0,0.0,0.0,0.0,0.0,0.0,0.0,0.0,0.0,0.0,0.0,0.0,0.0,0.0,0.0,0.0,0.0,0.0,0.0,0.0,0.0,0.0,0.0,0.0,0.0,0.0,0.0,0.0,0.0,0.0,0.0,0.0,0.0,0.0,0.0,0.0,0.0,0.0,0.0,0.0,0.0,0.0,0.0,0.0,0.0,0.0,0.0,0.0,0.0,0.0,0.0,0.0,0.0,0.0,0.0,0.0,0.0,0.0,0.0,0.0,0.0,0.0,0.0,0.0,0.0,0.0,0.0,0.0,0.0,0.0,0.0,0.0,0.0,0.0,0.0,0.0,0.0,0.0,0.0,0.0,0.0,0.0,0.0,0.0,0.0,0.0,0.0,0.0,0.0,0.0,0.0,0.0,0.0,0.0,0.0,0.0,0.0,0.0,0.0,0.0,0.0,0.0,0.0,0.0,0.0,0.0,0.0,0.0,0.0,0.0,0.0,0.0,0.0,0.0,0.0,0.0,0.0,0.0,0.0,0.0,0.0,0.0,0.0,0.0,0.0,0.0,0.0,0.0,0.0,0.0,0.0,0.0,0.0,0.0,0.0,0.0,0.0,0.0,0.0,0.0,0.0,0.0,0.0,0.0,0.0,0.0,0.0,0.0,0.0,0.0,0.0,0.0,0.0,0.0,0.0,0.0,0.0,0.0,0.0,0.0,0.0,0.0,0.0,0.0,0.0,0.0,0.0,0.0,0.0,0.0,0.0,0.0,0.0,0.0,0.0,0.0,0.0,0.0,0.0,0.0,0.0,0.0,0.0,0.0,0.0,0.0,0.0,0.0,0.0,0.0,0.0,0.0,0.0,0.0,0.0,0.0,0.0,0.0,0.0,0.0,0.0,0.0,0.0,0.0,0.0,0.0,0.0,0.0,0.0,0.0,0.0,0.0,0.0,0.0,0.0,0.0,0.0,0.0,0.0,0.0,0.0,0.0,0.0,0.0,0.0,0.0,0.0,0.0,0.0,0.0,0.0,0.0,0.0,0.0,0.0,0.0,0.0,0.0,0.0,0.0,0.0,0.0,0.0,0.0,0.0,0.0,0.0,0.0,0.0,0.0,0.0,0.0,0.0,0.0,0.0,0.0,0.0,0.0,0.0,0.0,0.0,0.0,0.0,0.0,0.0,0.0,0.0,0.0,0.0,0.0,0.0,0.0,0.0,0.0,0.0,0.0,0.0,0.0,0.0,0.0,0.0,0.0,0.0,0.0,0.0,0.0,0.0,0.0,0.0,0.0,0.0,0.0,0.0,0.0,0.0,0.0,0.0,0.0,0.0,0.0,0.0,0.0,0.0,0.0,0.0,0.0,0.0,0.0,0.0,0.0,0.0,0.0,0.0,0.0,0.0,0.0,0.0,0.0,0.0,0.0,0.0,0.0,0.0,0.0,0.0,0.0,0.0,0.0,0.0,0.0,0.0,0.0,0.0,0.0,0.0,0.0,0.0,0.0,0.0,0.0,0.0,0.0,0.0,0.0,0.0,0.0,0.0,0.0,0.0,0.0,0.0,0.0,0.0,0.0,0.0,0.0,0.0,0.0,0.0,0.0,0.0,0.0,0.0,0.0,0.0,0.0,0.0,0.0,0.0,0.0,0.0,0.0,0.0,0.0,0.0,0.0,0.0,0.0,0.0,0.0,0.0,0.0,0.0,0.0,0.0,0.0,0.0,0.0,0.0,0.0,0.0,0.0,0.0,0.0,0.0,0.0,0.0,0.0,0.0,0.0,0.0,0.0,0.0,0.0,0.0,0.0,0.0,0.0,0.0,0.0,0.0,0.0,0.0,0.0,0.0,0.0,0.0,0.0,0.0,0.0,0.0,0.0,0.0,0.0,0.0,0.0,0.0,0.0,0.0,0.0,0.0,0.0,0.0,0.0,0.0,0.0,0.0,0.0,0.0,0.0,0.0,0.0,0.0,0.0,0.0,0.0,0.0,0.0,0.0,0.0,0.0,0.0,0.0,0.0,0.0,0.0,0.0,0.0,0.0,0.0,0.0,0.0,0.0,0.0,0.0,0.0,0.0,0.0,0.0,0.0,0.0,0.0,0.0,0.0,0.0,0.0,0.0,0.0,0.0,0.0,0.0,0.0,0.0,0.0,0.0,0.0,0.0,0.0,0.0,0.0,0.0,0.0,0.0,0.0,0.0,0.0,0.0,0.0,0.0,0.0,0.0,0.0,0.0,0.0,0.0,0.0,0.0,0.0,0.0,0.0,0.0,0.0,0.0,0.0,0.0,0.0,0.0,0.0,0.0,0.0,0.0,0.0,0.0,0.0,0.0,0.0,0.0,0.0,0.0,0.0,0.0,0.0,0.0,0.0,0.0,0.0,0.0,0.0,0.0,0.0,0.0,0.0,0.0,0.0,0.0,0.0,0.0,0.0,0.0,0.0,0.0,0.0,0.0,0.0,0.0,0.0,0.0,0.0,0.0,0.0,0.0,0.0,0.0,0.0,0.0,0.0,0.0,0.0,0.0,0.0,0.0,0.0,0.0,0.0,0.0,0.0,0.0,0.0,0.0,0.0,0.0,0.0,0.0,0.0,0.0,0.0,0.0,0.0,0.0,0.0,0.0,0.0,0.0,0.0,0.0,0.0,0.0,0.0,0.0,0.0,0.0,0.0,0.0,0.0,1.6172,0.0,0.0,0.0,0.0,0.0,0.0,0.0,0.0,0.0,0.0,0.0,0.0,0.0,0.0,0.0,0.0,0.0,0.0,0.0,0.0,0.0,0.0,0.0,0.0,0.9857,0.9779,0.9754,0.9714,0.968,0.9654,0.0,0.0,0.0,0.0,0.0,0.9403,0.9331,0.9429,0.9676,0.9572,0.9942,1.0709,1.0588,1.0185,0.9574,0.0,0.0,0.0,0.0,0.0,0.0,0.0,0.0,0.0,0.0,0.0,0.0,0.0,0.0,0.0,0.0,0.0,0.0,0.0,0.0,0.0,0.0,0.0,0.0,0.0,0.0,0.0,0.0,0.0,0.0,0.0,0.0,0.0,0.0,0.0,0.0,0.0,0.0,0.0,0.0,0.0,0.0,0.0,0.0,0.0,0.0,0.0,0.0,0.0,0.0,0.0,0.0,0.0,0.0,0.0,0.0,0.0,0.0,0.0,0.0,0.0,0.0,0.0,0.0,0.0,0.0,0.0,0.0,0.0,0.0,0.0,1.8079,0.0,0.0,0.0,0.0,0.0,0.0,0.0,0.0,0.0,0.0,0.0,0.0,0.0,0.0,0.0,0.0,0.0,0.0,0.0,0.0,0.0,1.0028,1.0022,0.9948,0.9888,0.9838,0.9818,0.9777,0.9738,0.9681,0.0,0.0,0.0,0.9583,0.9456,0.9529,0.9836,1.0368,1.0601,1.1287,1.2437,1.2906,1.2585,1.162,1.1254,0.0,0.0,0.0,0.0,0.0,0.0,0.0,0.0,0.0,0.0,0.0,0.0,0.0,0.0,0.0,0.0,0.0,0.0,0.0,0.0,0.0,0.0,0.0,0.0,0.0,0.0,0.0,0.0,0.0,0.0,0.0,0.0,0.0,0.0,0.0,0.0,0.0,0.0,0.0,0.0,0.0,0.0,0.0,0.0,0.0,0.0,0.0,0.0,0.0,0.0,0.0,0.0,0.0,0.0,0.0,0.0,0.0,0.0,0.0,0.0,0.0,0.0,0.0,2.3093,2.3855,2.3767,2.4606,2.5314,2.5778,2.3111,2.2081,2.219,0.0,0.0,0.0,0.0,0.0,0.0,0.0,0.0,0.0,0.0,0.0,0.0,0.0,0.0,0.0,0.0,0.0,0.0,0.0,0.0,1.0091,1.0087,0.9979,0.9916,0.9971,0.9869,0.9832,0.9863,0.98,0.0,0.0,0.9767,0.9745,0.9655,1.029,1.0622,1.0646,1.2323,1.3867,1.5257,1.5515,1.581,1.6039,1.3423,1.2212,1.2037,0.0,0.0,0.0,0.0,0.0,0.0,0.0,0.0,0.0,0.0,0.0,0.0,0.0,0.0,0.0,0.0,0.0,0.0,0.0,0.0,0.0,0.0,0.0,0.0,0.0,0.0,0.0,0.0,0.0,0.0,0.0,0.0,0.0,0.0,0.0,0.0,0.0,0.0,0.0,0.0,0.0,1.2133,1.3654,0.0,0.0,0.0,0.0,0.0,0.0,0.0,0.0,0.0,0.0,0.0,0.0,0.0,2.1207,2.2057,2.4944,2.6068,2.5443,2.7767,2.8485,2.7834,2.7967,2.8438,2.9163,2.8746,0.0,2.4566,2.2442,0.0,0.0,0.0,0.0,0.0,0.0,0.0,0.0,0.0,0.0,0.0,0.0,0.0,0.0,0.0,0.0,0.0,0.0,0.0,0.0,0.0,1.0774,1.0952,1.1479,1.188,1.1694,1.0749,1.106,1.0841,0.99,0.9825,0.9787,0.9761,1.0517,1.1772,1.3503,1.5325,1.6779,1.7827,1.7977,1.8184,1.8353,1.7003,1.5463,1.3753,1.2287,0.0,0.0,0.0,0.0,0.0,0.0,0.0,0.0,0.0,0.0,0.0,0.0,0.0,0.0,0.0,0.0,0.0,0.0,0.0,0.0,0.0,0.0,0.0,0.0,0.0,0.0,0.0,0.0,0.0,0.0,0.0,0.0,0.0,0.0,0.0,0.0,0.0,0.0,0.0,1.2655,1.4217,1.4904,1.5532,1.5554,0.0,0.0,0.0,0.0,0.0,0.0,0.0,0.0,0.0,2.1116,2.3111,2.4759,2.5982,2.7858,2.8601,2.8232,2.9735,3.0278,2.9952,2.9952,3.064,3.1745,3.0387,2.9628,2.9046,2.5782,2.4026,2.3209,0.0,0.0,0.0,0.0,2.2337,2.296,0.0,0.0,0.0,0.0,0.0,0.0,0.0,0.0,0.0,0.0,0.0,0.0,1.1331,1.1606,1.2074,1.2965,1.3586,1.3365,1.208,1.2094,1.1598,1.0331,1.0028,0.9978,1.0175,1.1614,1.3816,1.6798,1.8255,1.9435,2.0328,2.0228,2.0272,2.0377,2.0054,1.8393,1.5671,1.4168,1.2838,1.1689,0.0,0.0,0.0,0.0,0.0,0.0,0.0,0.0,0.0,0.0,0.0,0.0,0.0,0.0,0.0,0.0,0.0,0.0,0.0,0.0,0.0,0.0,0.0,0.0,0.0,0.0,0.0,0.0,0.0,0.0,0.0,0.0,0.0,0.0,0.0,0.0,0.0,1.4848,1.6538,1.6482,1.7945,1.8307,0.0,0.0,0.0,0.0,0.0,0.0,1.9706,2.2537,2.4074,2.3904,2.6204,2.7906,2.8902,2.9898,3.0405,3.0405,3.122,3.16,3.16,3.16,3.227,3.3302,3.1492,3.1492,3.2456,2.8649,2.6946,2.6558,2.4683,2.4067,2.4332,2.5596,2.6177,2.6723,0.0,0.0,0.0,0.0,0.0,0.0,0.0,0.0,0.0,0.0,0.0,1.0524,1.1396,1.2177,1.2999,1.3861,1.3976,1.3967,0.0,1.2349,1.1407,1.1338,1.0537,1.0448,1.1206,1.438,1.7278,1.9783,2.0436,2.147,2.2785,2.2118,2.217,2.2765,2.1633,2.0002,1.8044,1.6818,1.54,1.3762,1.1817,0.0,0.0,0.0,0.0,0.0,0.0,0.0,0.0,0.0,0.0,0.0,0.0,0.0,0.0,0.0,0.0,0.0,0.0,0.0,0.0,0.0,0.0,0.0,0.0,0.0,0.0,0.0,0.0,0.0,0.0,0.0,0.0,0.0,0.0,0.0,0.0,0.0,0.0,1.9118,2.0425,0.0,0.0,0.0,0.0,2.0585,2.2711,2.4008,2.3897,2.6274,2.7486,2.7164,2.95,3.0423,2.9761,3.1292,3.2071,3.2089,3.2886,3.3284,3.3284,3.3284,3.3321,3.3393,3.3266,3.3266,3.3143,3.0173,2.9527,3.0271,2.9589,2.9326,2.9345,2.942,2.9945,3.0621,0.0,0.0,0.0,0.0,0.0,1.0151,1.0158,1.0178,1.0215,1.0251,1.0682,1.1523,1.2949,1.3866,1.4938,1.6324,1.6444,1.5995,1.4914,1.373,1.3061,1.3064,1.2231,1.295,1.5491,1.7237,1.9333,2.1873,2.2376,2.3146,2.4145,2.3621,2.349,2.3693,2.3269,2.2405,2.1143,1.9234,1.7541,1.6002,1.4293,1.2471,0.0,0.0,0.0,0.0,0.0,0.0,0.0,0.0,0.0,0.0,0.0,0.0,0.0,0.0,0.0,0.0,0.0,0.0,0.0,0.0,0.0,0.0,0.0,0.0,0.0,0.0,0.0,0.0,0.0,0.0,0.0,0.0,0.0,0.0,0.0,0.0,0.0,2.0589,2.2116,0.0,2.157,2.2935,2.3815,2.3713,2.6037,2.7142,2.6444,2.8868,2.9861,2.8982,3.0767,3.1618,3.1347,3.2433,3.2977,3.2977,3.3266,3.3393,3.3393,3.3393,3.3683,3.4172,3.4172,3.4552,3.5064,3.4163,3.2748,3.1061,2.9994,2.9626,2.9758,3.0283,3.0978,3.1748,0.0,0.0,0.0,0.0,1.0173,1.019,1.0191,1.0204,1.0214,1.029,1.095,1.208,1.3783,1.4968,1.6308,1.7967,1.7881,1.7242,1.6118,1.4753,1.3993,1.397,1.4004,1.5367,1.8287,1.9695,2.139,2.3374,2.3926,2.4444,2.4907,2.463,2.4434,2.435,2.4351,2.4057,2.3438,2.1933,2.0119,1.8128,1.6497,1.4644,1.2717,0.0,0.0,0.0,0.0,0.0,0.0,0.0,0.0,0.0,0.0,0.0,0.0,0.0,0.0,0.0,0.0,0.0,0.0,0.0,0.0,0.0,0.0,0.0,0.0,0.0,0.0,0.0,0.0,0.0,0.0,0.0,0.0,0.0,0.0,0.0,2.1407,2.1879,2.4081,2.5096,2.3994,2.5623,2.6672,2.6505,2.8599,2.9485,2.8461,3.0613,3.1517,3.0649,3.1908,3.2596,3.2596,3.314,3.3393,3.3393,3.3683,3.381,3.381,3.4099,3.4516,3.5005,3.5005,3.5387,3.6012,3.6211,3.5063,3.3075,3.234,3.2119,3.2255,3.2799,3.3325,3.3869,0.0,0.0,0.0,1.005,1.0193,1.0195,1.0191,1.0195,1.0229,1.0293,1.1026,1.2135,1.3717,1.5341,1.6946,1.8513,1.7997,1.7529,1.7473,1.5289,1.4004,1.4016,1.5779,1.7578,1.9313,2.1777,2.3455,2.4335,2.5057,2.5293,2.5111,2.5106,2.5007,2.4827,2.4889,2.4881,2.4804,2.4804,2.3079,2.017,1.8354,1.7026,1.5888,0.0,0.0,0.0,0.0,0.0,0.0,0.0,0.0,0.0,0.0,0.0,0.0,0.0,0.0,0.0,0.0,0.0,0.0,0.0,0.0,0.0,0.0,0.0,0.0,0.0,0.0,0.0,0.0,0.0,0.0,0.0,0.0,0.0,1.8309,2.2283,2.462,2.3105,2.6295,2.7997,2.6439,2.8431,2.9577,2.8907,3.0392,3.0958,3.0111,3.1642,3.2456,3.2234,3.2995,3.3393,3.3393,3.3429,3.3447,3.3447,3.4262,3.4643,3.4661,3.5457,3.582,3.5856,3.5856,3.5856,3.5874,3.6103,3.6285,3.6527,3.6937,3.708,3.7099,3.7099,3.7099,3.7099,0.0,0.0,0.9183,1.004,1.0196,1.0193,1.0195,1.02,1.0215,1.0236,1.1434,1.27,1.3717,1.5318,1.6716,1.774,1.7098,1.6663,1.6699,1.4953,1.4782,1.6724,1.9085,2.1155,2.2862,2.3533,2.4296,2.5176,2.5371,2.543,2.5386,2.5446,2.5403,2.5309,2.5323,2.5222,2.5008,2.4955,2.427,2.3012,2.1202,1.9143,1.7028,0.0,0.0,0.0,0.0,0.0,0.0,0.0,0.0,0.0,0.0,0.0,0.0,0.0,0.0,0.0,0.0,0.0,0.0,0.0,0.0,0.0,0.0,0.0,0.0,0.0,0.0,0.0,0.0,0.0,0.0,0.0,0.0,2.248,2.3345,2.4006,2.4721,2.5592,2.7559,2.8651,2.8195,2.9668,3.0595,3.0412,3.1498,3.1991,3.1629,3.2712,3.3277,3.3067,3.3284,3.3393,3.3393,3.3991,3.428,3.428,3.5095,3.5476,3.5494,3.5711,3.6127,3.6653,3.6653,3.6997,3.7573,3.7744,3.8003,3.8126,3.7166,3.6943,3.7099,3.7099,3.7099,3.7099,0.0,0.8052,0.8784,1.0034,1.0212,1.0192,1.0161,1.0135,1.0132,1.0141,1.1532,1.2808,1.362,1.5153,1.6451,1.7231,1.6582,1.6149,1.6184,1.5365,1.6055,1.875,2.0711,2.2503,2.4214,2.4554,2.4949,2.546,2.5425,2.5434,2.5457,2.5531,2.5515,2.5455,2.5488,2.5343,2.5061,2.5034,2.4724,2.4208,2.316,2.148,1.9468,1.8179,1.6991,1.5939,1.5118,1.4721,1.4519,1.4135,0.0,0.0,0.0,0.0,0.0,0.0,0.0,0.0,0.0,0.0,0.0,0.0,0.0,0.0,0.0,0.0,0.0,0.0,0.0,0.0,0.0,0.0,0.0,0.0,2.2241,2.4535,2.6633,2.6172,2.6156,2.7629,2.904,3.0039,3.0369,3.1392,3.1999,3.1999,3.2556,3.2829,3.2705,3.3237,3.352,3.3393,3.3737,3.39,3.39,3.4715,3.5113,3.5113,3.5928,3.6309,3.6309,3.6653,3.7051,0.0,3.7486,3.7805,3.8336,3.8446,3.8725,0.0,0.0,0.0,0.0,0.0,3.8131,3.8126,0.0,0.7706,0.8255,0.9978,1.0233,1.0176,1.009,1.0028,0.9999,1.0063,1.1337,1.2508,1.324,1.4681,1.5878,1.654,1.6084,1.5808,0.0,1.6272,1.7608,2.0188,2.1282,2.2608,2.4244,2.4993,2.5363,2.5363,2.534,2.533,2.5395,2.5486,2.5473,2.54,2.5444,2.5277,2.4967,2.4917,2.4651,2.4265,2.4229,2.3505,2.2275,2.0813,1.9926,1.9239,1.7524,1.6588,1.6016,1.4988,0.0,0.0,0.0,0.0,0.0,0.0,0.0,0.0,0.0,0.0,0.0,0.0,0.0,0.0,0.0,0.0,0.0,0.0,0.0,0.0,0.0,0.0,0.0,0.0,2.4451,2.5296,2.8356,2.8324,2.8319,2.924,3.0582,3.1722,3.247,3.3047,3.3393,3.3393,3.3393,3.3447,3.3538,0.0,0.0,0.0,0.0,3.4751,3.4751,3.553,3.5946,3.5946,3.6743,3.7123,3.7142,3.7848,3.8192,3.8192,3.8192,3.8322,3.851,3.851,3.8766,3.9183,3.921,3.938,3.9596,3.9577,3.9546,3.9495,0.0,0.7694,0.8242,0.9919,1.0211,1.0163,1.0033,0.9958,0.993,0.993,1.0709,1.1322,1.149,1.2937,1.3941,1.4089,1.4608,1.5227,0.0,0.0,1.8973,2.0851,2.2394,2.3705,2.4739,2.4977,2.5091,2.5163,2.5302,2.539,2.5395,2.5526,2.5521,2.5398,2.531,2.5101,2.4818,2.4435,2.4174,2.4037,2.3819,2.3306,2.2584,2.2055,2.1302,2.0464,2.009,1.9342,1.8534,1.851,1.7256,1.5693,1.5744,0.0,0.0,0.0,0.0,0.0,0.0,0.0,0.0,0.0,0.0,0.0,0.0,0.0,0.0,0.0,0.0,0.0,0.0,0.0,0.0,2.329,2.5287,2.7045,2.804,2.9017,2.9793,3.0281,3.1464,3.2397,3.2698,3.3149,3.3393,3.3393,3.3393,3.3683,3.4335,3.4371,0.0,3.5331,3.5494,3.5584,3.5584,3.6363,3.6761,3.6761,0.0,0.0,3.7957,3.8119,3.8192,3.8192,3.8192,3.8322,3.851,3.851,3.8737,3.9129,3.9373,3.9469,3.952,3.9469,3.9444,3.9418,0.8104,0.8316,0.8699,0.9969,1.0166,1.0098,0.9934,0.9836,0.9768,0.9713,1.0347,1.0802,1.0847,1.1911,1.2605,1.2605,1.3802,0.0,0.0,1.7727,1.963,2.1227,2.2623,2.3766,2.4629,2.4886,2.5022,2.5096,2.5302,2.541,2.5453,2.5554,2.5527,2.5386,2.5265,2.5026,2.4712,2.4265,2.3981,2.3774,2.354,2.3218,2.2883,2.2901,2.2422,2.1649,2.0889,2.0166,1.9549,1.9168,1.8255,1.7274,1.718,1.604,1.4617,0.0,0.0,0.0,0.0,0.0,0.0,0.0,0.0,0.0,0.0,0.0,0.0,0.0,0.0,2.015,0.0,0.0,2.4577,2.589,2.7353,2.8503,2.9123,3.0399,3.1287,3.1254,3.2083,3.2856,3.3345,3.3506,3.3491,3.3411,3.3773,3.419,3.4588,3.4987,3.5385,3.5802,3.62,3.6399,3.6399,3.7196,3.7594,3.7594,3.7993,3.8192,3.8192,3.8192,3.8192,3.8192,3.8192,3.8322,3.8541,3.8737,3.9017,3.9301,3.9399,3.9399,3.9354,3.9373,3.9373,3.9301,0.8642,0.903,0.9317,1.0053,1.0108,1.0005,0.9813,0.9689,0.9591,0.9489,0.9977,1.0353,1.0439,1.1111,1.1635,0.0,0.0,0.0,0.0,1.7897,1.9968,2.1369,2.2536,2.3524,2.4278,2.4662,2.4905,2.5049,2.5274,2.5413,2.5504,2.5576,2.5523,2.5386,2.5161,2.4934,2.4676,2.4136,2.3798,2.3584,2.333,2.3133,2.306,2.3253,2.2996,2.2315,2.1081,2.0189,1.9532,1.8857,1.8463,1.8227,1.8124,1.7519,1.6631,1.5402,1.4769,0.0,0.0,0.0,0.0,0.0,0.0,0.0,0.0,0.0,1.8397,1.9246,2.1146,2.307,2.4394,2.5372,2.6631,2.8593,2.9203,2.9665,3.029,3.1489,3.2169,3.1834,3.2465,3.3188,3.3891,3.3753,3.3577,3.3393,3.4009,3.4516,3.4824,3.5457,3.5946,3.6272,3.6888,3.7214,3.7214,3.7866,3.8192,3.8192,3.8192,3.8192,3.8192,3.8192,3.8192,3.8192,3.8307,3.8433,3.8676,3.9101,3.9354,3.9469,3.9418,3.9301,3.9183,3.9301,3.9256,3.9183,0.0,0.9311,0.9862,1.0063,1.0008,0.9879,0.9723,0.9502,0.9359,0.9403,0.9382,0.9398,0.9528,1.0253,1.1026,1.1743,1.3224,0.0,1.5275,1.8145,2.0217,2.1097,2.2572,2.3545,2.3959,2.4192,2.4465,2.4831,2.5149,2.5374,2.551,2.5563,2.5537,2.5381,2.4812,2.462,2.4626,2.3631,2.3353,2.3566,2.3133,2.285,2.2764,2.279,2.2332,2.1702,2.1529,2.0119,1.8395,1.893,1.8371,1.7573,1.8413,1.8146,1.7517,1.7636,0.0,1.4738,1.6228,1.6769,1.7235,1.8663,1.8538,1.8962,0.0,0.0,2.3012,2.4244,2.5485,2.6358,2.6266,2.7046,2.7855,2.8238,2.9418,3.029,3.03,3.095,3.1426,3.1384,3.2529,3.3429,3.3726,3.3549,3.3422,3.3393,3.3484,3.4172,3.5602,3.5765,3.6453,3.7884,3.8011,3.8047,3.8047,3.8156,3.8192,3.8192,3.8192,3.8192,3.8192,3.8192,3.8192,3.8207,3.864,3.895,3.9156,3.9432,3.9502,3.9418,3.9418,3.9275,3.9129,3.9129,3.9129,3.9101,0.0,0.9559,0.9833,0.981,0.98,0.975,0.9606,0.9411,0.9277,0.9224,0.9174,0.9164,0.9231,0.9532,0.9859,1.0203,1.2143,1.3616,1.4272,1.7311,1.9565,2.0648,2.1854,2.281,2.3437,2.3749,2.41,2.4447,2.4866,2.5172,2.5388,2.5524,2.5531,2.5386,2.5014,2.4709,2.442,2.3744,2.3341,2.3129,2.259,2.2426,2.2409,2.1758,2.0899,2.0038,2.0038,1.9195,0.0,0.0,1.7277,1.7397,1.7986,1.7896,1.7663,1.7907,1.7643,0.0,1.9444,1.962,1.9585,0.0,2.154,2.2451,2.4036,2.459,2.5,2.5962,2.6908,2.7544,2.7505,2.8231,2.9018,0.0,3.0689,3.1542,3.2045,3.2154,3.2164,3.2164,3.2055,3.2264,3.2948,3.3341,3.352,3.3393,3.3828,3.4606,3.5747,3.6236,3.7015,3.8156,3.8192,3.8192,3.8192,3.8192,3.8192,3.8192,3.8192,3.8192,3.8192,3.8192,3.8274,3.8401,3.8743,3.9007,3.9156,3.9256,3.9283,3.9283,3.9283,3.9202,3.9101,3.9101,3.9101,3.9101,0.0,0.9492,0.9652,0.9557,0.9542,0.9544,0.9454,0.9323,0.9208,0.9102,0.9109,0.9088,0.9039,0.9039,0.9028,0.9018,1.1217,1.2794,1.3246,1.6461,1.8787,1.974,2.1021,2.2041,2.2752,2.3258,2.3715,2.4209,2.4625,2.4995,2.5286,2.5483,2.5517,2.5379,2.5128,2.4796,2.4416,2.3912,2.3428,2.295,2.2456,2.2152,2.191,2.1133,1.9889,1.8589,1.8676,1.8061,0.0,0.0,1.622,1.6866,1.7095,1.7287,1.7555,1.8225,1.9251,2.0315,2.1068,0.0,0.0,2.261,2.4054,2.5302,2.5252,2.5869,2.6581,2.7081,2.7675,2.8123,2.8183,2.8706,2.9362,3.0076,3.1278,3.2195,3.2505,3.2488,3.2354,3.201,3.1198,3.1048,3.1991,3.2812,3.3312,3.3375,3.3936,3.4733,3.5765,3.6345,3.7123,3.8156,3.8192,3.8192,3.8192,3.8192,3.8192,3.8192,3.8192,3.8192,3.8192,3.8274,3.8401,3.8634,3.8873,3.9092,3.9256,3.9256,3.9256,3.9283,3.9256,3.9183,3.9129,3.9101,3.9101,3.9101,0.0,0.0,0.9412,0.9412,0.9293,0.9237,0.9304,0.9196,0.9109,0.9109,0.9109,0.905,0.8913,0.8902,0.8869,0.8818,1.0826,1.2214,1.2421,1.5938,1.8082,1.8258,2.0157,2.1446,2.192,2.2652,2.3406,2.421,2.4549,2.4881,2.5216,2.5418,2.5475,2.5377,2.4991,2.4803,2.4728,2.4081,2.3572,2.3165,2.295,2.222,2.1237,2.1194,1.979,1.7867,1.8044,0.0,1.5116,1.5264,1.5464,1.5684,1.5809,1.6393,0.0,1.9201,2.0973,2.1928,0.0,0.0,2.4405,2.442,2.5632,2.6879,2.7076,2.7731,2.8296,2.8184,2.8278,2.8353,2.8221,2.8334,2.8444,2.8463,3.0509,3.1703,3.0535,3.1103,3.1188,3.0013,2.987,3.016,0.0,3.1773,3.256,3.3339,3.3429,3.4135,3.5729,3.5838,3.6562,3.8138,3.8192,3.8192,3.8192,3.8192,3.8192,3.8192,3.8192,3.8192,3.8225,3.8401,3.8634,3.8892,3.9101,3.9335,3.9577,3.9577,3.9546,3.9495,3.9418,3.9301,3.9183,3.9129,3.9101,3.9101,0.0,0.0,0.0,0.9085,0.9033,0.9001,0.8973,0.905,0.9056,0.8919,0.8897,0.0,0.0,0.0,0.0,0.0,0.9705,1.0579,1.1039,1.3251,1.5024,1.6093,1.7912,1.9243,2.0021,2.0763,2.1435,2.2008,2.2397,2.2741,2.3075,2.3427,2.3532,2.3471,2.3421,2.3223,2.292,2.2522,2.2465,2.2575,2.1481,2.1214,2.1326,2.0068,1.8625,1.7103,0.0,0.0,1.4131,1.3676,1.4059,1.4837,1.5416,0.0,0.0,1.8317,2.0069,2.1634,2.2712,0.0,2.4704,2.58,2.6822,2.7577,2.7638,2.7919,2.831,2.8871,2.8107,2.7531,2.8203,2.7867,2.7866,2.9064,3.0415,3.1558,3.2278,3.2395,3.2059,3.1127,3.0779,0.0,0.0,0.0,0.0,3.3339,3.3393,3.396,3.5265,3.5638,3.6143,3.6931,3.7259,3.7377,3.7377,3.7377,3.7649,3.8192,3.8192,3.8192,3.8225,3.8401,3.8634,3.8892,3.9101,3.9328,3.952,3.952,3.9495,3.9444,3.9418,3.9373,3.9328,3.932,3.9229,3.9156,0.0,0.0,0.0,0.0,0.0,0.0,0.0,0.0,0.0,0.0,0.0,0.0,0.0,0.0,0.0,0.0,0.0,0.9464,0.9907,1.141,1.2824,1.4108,1.5522,1.6709,1.7614,1.8165,1.8737,1.937,1.9988,2.062,2.131,2.184,2.2216,2.2429,2.2561,2.2459,2.2133,2.2045,2.2066,2.2063,2.0793,2.0445,2.0495,1.8934,1.7307,0.0,0.0,1.3779,1.3088,1.2656,1.3201,1.42,1.5107,1.6463,1.7922,1.8782,2.0644,2.2778,2.4317,2.5038,2.5686,2.7065,2.788,2.8273,2.8059,2.8204,2.8334,2.8104,2.7175,2.6433,2.6575,2.6369,2.6669,2.8143,2.9795,3.1259,3.2248,3.2623,3.2465,3.1605,3.1206,0.0,0.0,0.0,0.0,3.3339,3.3393,3.3785,3.465,3.4975,3.5385,3.5882,3.6193,3.6447,3.6562,3.6852,3.7377,3.8192,3.8192,3.8192,3.8225,3.8401,3.8634,3.8892,3.9101,3.9328,3.9546,3.9546,3.952,3.9469,3.9444,3.9444,3.9444,3.9464,3.9388,3.9283,0.0,0.0,0.0,0.0,0.0,0.0,0.0,0.0,0.0,0.0,0.0,0.0,0.0,0.0,0.0,0.0,0.0,0.0,0.9003,1.0342,1.1464,1.2244,1.3079,1.3907,1.4749,1.4938,1.545,1.635,1.7337,1.8457,1.9683,2.0495,2.1245,2.1952,2.2081,2.2131,2.2114,2.2307,2.2085,2.1558,2.0709,1.9783,1.8783,1.7747,0.0,0.0,0.0,0.0,1.207,1.2369,0.0,0.0,0.0,0.0,0.0,2.0573,2.2633,2.5176,2.5004,2.6045,2.7359,2.8165,2.8683,2.8889,2.8368,2.8565,2.8239,2.6041,2.5523,2.4999,0.0,0.0,2.4917,2.5834,2.8726,3.0824,3.0663,3.1918,3.2471,0.0,0.0,0.0,0.0,0.0,0.0,3.328,0.0,3.352,3.3904,3.3957,3.4329,3.5062,3.5114,3.5319,3.5716,3.658,3.7359,3.8119,3.8174,3.8192,3.8225,3.8401,3.8634,3.8892,3.9101,3.9362,3.9602,3.9602,3.9602,3.9577,3.952,3.9495,3.9502,3.9585,3.9532,3.9451,0.0,0.0,0.0,0.0,0.0,0.0,0.0,0.0,0.0,0.0,0.0,0.0,0.0,0.0,0.0,0.0,0.0,0.0,0.0,0.8413,0.8903,0.9209,1.0431,1.1268,1.1651,1.2155,1.2648,1.3011,1.3916,1.4611,1.5102,1.5904,1.657,1.71,1.7224,1.7548,1.801,1.8065,1.8571,1.9201,1.7642,1.7193,1.7256,0.0,0.0,0.0,0.0,0.0,0.0,0.0,0.0,0.0,0.0,1.9645,2.1602,0.0,0.0,2.5508,2.6529,2.744,2.8256,2.9008,2.8702,2.8329,2.878,2.7112,2.5485,2.5634,2.3652,2.2039,0.0,0.0,0.0,2.5518,2.8422,0.0,3.1261,3.2569,0.0,3.1946,0.0,3.2187,3.1793,3.1962,0.0,0.0,3.2716,3.2772,3.3171,3.3477,3.3565,3.3502,3.4022,3.436,3.4443,3.6158,3.712,3.7286,3.7902,3.8192,3.8225,3.8401,3.8634,3.8892,3.9101,3.9362,3.9602,3.9602,3.9602,3.9596,3.9596,3.9552,3.9596,3.9588,3.9637,3.9712,0.0,0.0,0.0,0.0,0.0,0.0,0.0,0.0,0.0,0.0,0.0,0.0,0.0,0.0,0.0,0.0,0.0,0.0,0.0,0.7587,0.7762,0.7955,0.8526,0.8959,0.9166,0.9308,0.9542,0.9815,1.0656,1.1327,1.1876,1.2624,1.3275,1.388,1.4238,1.463,1.5086,1.5485,1.6094,0.0,0.0,1.5138,0.0,0.0,0.0,0.0,0.0,0.0,0.0,0.0,0.0,1.9619,2.0042,2.161,2.3391,2.3796,0.0,2.7187,2.7988,2.865,2.9236,2.9584,2.9139,2.8346,2.736,2.5893,2.4395,2.3236,2.1445,0.0,0.0,0.0,0.0,0.0,0.0,0.0,3.0914,3.2291,3.2985,0.0,3.2665,0.0,3.1966,3.1985,3.2092,0.0,3.2317,3.2336,3.2352,3.2591,3.2628,3.2386,3.2773,3.3333,3.3972,3.5281,3.629,3.7029,3.7449,3.7848,3.8225,3.8401,3.8634,3.8892,0.0,3.9362,3.9602,3.9602,3.9602,3.9602,3.9602,3.9602,3.9602,3.9703,3.9708,3.9754,0.0,0.0,0.0,0.0,0.0,0.0,0.0,0.0,0.0,0.0,0.0,0.0,0.0,0.0,0.0,0.0,0.0,0.0,0.0,0.0,0.0,0.7617,0.7199,0.7044,0.7219,0.677,0.6698,0.7015,0.0,0.0,0.9432,1.0086,1.0795,1.1503,1.2114,1.251,1.2757,1.3665,1.4086,1.4085,1.3486,1.3275,0.0,0.0,0.0,0.0,0.0,0.0,0.0,0.0,1.9823,2.0905,2.1775,2.3678,2.5628,2.5788,2.7361,2.906,2.9214,2.9658,3.0034,2.9823,2.9487,2.8408,2.5338,2.4759,2.3819,2.0155,0.0,1.9231,1.9226,2.0103,2.1302,2.2861,0.0,2.8301,2.9945,3.1396,3.242,3.2799,3.2769,3.2601,3.2231,3.186,3.1657,3.1694,3.1967,3.2003,3.1657,3.162,3.164,3.1677,3.1677,3.2388,3.383,3.4281,3.5263,3.6671,3.692,3.7374,3.8077,3.841,3.8695,3.895,0.0,0.0,3.9602,3.9602,3.9602,3.9602,3.9602,3.9602,3.9626,3.98,3.9754,3.9679,0.0,0.0,0.0,0.0,0.0,0.0,0.0,0.0,0.0,0.0,0.8403,0.8335,0.0,0.0,0.0,0.0,0.0,0.0,0.0,0.0,0.0,0.6731,0.6378,0.6086,0.5854,0.0,0.0,0.0,0.0,0.0,0.0,0.0,0.0,0.0,0.0,0.0,0.0,1.0885,1.1409,0.0,0.0,0.0,0.0,0.0,0.0,0.0,0.0,0.0,0.0,0.0,2.0644,2.2692,2.3563,2.4649,2.5861,2.7176,2.7835,2.8413,2.9733,3.0112,2.9916,2.9182,2.8366,2.7248,2.529,2.3377,0.0,0.0,1.8314,1.7624,1.6943,1.8958,2.1007,2.1898,0.0,0.0,0.0,0.0,3.1315,0.0,0.0,0.0,0.0,0.0,0.0,0.0,0.0,3.1368,3.1291,3.1291,3.1428,3.1677,3.1677,3.2126,3.3009,3.3734,3.4397,3.5041,3.6345,3.7162,3.7509,3.8401,3.895,3.9156,3.9432,0.0,3.9602,3.9602,3.9602,3.9602,3.9602,3.9602,3.9602,3.965,3.975,3.9848,0.0,0.0,0.0,0.0,0.0,0.0,0.0,0.8348,0.8387,0.8476,0.8438,0.8428,0.8495,0.8311,0.0,0.0,0.0,0.0,0.0,0.0,0.0,0.0,0.0,0.6022,0.0,0.0,0.0,0.0,0.0,0.0,0.0,0.0,0.0,0.0,0.0,0.0,0.0,0.0,0.0,0.0,0.0,0.0,0.0,0.0,0.0,0.0,0.0,0.0,0.0,0.0,1.9019,2.1827,2.3717,2.5503,2.6974,2.7316,2.833,2.9381,2.9646,2.9953,2.9989,2.9036,2.8118,2.6669,2.3702,0.0,0.0,0.0,1.6132,1.5793,1.6704,0.0,0.0,0.0,0.0,0.0,0.0,0.0,0.0,0.0,0.0,0.0,0.0,0.0,0.0,0.0,0.0,3.0918,3.119,3.119,3.1252,3.1411,3.162,3.195,3.2535,3.3123,3.3809,3.4624,3.5385,3.6227,3.7184,3.7934,3.8543,3.9045,3.9432,0.0,3.9602,3.9602,3.9602,3.9602,3.9602,3.9602,3.9602,3.9602,3.9674,3.9731,0.0,0.0,0.0,0.0,0.0,0.0,0.0,0.824,0.8332,0.8422,0.8412,0.8428,0.8508,0.8311,0.8108,0.0,0.0,0.0,0.0,0.0,0.0,0.0,0.0,0.0,0.0,0.0,0.0,0.0,0.0,0.0,0.0,0.0,0.0,0.0,0.0,0.0,0.0,0.0,0.0,0.0,0.0,0.0,0.0,0.0,0.0,0.0,0.0,0.0,0.0,0.0,1.6788,1.9454,2.2244,2.503,2.7211,2.6943,2.8243,2.9738,2.9545,2.977,2.9787,2.8821,2.7894,2.6154,2.1988,1.9684,0.0,0.0,1.4249,1.4403,1.6595,0.0,0.0,0.0,0.0,0.0,0.0,0.0,0.0,0.0,0.0,0.0,0.0,0.0,0.0,0.0,0.0,0.0,3.1015,3.1151,3.119,3.119,3.1466,3.1804,3.2179,3.2502,3.3198,3.4243,3.4485,3.5289,3.6567,3.7334,3.8052,3.8719,3.9331,0.0,0.0,3.9602,3.9602,3.9602,3.9602,3.9602,3.9602,3.9602,3.9602,3.9602,0.0,0.0,0.0,0.0,0.0,0.0,0.0,0.7875,0.8282,0.8232,0.8338,0.8361,0.8253,0.8158,0.798,0.0,0.0,0.0,0.0,0.0,0.0,0.0,0.0,0.0,0.0,0.0,0.0,0.0,0.0,0.0,0.0,0.0,0.0,0.0,0.0,0.0,0.0,0.0,0.0,0.0,0.0,0.0,0.0,0.0,0.0,0.0,0.0,0.0,0.0,0.0,0.0,1.5766,1.846,2.1717,2.4843,2.6362,0.0,0.0,2.9854,2.9813,2.8917,2.8103,2.7109,2.5247,2.1128,0.0,0.0,1.4436,1.3894,1.4174,1.5138,1.6347,0.0,0.0,0.0,2.0782,0.0,0.0,0.0,0.0,0.0,0.0,0.0,0.0,0.0,0.0,0.0,0.0,3.0559,3.0975,3.119,3.119,3.123,3.1428,3.175,3.2144,3.2537,3.2983,3.4073,3.4782,3.5162,3.6905,3.7849,3.813,3.9164,0.0,0.0,3.9602,3.9602,3.9602,3.9602,3.9602,3.9602,3.9602,3.9602,3.9602,0.0,0.0,0.0,0.0,0.0,0.0,0.7054,0.7711,0.8133,0.7984,0.8012,0.7983,0.7854,0.7811,0.7782,0.7724,0.0,0.0,0.0,0.0,0.0,0.0,0.0,0.0,0.0,0.0,0.0,0.0,0.0,0.0,0.0,0.0,0.0,0.0,0.0,0.0,0.0,0.0,0.0,0.0,0.0,0.0,0.0,0.0,0.0,0.0,0.0,0.0,0.0,0.0,0.0,0.0,1.4697,1.7318,0.0,0.0,2.4801,2.6164,2.7063,2.7806,2.8206,2.7682,2.6181,2.4121,2.1482,0.0,1.5498,1.3488,1.2684,1.2905,1.4755,1.5024,1.5739,1.8076,1.7691,1.7772,1.9745,0.0,0.0,0.0,0.0,0.0,0.0,0.0,0.0,0.0,0.0,0.0,3.0097,3.0797,3.119,3.119,3.1389,3.1694,3.2074,3.2435,3.2781,3.3178,3.3659,3.4177,3.4739,3.5745,3.649,3.7079,3.7785,0.0,0.0,3.8826,3.9126,3.9602,3.9602,3.9602,3.9602,3.9602,3.9602,3.9602,0.0,0.0,0.0,0.0,0.0,0.6434,0.6714,0.747,0.7954,0.7768,0.7739,0.7694,0.7545,0.753,0.7575,0.768,0.75,0.0,0.0,0.0,0.0,0.0,0.0,0.0,0.0,0.0,0.0,0.0,0.0,0.0,0.0,0.0,0.0,0.0,0.0,0.0,0.0,0.0,0.0,0.0,0.0,0.0,0.0,0.0,0.0,0.0,0.0,0.0,0.0,0.0,0.0,0.0,0.0,0.0,0.0,0.0,2.2728,2.4495,2.5294,2.6285,2.7003,2.6746,2.5209,2.3229,0.0,1.775,1.458,1.2941,1.1711,1.1706,1.4225,1.4233,1.471,1.7307,1.6657,1.6388,1.7948,0.0,0.0,0.0,0.0,0.0,0.0,0.0,0.0,0.0,0.0,0.0,0.0,3.0576,3.1055,3.119,3.1524,3.1823,3.2109,3.2568,3.2939,3.3208,3.3334,3.3701,3.4244,3.4834,3.544,3.6075,0.0,0.0,0.0,3.7943,3.83,3.8888,3.9107,3.9051,3.8925,3.9432,3.9451,3.9239,0.0,0.0,0.0,0.0,0.0,0.0,0.621,0.7119,0.7753,0.762,0.7605,0.7545,0.7422,0.7407,0.7407,0.7407,0.7407,0.0,0.0,0.0,0.0,0.0,0.0,0.0,0.0,0.0,0.0,0.0,0.0,0.0,0.0,0.0,0.0,0.0,0.0,0.0,0.0,0.0,0.0,0.0,0.0,0.0,0.0,0.0,0.0,0.0,0.0,0.0,0.0,0.0,0.0,0.0,0.0,0.0,0.0,0.0,2.0909,2.226,2.5591,2.5818,2.5102,2.5046,2.427,2.2701,0.0,1.6844,1.4463,1.2928,1.1277,1.0855,1.3258,1.425,1.4968,1.5788,1.6852,1.754,1.7417,0.0,0.0,0.0,0.0,0.0,0.0,0.0,0.0,0.0,0.0,0.0,0.0,3.0267,3.0699,3.119,3.1524,3.1677,3.1714,3.2417,3.2795,3.2795,3.3208,3.3393,3.3447,3.4454,3.5028,0.0,0.0,0.0,0.0,3.7099,3.7117,3.7192,3.8,3.7831,3.7347,3.9,3.9051,3.845,0.0,0.0,0.0,0.0,0.0,0.0,0.0,0.6706,0.7303,0.7442,0.7453,0.7438,0.7407,0.7392,0.7392,0.7392,0.7392,0.0,0.0,0.0,0.0,0.0,0.0,0.0,0.0,0.0,0.5771,0.5726,0.6027,0.0,0.0,0.0,0.0,0.0,0.0,0.0,0.0,0.0,0.0,0.0,0.0,0.0,0.0,0.0,0.0,0.0,0.0,0.0,0.0,0.0,0.0,0.0,0.0,0.0,0.0,1.4313,1.6519,0.0,1.9943,2.1444,2.2546,2.2421,2.1711,2.0653,1.923,1.6445,1.3657,1.1933,1.0751,1.0575,1.235,1.2402,1.328,1.6715,1.6946,0.0,0.0,0.0,0.0,0.0,0.0,0.0,0.0,0.0,0.0,0.0,0.0,0.0,0.0,2.9251,2.9898,3.1173,3.1804,3.2109,3.2109,3.283,3.3208,3.3208,3.3334,3.3393,3.3411,3.386,0.0,0.0,0.0,0.0,0.0,3.6273,3.6618,3.7194,3.7408,3.7351,3.7288,3.8324,3.8544,3.8432,0.0,0.0,0.0,0.0,0.0,0.0,0.0,0.6154,0.6577,0.6742,0.6942,0.7068,0.7068,0.7265,0.7392,0.7392,0.7392,0.0,0.0,0.0,0.0,0.0,0.0,0.0,0.0,0.5888,0.5991,0.5984,0.626,0.6557,0.6858,0.7348,0.0,0.0,0.0,0.0,0.0,0.0,0.0,0.0,0.0,0.0,0.0,0.0,0.0,0.0,0.0,0.0,0.0,0.0,0.0,0.0,0.0,0.0,0.0,0.0,1.3303,1.4999,0.0,1.8434,1.9901,1.976,1.9338,1.8668,1.7631,1.5288,1.2928,1.1414,1.0514,1.0338,1.1474,1.2047,1.3186,1.5751,1.652,0.0,0.0,0.0,0.0,0.0,0.0,0.0,0.0,0.0,0.0,0.0,0.0,0.0,0.0,2.8294,2.905,3.0499,3.1539,3.2144,3.2317,3.2894,3.3256,3.3393,3.3393,3.3393,3.3393,3.352,0.0,0.0,0.0,0.0,0.0,3.5409,3.5735,3.6252,3.6521,3.6468,3.6365,3.7441,3.785,3.7962,0.0,0.0,0.0,0.0,0.0,0.0,0.0,0.5499,0.5665,0.5697,0.6131,0.6449,0.6477,0.6997,0.7349,0.7376,0.0,0.0,0.0,0.0,0.0,0.0,0.0,0.0,0.0,0.623,0.6153,0.6295,0.6418,0.6681,0.7123,0.7545,0.7768,0.0,0.0,0.0,0.0,0.0,0.0,0.0,0.0,0.0,0.0,0.0,0.0,0.0,0.0,0.0,0.0,0.0,0.0,0.0,0.0,0.0,0.0,0.0,0.0,0.0,0.0,1.6479,0.0,1.6999,1.7046,1.6704,1.5093,1.3588,0.0,1.1212,1.0452,1.0163,1.0752,1.276,1.4164,1.3681,0.0,0.0,0.0,0.0,0.0,0.0,0.0,0.0,0.0,0.0,0.0,0.0,0.0,0.0,0.0,2.7403,2.8152,2.9374,3.0789,3.1756,3.2231,3.2601,3.2988,3.3364,3.3411,3.3393,3.3393,3.3393,0.0,0.0,0.0,0.0,0.0,3.4583,3.4623,3.4698,3.5503,3.5315,3.4811,3.6427,3.7005,3.7117,0.0,0.0,0.0,0.0,0.0,0.0,0.0,0.0,0.0,0.0,0.5759,0.5934,0.6228,0.6533,0.684,0.0,0.0,0.0,0.0,0.0,0.0,0.0,0.0,0.0,0.0,0.6493,0.6557,0.6295,0.6832,0.7141,0.7266,0.7825,0.809,0.8118,0.8418,0.0,0.0,0.0,0.0,0.0,0.0,0.0,0.0,0.0,0.0,0.0,0.0,0.0,0.0,0.0,0.0,0.0,0.0,0.0,0.0,0.0,1.039,1.058,1.1384,0.0,1.4506,1.3876,1.4144,1.4304,0.0,1.23,1.1293,1.0186,0.9937,1.0266,1.1364,1.1688,1.2811,0.0,0.0,0.0,0.0,0.0,0.0,0.0,0.0,0.0,0.0,0.0,0.0,0.0,0.0,0.0,0.0,2.6647,2.7424,2.8611,2.9306,3.0324,3.1806,3.2468,3.2844,3.2939,3.3256,3.3393,3.3393,3.3393,0.0,0.0,0.0,0.0,3.4386,3.4539,3.4666,3.4766,3.487,3.4854,3.4879,3.5848,3.6179,3.6291,0.0,0.0,0.0,0.0,0.0,0.0,0.0,0.0,0.0,0.0,0.0,0.0,0.0,0.0,0.0,0.0,0.0,0.0,0.0,0.0,0.0,0.0,0.0,0.0,0.66,0.6815,0.6878,0.6765,0.7042,0.73,0.7591,0.7883,0.8133,0.8342,0.8684,0.0,0.0,0.0,0.0,0.0,0.0,0.0,0.0,0.0,0.0,0.0,0.9768,0.9837,0.0,0.9906,0.9925,0.9954,0.0,0.0,0.0,0.0,1.0144,1.0152,1.0156,1.1708,1.3218,1.2697,1.2894,1.3106,1.2566,1.1491,1.042,0.9743,0.0,0.0,0.0,0.0,0.0,0.0,0.0,0.0,0.0,0.0,0.0,0.0,0.0,0.0,0.0,0.0,0.0,0.0,0.0,0.0,0.0,2.579,2.6542,2.7547,2.8126,2.9155,3.0679,3.141,3.1954,3.2309,3.2857,3.3208,3.3393,3.3393,3.3491,0.0,0.0,0.0,3.4316,3.4517,3.4645,3.4687,3.4623,3.4645,3.4762,3.5149,3.5559,3.5953,0.0,0.0,0.0,0.0,0.0,0.0,0.0,0.0,0.0,0.0,0.0,0.0,0.0,0.0,0.0,0.0,0.0,0.0,0.0,0.0,0.0,0.0,0.0,0.7392,0.7329,0.7171,0.7155,0.7329,0.7203,0.7408,0.7897,0.7898,0.8147,0.8595,0.888,0.8992,0.0,0.0,0.0,0.0,0.0,0.0,0.0,0.0,0.0,0.0,0.0,0.0,0.0,0.9936,0.9965,1.0014,1.0019,0.0,0.0,0.0,0.0,0.0,1.0279,1.1481,1.2666,1.2371,1.2492,1.2613,1.2425,0.0,0.0,0.0,0.0,0.0,0.0,0.0,0.0,0.0,0.0,0.0,0.0,0.0,0.0,0.0,0.0,0.0,0.0,0.0,0.0,0.0,0.0,0.0,0.0,2.5059,2.5778,2.6393,2.7214,2.8083,2.9076,2.9972,3.0801,3.1529,3.2218,3.28,3.3304,3.3304,3.3433,0.0,0.0,0.0,3.4269,3.4473,3.4561,3.4602,3.4602,3.4602,3.4602,3.4602,3.5071,3.5728,0.0,0.0,0.0,0.0,0.0,0.0,0.0,0.0,0.0,0.0,0.0,0.0,0.0,0.0,0.0,0.0,0.0,0.0,0.0,0.0,0.0,0.0,0.7545,0.7484,0.7469,0.7438,0.7438,0.7469,0.7665,0.7811,0.7911,0.8224,0.862,0.9007,0.9067,0.9081,0.9068,0.0,0.0,0.0,0.0,0.0,0.0,0.0,0.0,0.0,0.0,0.0,0.0,1.0073,1.0078,1.0073,1.0078,0.0,0.0,0.0,0.0,0.0,1.0925,1.1725,1.2221,1.1565,1.1969,1.249,1.2274,1.2028,0.0,0.0,0.0,0.0,0.0,0.0,0.0,0.0,0.0,0.0,0.0,0.0,0.0,0.0,0.0,0.0,0.0,0.0,0.0,0.0,0.0,0.0,0.0,2.5059,2.5551,2.5664,2.6447,2.6945,2.7131,2.8836,3.0058,3.0768,3.1214,3.1948,3.2876,3.2876,3.3081,0.0,0.0,3.3842,3.4074,3.4269,3.445,3.4602,3.4602,3.4602,3.4602,3.4602,3.4677,3.4902,0.0,0.0,0.0,0.0,0.0,0.0,0.0,0.0,0.0,0.0,0.0,0.0,0.0,0.0,0.0,0.0,0.0,0.0,0.0,0.0,0.0,0.768,0.7855,0.7884,0.7783,0.7738,0.7796,0.794,0.7952,0.8049,0.8224,0.8571,0.883,0.9036,0.9081,0.9154,0.9263,0.0,0.0,0.0,0.0,0.0,0.0,0.0,0.0,0.0,0.0,0.0,0.0,0.0,1.0098,1.0113,1.0149,0.0,0.0,0.0,0.0,0.0,1.0467,1.0978,1.1412,1.1367,1.2253,1.3137,1.3243,1.2897,0.0,0.0,0.0,0.0,0.0,0.0,0.0,0.0,0.0,0.0,0.0,0.0,0.0,0.0,0.0,0.0,0.0,0.0,0.0,0.0,0.0,0.0,0.0,0.0,2.5275,2.5503,2.6068,2.647,2.6691,2.7572,2.8476,2.9436,2.9987,3.0637,3.1363,3.1929,3.233,3.2535,0.0,3.3753,3.3868,3.4173,3.434,3.445,3.4561,3.4602,3.4602,3.4602,3.4602,3.4658,0.0,0.0,0.0,0.0,0.0,0.0,0.0,0.0,0.0,0.0,0.0,0.0,0.0,0.0,0.0,0.0,0.0,0.0,0.0,0.0,0.7027,0.7531,0.8059,0.8247,0.8053,0.8036,0.8131,0.8348,0.8185,0.829,0.8595,0.8852,0.9026,0.9114,0.9177,0.9292,0.9439,0.9331,0.0,0.0,0.0,0.0,0.0,0.0,0.0,0.0,0.0,0.0,0.0,0.0,0.0,0.0,0.0,0.0,0.0,1.0224,1.0191,1.0154,1.0164,1.0373,1.0749,1.1326,1.2311,1.3346,1.4207,1.3729,0.0,0.0,0.0,0.0,0.0,0.0,0.0,0.0,0.0,0.0,0.0,0.0,0.0,0.0,0.0,0.0,0.0,0.0,0.0,0.0,0.0,0.0,0.0,0.0,2.5082,2.5503,2.5908,2.628,2.6691,2.6691,2.7215,2.8268,2.8819,2.9401,3.0004,3.0885,3.1444,3.175,3.2881,3.3478,3.3726,3.4074,3.4245,3.4316,3.4473,3.4517,3.4539,3.4583,3.4602,3.4602,0.0,0.0,0.0,0.0,0.0,0.0,0.0,0.0,0.0,0.0,0.0,0.0,0.0,0.0,0.0,0.0,0.0,0.0,0.0,0.0,0.691,0.7135,0.7938,0.833,0.8191,0.8296,0.8415,0.8495,0.8467,0.8616,0.888,0.9078,0.9285,0.9472,0.9472,0.9522,0.9576,0.9514,0.9489,0.0,0.0,0.0,0.0,0.0,0.0,0.0,0.0,0.0,0.0,0.0,0.0,0.0,0.0,0.0,1.0176,1.0059,1.0012,1.0146,1.0753,1.0638,1.0511,1.1222,1.1594,1.2308,1.4459,1.4467,0.0,1.6288,0.0,0.0,0.0,0.0,0.0,0.0,0.0,0.0,0.0,0.0,0.0,0.0,0.0,0.0,0.0,0.0,0.0,0.0,0.0,0.0,0.0,0.0,0.0,2.5503,2.5908,2.628,2.6691,2.6691,2.7063,2.7842,2.791,2.8493,2.9574,2.9957,3.0712,3.1714,3.2119,3.2829,3.3726,3.3921,3.4124,3.4293,3.4316,3.4316,3.434,3.4517,3.4602,3.4602,0.0,0.0,0.0,0.0,0.0,0.0,0.0,0.0,0.0,0.0,0.0,0.0,0.0,0.0,0.0,0.0,0.0,0.0,0.0,0.0,0.6187,0.7058,0.758,0.802,0.8371,0.8612,0.8712,0.8685,0.8771,0.8869,0.8968,0.9206,0.9349,0.9385,0.9472,0.9597,0.9721,0.9609,0.9602,0.9692,0.0,0.0,0.0,0.0,0.0,0.0,0.0,0.0,0.0,0.0,1.017,1.0137,1.0159,1.0119,1.0076,1.0015,0.997,0.9957,1.01,1.0209,1.0389,1.0758,1.1189,0.0,0.0,1.4735,1.5493,1.6939,1.7217,0.0,0.0,0.0,0.0,0.0,0.0,0.0,0.0,0.0,0.0,0.0,0.0,0.0,0.0,0.0,0.0,0.0,0.0,0.0,0.0,0.0,0.0,2.5082,2.554,2.5908,2.6315,2.659,2.6843,2.7114,2.7114,2.7335,2.7776,2.8833,2.9532,3.0052,3.1546,3.2418,3.2811,3.3506,3.386,3.3947,3.4074,3.4124,3.4148,3.434,3.4409,3.4427,0.0,0.0,0.0,0.0,0.0,0.0,0.0,0.0,0.0,0.0,0.0,0.0,0.0,0.0,0.0,0.0,0.0,0.0,0.0,0.5032,0.5592,0.6546,0.7141,0.7675,0.8204,0.8672,0.8863,0.8809,0.893,0.899,0.9001,0.9253,0.9358,0.9341,0.9522,0.9692,0.9823,0.9738,0.9745,0.983,0.98,0.0,0.0,0.0,0.0,0.0,0.0,0.0,0.0,0.0,1.0168,1.013,1.0105,1.0033,0.9965,0.9925,0.9863,0.9788,0.9751,0.9755,0.994,1.0575,0.0,0.0,1.3512,1.4743,1.5876,1.7181,1.7554,0.0,0.0,0.0,0.0,0.0,0.0,0.0,0.0,0.0,0.0,0.0,0.0,0.0,0.0,0.0,0.0,0.0,0.0,0.0,0.0,0.0,0.0,0.0,2.484,2.535,2.6087,2.635,2.6573,2.6691,2.6691,2.6691,2.6742,2.7843,2.857,2.8974,3.0592,3.148,3.1882,3.263,3.3076,3.3378,3.381,3.3947,3.3921,3.4124,3.4197,3.4221,0.0,0.0,0.0,0.0,0.0,0.0,0.0,0.0,0.0,0.0,0.0,0.0,0.0,0.0,0.0,0.0,0.0,0.0,0.4301,0.4795,0.5224,0.5484,0.6661,0.7399,0.7588,0.8454,0.8863,0.8809,0.8925,0.8992,0.9002,0.9206,0.9332,0.941,0.9673,0.983,0.9906,0.9906,0.9906,0.9906,0.9825,0.9886,0.0,0.0,0.0,0.0,0.0,0.0,0.0,0.0,1.0202,1.0155,0.9954,0.9905,0.9872,0.9731,0.964,0.9651,0.9919,0.9377,0.9122,0.0,0.0,0.0,1.3513,1.4512,1.5513,1.727,0.0,1.7311,0.0,0.0,0.0,0.0,0.0,0.0,0.0,0.0,0.0,0.0,0.0,0.0,0.0,0.0,0.0,0.0,0.0,0.0,0.0,0.0,0.0,0.0,2.3897,2.459,2.6071,2.6087,2.6298,2.6674,2.6691,2.6691,2.6725,2.7053,2.7816,2.8903,2.9183,2.9942,3.1012,3.1214,3.1766,3.2572,3.3589,3.385,3.3707,3.3921,3.3998,3.3998,0.0,0.0,0.0,0.0,0.0,0.0,0.0,0.0,0.0,0.0,0.0,0.0,0.0,0.0,0.0,0.0,0.0,0.0,0.4448,0.4588,0.4926,0.5474,0.6334,0.7063,0.7598,0.8269,0.8708,0.8863,0.8908,0.888,0.879,0.9149,0.9313,0.9341,0.9609,0.9798,0.9906,0.9948,0.9963,0.9976,0.9996,1.0034,0.0,0.0,0.0,0.0,0.0,0.0,0.0,0.0,0.0,0.0,0.9939,0.9835,0.9733,0.9605,0.9536,0.9488,0.9341,0.9822,0.0,1.0659,0.0,0.0,0.0,1.4917,0.0,0.0,0.0,0.0,0.0,0.0,0.0,0.0,0.0,0.0,0.0,0.0,0.0,0.0,0.0,0.0,0.0,0.0,0.0,0.0,0.0,0.0,0.0,0.0,0.0,0.0,2.3038,2.3426,2.3835,2.487,2.5445,2.5598,2.6337,2.6691,2.6725,2.7053,2.7365,2.7764,2.8847,2.9479,2.9861,3.0731,3.122,3.1456,3.1773,3.2202,3.2683,3.2865,3.3311,3.3807,0.0,0.0,0.0,0.0,0.0,0.0,0.0,0.0,0.0,0.0,0.0,0.0,0.0,0.0,0.0,0.0,0.0,0.0,0.0,0.0,0.4806,0.551,0.6195,0.702,0.8011,0.8108,0.8197,0.826,0.8593,0.8703,0.8622,0.903,0.9218,0.9239,0.9552,0.9745,0.0,0.0,0.9995,1.0016,1.0067,1.0101,1.0117,0.0,0.0,0.0,0.0,0.0,0.0,0.0,0.0,0.0,0.9862,0.975,0.9605,0.9367,0.9287,0.9296,0.9446,1.0001,0.0,1.1403,1.2376,1.3438,1.4433,0.0,0.0,0.0,0.0,0.0,0.0,0.0,0.0,0.0,0.0,0.0,0.0,0.0,0.0,0.0,0.0,0.0,0.0,0.0,0.0,0.0,0.0,0.0,0.0,0.0,0.0,0.0,2.2129,2.2456,2.2905,2.3907,2.4479,2.468,2.5765,2.6251,2.6268,2.6787,2.7085,2.7261,2.8346,2.8816,2.8897,3.0044,3.0514,3.055,3.0876,3.1292,3.1791,3.222,3.2684,3.3168,0.0,0.0,0.0,0.0,0.0,0.0,0.0,0.0,0.0,0.0,0.0,0.0,0.0,0.0,0.0,0.0,0.0,0.0,0.0,0.0,0.4806,0.5467,0.6145,0.7188,0.8672,0.7967,0.7535,0.7417,0.8088,0.8412,0.84,0.8884,0.9116,0.9119,0.952,0.971,0.0,0.0,0.9995,1.0001,1.0086,1.0101,1.0101,1.009,0.0,0.0,0.0,0.0,0.0,0.0,0.0,0.0,0.9794,0.964,0.9502,0.9109,0.8932,0.904,0.9844,0.0,0.0,1.2467,1.2844,0.0,1.5348,0.0,0.0,0.0,0.0,0.0,0.0,0.0,0.0,0.0,0.0,0.0,0.0,0.0,0.0,0.0,0.0,0.0,0.0,0.0,0.0,0.0,0.0,0.0,0.0,0.0,0.0,2.1126,2.1193,2.1688,2.2643,2.3061,2.347,0.0,2.4943,2.5475,2.5541,2.6336,2.6891,2.7244,2.7823,2.8075,2.8183,2.925,2.9681,2.9753,3.0496,3.0822,3.0966,3.1709,3.2071,3.2288,0.0,0.0,0.0,0.0,0.0,0.0,0.0,0.0,0.0,0.0,0.0,0.0,0.0,0.0,0.0,0.0,0.0,0.0,0.0,0.0,0.4617,0.4743,0.5919,0.7245,0.8672,0.7878,0.7696,0.8246,0.795,0.7704,0.7584,0.862,0.9133,0.9189,0.9555,0.9738,0.9793,0.9942,1.0029,1.0086,1.0095,1.0137,1.0112,0.9433,0.9178,0.0,0.0,0.0,0.0,0.0,0.0,0.0,0.9848,0.9583,0.9305,0.9005,0.8801,0.8726,0.9019,0.9704,0.0,0.0,1.2716,1.3881,0.0,0.0,0.0,0.0,0.0,0.0,0.0,0.0,0.0,0.0,0.0,0.0,0.0,0.0,0.0,0.0,0.0,0.0,0.0,0.0,0.0,0.0,0.0,0.0,0.0,0.0,0.0,2.0044,2.0329,2.0632,2.086,2.1758,2.2404,0.0,2.3835,2.4491,2.4763,2.6099,2.6891,2.7213,2.7624,2.7897,2.8147,2.8647,2.8866,2.8884,2.9065,2.95,3.0061,3.0242,3.1111,3.2216,0.0,0.0,0.0,0.0,0.0,0.0,0.0,0.0,0.0,0.0,0.0,0.0,0.0,0.0,0.0,0.0,0.0,0.0,0.0,0.0,0.477,0.5011,0.6044,0.6924,0.7631,0.688,0.6824,0.7497,0.7211,0.7344,0.7887,0.8705,0.9133,0.9206,0.9522,0.9698,0.9781,0.9491,0.9648,1.002,0.964,0.9525,0.952,0.9082,0.8654,0.8339,0.8363,0.0,0.0,0.0,0.0,0.0,0.0,0.0,0.9374,0.897,0.8691,0.854,0.8743,0.0,0.0,1.1538,0.0,0.0,0.0,0.0,0.0,0.0,0.0,0.0,0.0,0.0,0.0,0.0,0.0,0.0,0.0,0.0,0.0,0.0,0.0,0.0,0.0,0.0,0.0,0.0,0.0,0.0,0.0,1.886,1.9273,1.969,2.008,2.0304,2.0304,2.1007,2.145,2.1664,2.2882,2.3842,2.4557,2.5659,2.6469,2.6989,2.7474,2.7771,2.7954,2.8414,2.8587,2.8587,2.8587,2.8866,2.9264,2.9644,3.0314,3.1148,0.0,0.0,0.0,0.0,0.0,0.0,0.0,0.0,0.0,0.0,0.0,0.0,0.0,0.0,0.0,0.0,0.0,0.0,0.0,0.4763,0.4963,0.5576,0.6127,0.6435,0.6517,0.5871,0.5888,0.6646,0.6443,0.7129,0.0,0.0,0.9143,0.9253,0.9514,0.9684,0.9762,0.9029,0.9139,0.972,0.8919,0.862,0.8655,0.8516,0.8052,0.7473,0.7475,0.804,0.8793,0.8944,0.0,0.0,0.0,0.0,0.9471,0.8949,0.8595,0.8419,0.8679,0.0,1.0337,1.2061,1.2463,0.0,0.0,0.0,0.0,0.0,0.0,0.0,0.0,0.0,0.0,0.0,0.0,0.0,0.0,0.0,0.0,0.0,0.0,0.0,0.0,0.0,0.0,0.0,0.0,0.0,1.8397,1.8784,1.9161,1.9581,1.9904,2.015,2.0304,2.0494,2.0679,2.0843,2.2098,2.3274,2.4337,2.4932,2.5693,2.6538,2.7161,2.749,2.7654,2.8264,2.8518,2.8518,2.8587,2.8587,2.8677,2.9355,2.9663,2.997,0.0,0.0,0.0,0.0,0.0,0.0,0.0,0.0,0.0,0.0,0.0,0.5001,0.4986,0.4996,0.0,0.0,0.0,0.0,0.4907,0.0,0.0,0.5569,0.5628,0.5936,0.6568,0.5925,0.625,0.7616,0.6334,0.0,0.0,0.0,0.0,0.9376,0.0,0.0,0.9844,0.0,0.8843,0.8896,0.8088,0.7769,0.7688,0.701,0.6672,0.6574,0.6573,0.7135,0.7988,0.875,0.9526,0.0,0.0,0.0,0.0,0.8919,0.8538,0.8273,0.0,0.0,1.0443,0.0,1.2148,1.2063,0.0,0.0,0.0,0.0,0.0,0.0,0.0,0.0,0.0,0.0,0.0,0.0,0.0,0.0,0.0,0.0,0.0,0.0,0.0,0.0,0.0,0.0,0.0,0.0,1.8003,1.8358,1.8784,1.9176,1.925,1.9603,2.0304,2.001,2.017,2.0794,2.1577,2.2508,2.3545,2.3646,2.4441,2.5793,2.6138,2.6684,2.7289,2.7908,2.8156,2.8201,2.8492,2.8587,2.8605,2.8739,2.9192,2.9834,0.0,0.0,0.0,0.0,0.0,0.0,0.0,0.0,0.0,0.0,0.0,0.5036,0.5,0.4993,0.0,0.0,0.0,0.0,0.4907,0.4783,0.0,0.0,0.5036,0.5123,0.5419,0.5132,0.5511,0.6575,0.0,0.0,0.0,0.867,0.8937,0.0,0.0,0.0,0.0,0.0,0.0,0.8689,0.7383,0.7171,0.7504,0.6715,0.6396,0.6328,0.5851,0.6543,0.0,0.0,0.0,0.0,0.0,0.0,0.0,0.0,0.8689,0.0,0.8275,0.8974,0.9917,0.0,1.1214,1.1524,0.0,0.0,0.0,0.0,0.0,0.0,0.0,0.0,0.0,0.0,0.0,0.0,0.0,0.0,0.0,0.0,0.0,0.0,0.0,0.0,0.0,0.0,0.0,1.7882,1.7882,1.8279,1.8592,1.8745,1.8988,1.9398,1.994,1.9797,2.0065,2.0794,2.1103,2.1673,2.2488,2.2488,2.3412,2.4997,2.5335,2.5673,2.6048,2.6915,2.726,2.7341,2.804,2.8326,2.8352,2.8518,2.883,2.9192,0.0,0.0,0.0,0.0,0.0,0.0,0.0,0.0,0.0,0.0,0.0,0.0,0.5036,0.0,0.0,0.0,0.0,0.0,0.4912,0.0,0.0,0.0,0.0,0.4589,0.453,0.4546,0.4908,0.5656,0.0,0.0,0.8347,0.8403,0.8848,0.0,0.9762,0.9856,0.0,0.0,0.0,0.0,0.7246,0.7046,0.7562,0.6961,0.674,0.6649,0.5992,0.0,0.0,0.0,0.0,0.0,0.0,0.0,0.0,0.0,0.0,0.0,0.0,0.0,0.913,0.9578,1.0159,1.066,0.0,0.0,0.0,0.0,0.0,0.0,0.0,0.0,0.0,0.0,0.0,0.0,0.0,0.0,0.0,0.0,0.0,0.0,0.0,0.0,0.0,0.0,0.0,1.7434,1.7434,1.7871,1.8159,1.8275,1.8622,1.9101,1.969,1.9797,2.01,2.0646,2.0761,2.1135,2.1797,2.1797,2.2558,2.3981,2.4389,2.4694,2.4947,2.5836,2.6195,2.6276,2.7341,2.7762,2.7861,2.8324,2.8518,2.8677,0.0,0.0,0.0,0.0,0.0,0.0,0.0,0.0,0.0,0.0,0.0,0.0,0.0,0.0,0.0,0.0,0.0,0.0,0.0,0.0,0.0,0.0,0.0,0.0,0.4591,0.4652,0.5052,0.0,0.0,0.0,0.8502,0.8684,0.9195,0.9977,0.9917,0.9938,0.9936,0.0,0.0,0.0,0.0,0.7649,0.769,0.7655,0.7631,0.7624,0.0,0.0,0.0,0.0,0.0,0.0,0.0,0.0,0.0,0.0,0.0,0.0,0.0,0.8282,0.0,0.895,0.0,0.0,0.0,0.0,0.0,0.0,0.0,0.0,0.0,0.0,0.0,0.0,0.0,0.0,0.0,0.0,0.0,0.0,0.0,0.0,0.0,0.0,0.0,0.0,0.0,1.62,1.62,1.678,1.7257,1.7641,1.7846,1.8528,1.969,2.008,2.0254,2.0243,2.0613,2.1135,2.1797,2.1797,2.2024,2.2462,2.3185,2.3879,2.4537,2.4947,2.508,2.5178,2.6258,2.6817,2.7155,2.7861,2.8326,2.8605,0.0,0.0,0.0,0.0,0.0,0.0,0.0,0.0,0.0,0.0,0.0,0.0,0.0,0.5106,0.5104,0.5108,0.0,0.0,0.0,0.0,0.0,0.0,0.0,0.0,0.0,0.4719,0.0,0.0,0.0,0.6195,0.786,0.7976,0.8778,1.0125,1.0063,1.003,1.001,0.9272,0.0,0.0,0.0,0.0,0.0,0.791,0.8043,0.8444,0.0,0.0,0.0,0.0,0.0,0.0,0.0,0.9573,0.8978,0.8505,0.8414,0.0,0.0,0.0,0.0,0.8266,0.0,0.0,0.0,0.0,0.0,0.0,0.0,0.0,0.0,0.0,0.0,0.0,0.0,0.0,0.0,0.0,0.0,0.0,0.0,0.0,0.0,0.0,0.0,0.0,0.0,0.0,1.6118,1.6308,1.6504,1.6638,1.6709,1.7246,1.8353,1.9141,1.9639,1.9889,2.003,2.0462,2.1166,2.137,2.1661,2.2007,2.2495,2.2852,2.3122,2.3743,2.396,2.4086,2.5161,2.5935,2.6486,2.6954,2.761,2.8299,0.0,0.0,0.0,0.0,0.0,0.0,0.0,0.0,0.0,0.5102,0.0,0.0,0.0,0.0,0.5093,0.5101,0.5094,0.508,0.4999,0.0,0.0,0.0,0.0,0.0,0.0,0.0,0.0,0.0,0.0,0.0,0.0,0.7463,0.84,0.9773,0.945,0.9607,0.0,0.0,0.0,0.9349,0.0,0.0,0.937,0.0,0.9149,0.0,0.0,0.0,0.0,0.0,0.0,0.0,0.0,0.9389,0.8781,0.8364,0.843,0.0,0.8156,0.0,0.0,0.0,0.0,0.0,0.0,0.0,0.0,0.0,0.0,0.0,0.0,0.0,0.0,0.0,0.0,0.0,0.0,0.0,0.0,0.0,0.0,0.0,0.0,0.0,0.0,0.0,0.0,0.0,1.5508,1.5698,1.5901,1.6105,1.625,1.6669,1.7376,1.8329,1.898,1.931,1.9789,2.0243,2.0613,2.1198,2.1598,2.1811,2.2049,2.218,2.2344,2.2835,2.3038,2.3134,2.4098,2.4827,2.5455,2.6167,2.6915,2.7627,0.0,0.0,0.0,0.0,0.0,0.0,0.0,0.0,0.5097,0.5105,0.0,0.0,0.0,0.0,0.0,0.514,0.5144,0.5109,0.5009,0.5001,0.0,0.0,0.0,0.0,0.0,0.0,0.0,0.0,0.0,0.0,0.0,0.0,0.8115,0.8924,0.8085,0.8613,1.0136,0.0,1.0176,1.0195,0.0,1.0215,1.031,0.0,0.0,0.0,1.1764,1.1645,0.0,0.0,0.0,0.0,0.0,0.9426,0.935,0.9126,0.8945,0.8719,0.0,0.0,0.0,0.0,0.0,0.0,0.0,0.0,0.0,0.0,0.0,0.0,0.0,0.0,0.0,0.0,0.0,0.0,0.0,0.0,0.0,0.0,0.0,0.0,0.0,0.0,0.0,0.0,0.0,1.4007,1.43,1.4843,1.5426,1.6037,1.6431,1.6759,1.6932,1.7726,1.8259,1.8486,1.9912,2.0458,2.027,2.1268,2.1761,2.1784,2.1797,2.1991,2.2282,2.2282,2.231,2.2378,2.3088,2.3591,2.4043,2.5483,2.6231,2.6648,0.0,0.0,0.0,0.0,0.0,0.5098,0.5098,0.5098,0.5098,0.0,0.0,0.0,0.5173,0.5661,0.603,0.6033,0.6045,0.5756,0.5109,0.5082,0.507,0.5072,0.5074,0.5038,0.4973,0.4916,0.4889,0.4875,0.5082,0.5504,0.6128,0.651,0.7146,0.7984,0.7793,0.796,0.8428,0.9056,0.0,0.0,1.0205,1.0486,0.0,0.0,0.0,0.0,0.0,1.1321,1.105,0.0,1.0516,1.002,0.0,0.0,0.9179,0.8385,0.8385,0.8591,0.8303,0.0,0.0,0.0,0.0,0.0,0.0,0.0,0.0,0.0,0.0,0.0,0.0,0.0,0.0,0.0,0.0,0.0,0.0,0.0,0.0,0.0,0.0,0.0,0.0,0.0,0.0,0.0,1.3741,1.4007,1.43,1.4449,1.4626,1.4789,1.5346,1.5647,1.5719,1.6357,1.7065,1.7838,1.827,1.9192,2.0548,2.0604,2.1085,2.1808,2.1535,2.1631,2.1961,2.2209,2.231,2.2327,2.253,2.2994,2.3573,2.3998,2.47,2.5559,0.0,0.0,0.0,0.0,0.0,0.5763,0.6133,0.6191,0.6191,0.0,0.0,0.0,0.6238,0.6648,0.679,0.6426,0.6405,0.6024,0.5151,0.5108,0.5104,0.5095,0.5066,0.5031,0.5008,0.497,0.4925,0.4896,0.4863,0.5078,0.5565,0.5674,0.6205,0.7036,0.6715,0.6989,0.7731,0.0,0.0,0.0,1.0164,0.0,0.0,1.1336,1.1478,0.0,0.0,0.0,1.1483,1.1167,1.052,0.0,0.0,0.8884,0.8961,0.8252,0.8269,0.0,0.8227,0.0,0.0,0.0,0.0,0.0,0.0,0.0,0.0,0.0,0.0,0.0,0.0,0.0,0.0,0.0,0.0,0.0,0.0,0.0,0.0,0.0,0.0,0.0,0.0,0.0,0.0,1.3323,1.3472,1.3741,1.4105,1.4235,1.43,1.43,1.4626,1.4938,1.5216,1.5548,1.6291,1.7352,1.7815,1.865,1.9777,2.0234,2.0665,2.1142,2.1101,2.1276,2.1601,2.1797,2.2049,2.2282,2.2152,2.2433,2.2987,2.3291,2.3811,2.4435,0.0,0.0,0.5459,0.6244,0.6473,0.6805,0.7574,0.7695,0.7695,0.0,0.7695,0.7773,0.7969,0.791,0.7539,0.6758,0.6602,0.6169,0.5299,0.5152,0.5104,0.5096,0.5037,0.5004,0.5004,0.5003,0.4959,0.4894,0.489,0.4867,0.4798,0.4868,0.5347,0.6119,0.5349,0.5952,0.7566,0.0,0.0,0.8819,1.0086,1.0585,0.0,0.0,1.1754,0.0,1.2487,1.2506,1.1876,1.1462,1.0622,0.0,0.0,0.9205,0.8899,0.8492,0.8479,0.0,0.8274,0.8121,0.0,0.0,0.0,0.0,0.6384,0.6359,0.0,0.0,0.0,0.0,0.0,0.0,0.0,0.0,0.0,0.0,0.0,0.0,0.0,0.0,0.0,0.0,0.0,1.2638,1.2815,1.3072,1.3176,1.3404,1.3874,1.4138,1.43,1.43,1.43,1.4558,1.5108,1.5121,1.5657,1.6797,1.7831,1.8373,1.8567,1.9859,2.0369,2.0212,2.0543,2.0877,2.1166,2.1182,2.1601,2.2152,2.1857,2.1915,2.2264,2.2979,2.3199,2.3346,0.0,0.5535,0.6053,0.6277,0.6891,0.7449,0.7657,0.7702,0.7703,0.7695,0.7695,0.8242,0.9648,0.916,0.8672,0.8516,0.7852,0.707,0.6209,0.5486,0.5108,0.5106,0.5082,0.5077,0.5087,0.5021,0.4973,0.4894,0.4896,0.4875,0.481,0.4875,0.4996,0.5163,0.5053,0.5624,0.6698,0.0,0.0,0.8299,0.9877,0.0,1.1197,1.1662,1.1942,1.2102,1.2069,1.183,1.144,0.0,1.0853,1.0722,0.0,0.0,0.0,0.8596,0.0,0.9619,0.8924,0.91,0.93,0.8553,0.0,0.0,0.0,0.666,0.0,0.0,0.0,0.0,0.0,0.0,0.0,0.0,0.0,0.0,0.0,0.0,0.0,0.0,0.0,0.0,0.0,1.2305,1.2815,1.3072,1.3506,1.3788,1.3874,1.4138,1.43,1.43,1.43,1.4354,1.4463,1.4477,1.4829,1.5548,1.6268,1.7273,1.8592,1.8821,1.9349,2.0097,1.9972,2.012,2.0413,2.0478,2.0893,2.1493,2.1432,2.1432,2.154,2.1947,2.2132,2.2262,0.0,0.5982,0.6861,0.6887,0.7649,0.8392,0.8831,0.8927,0.8947,0.8957,0.898,0.9336,1.0195,0.9902,0.9473,0.9043,0.8594,0.7793,0.6484,0.5992,0.5551,0.5127,0.5096,0.5106,0.5101,0.5066,0.5017,0.4944,0.4906,0.4875,0.4849,0.4886,0.513,0.5559,0.5617,0.6154,0.7063,0.0,0.8248,0.831,1.005,0.0,1.074,1.1476,1.1818,1.187,1.1673,1.146,1.1201,1.0869,1.0842,0.0,0.0,0.9933,1.0028,0.0,0.9003,0.9409,0.9011,0.9145,0.9314,0.8986,0.0,0.0,0.0,0.0,0.6637,0.0,0.0,0.0,0.0,0.0,0.0,0.0,0.0,0.0,0.0,0.0,0.0,0.0,0.0,0.0,0.0,1.1785,1.2466,1.2873,1.3267,1.3573,1.3695,1.3908,1.4138,1.43,1.4268,1.4268,1.43,1.43,1.4585,1.5216,1.5494,1.6414,1.7796,1.7974,1.8503,1.9319,1.9382,1.9493,1.966,1.9889,2.0204,2.0548,2.0926,2.115,2.1339,2.1493,2.1554,2.165,0.0,0.6267,0.7475,0.7482,0.838,0.9321,0.999,1.0133,1.0177,1.0199,1.0247,1.0271,1.0273,1.0293,1.0078,0.9551,0.9199,0.8477,0.0,0.0,0.6327,0.5636,0.5448,0.5356,0.5346,0.518,0.5068,0.501,0.4941,0.4906,0.4899,0.4907,0.5379,0.6218,0.6264,0.0,0.0,0.0,0.0,0.8733,0.0,1.0525,1.0042,1.1152,1.1445,1.1249,1.1185,1.1057,1.0908,1.0778,0.0,1.0731,1.0226,1.02,0.0,0.0,0.0,0.0,0.0,0.0,0.0,0.0,0.0,0.8374,0.0,0.0,0.0,0.6885,0.0,0.0,0.0,0.0,0.0,0.0,0.0,0.0,0.0,0.0,0.0,0.0,0.0,0.0,0.0,1.1097,1.1796,1.236,1.255,1.281,1.3246,1.3539,1.3822,1.4189,1.4235,1.4268,1.43,1.43,1.4531,1.5053,1.5162,1.5698,1.6647,1.7241,1.7754,1.8229,1.8779,1.8988,1.9026,1.942,1.9566,1.9639,2.041,2.0877,2.1119,2.1182,2.1214,2.1214,0.4966,0.6163,0.7346,0.7408,0.8726,0.9862,1.0061,1.0055,1.006,1.017,1.0211,1.0217,0.0,0.0,0.0,0.0,0.0,0.0,0.9824,0.0,0.75,0.7402,0.666,0.6244,0.6252,0.5501,0.5066,0.5005,0.4989,0.4964,0.4899,0.4906,0.5398,0.6279,0.6236,0.0,0.0,0.0,0.9175,0.0,1.0438,1.0299,0.0,1.0515,1.0801,1.0737,1.045,1.0335,1.0322,0.0,1.0833,1.1183,0.0,1.0958,0.0,0.0,0.0,0.0,0.0,0.0,0.0,0.0,0.9588,0.0,0.0,0.0,0.7162,0.6661,0.0,0.0,0.0,0.0,0.0,0.0,0.0,0.0,0.0,0.0,0.0,0.0,0.0,0.0,0.0,0.0,1.0702,1.1231,1.1092,1.1407,1.2384,1.2914,1.3417,1.3927,1.417,1.43,1.43,1.43,1.4327,1.4409,1.4924,1.525,1.5461,1.6572,1.7104,1.7238,1.8159,1.8592,1.8592,1.9011,1.9176,1.925,2.0045,2.0373,2.046,2.0761,2.086,2.0909,0.4898,0.6474,0.7799,0.7366,0.8674,0.9813,0.9908,1.0326,1.0505,1.0129,1.0492,0.0,0.0,0.0,0.0,0.0,0.0,1.0147,0.0,0.0,0.8184,0.7715,0.7344,0.6913,0.6419,0.6038,0.5594,0.505,0.5017,0.4984,0.4968,0.4965,0.5692,0.6996,0.7015,0.0,0.9602,0.0,0.0,0.0,0.0,0.0,0.0,1.0584,1.0848,1.0652,1.0132,0.997,0.9919,0.0,1.0041,0.0,0.0,0.0,0.0,0.0,0.0,0.0,0.0,0.0,0.0,0.0,0.0,0.0,0.0,0.0,0.7129,0.0,0.0,0.0,0.0,0.0,0.0,0.0,0.0,0.0,0.0,0.0,0.0,0.0,0.0,0.0,0.0,0.0,0.0,0.0,0.0,1.0883,1.179,1.2455,1.3004,1.3412,1.3859,1.4176,1.43,1.4268,1.4268,1.43,1.4558,1.4843,1.5244,1.6091,1.6674,1.7027,1.7809,1.8135,1.8175,1.8592,1.8745,1.8822,1.9384,1.9762,2.001,2.0357,2.0509,2.0527,0.5123,0.0,0.0,0.0,0.8649,0.9691,0.9761,1.0332,1.0583,1.0049,0.0,0.0,1.1376,1.1435,0.0,0.0,0.0,1.1192,0.0,0.0,0.9216,0.839,0.8163,0.0,0.0,0.6872,0.6337,0.5464,0.5399,0.5364,0.5359,0.5335,0.6125,0.7528,0.7785,0.8595,0.9779,0.0,0.0,1.0185,1.0266,1.0031,0.971,1.0563,1.0721,1.0411,0.9906,0.9712,0.9584,0.8969,0.9417,0.0,0.9857,0.0,0.0,0.0,0.0,0.0,1.0684,0.0,0.0,0.0,0.0,0.0,0.0,0.0,0.0,0.0,0.0,0.0,0.0,0.0,0.0,0.0,0.0,0.0,0.0,0.0,0.0,0.0,0.0,0.0,0.0,0.0,0.0,0.0,0.0,0.0,1.0887,1.1668,1.2358,1.2966,1.3642,1.4078,1.4268,1.4235,1.4203,1.417,1.417,1.4432,1.4863,1.547,1.6113,1.6797,1.738,1.7733,1.7922,1.8214,1.8319,1.8358,1.8784,1.9124,1.942,1.994,2.0131,2.015,0.5773,0.6821,0.0,0.0,0.0,0.9625,0.9705,0.9844,0.9935,0.0,0.0,0.0,0.0,0.0,0.0,0.0,0.0,1.2466,1.2482,0.0,1.0921,0.0,0.0,0.8906,0.0,0.8066,0.7227,0.6367,0.6361,0.6328,0.6256,0.6196,0.6677,0.7627,0.8339,0.8723,0.8937,1.0512,1.1051,1.0911,1.1221,1.0769,0.9931,0.0,1.0162,0.9893,0.9688,0.0,0.0,0.9218,0.9351,0.0,0.0,0.0,0.0,0.0,0.0,0.0,0.0,0.0,0.0,0.9002,0.0,0.0,0.0,0.0,0.8152,0.0,0.0,0.0,0.0,0.0,0.0,0.735,0.0,0.0,0.0,0.0,0.0,0.0,0.0,0.0,0.0,0.0,0.0,0.0,0.0,0.0,0.9487,1.0319,1.1362,1.2672,1.3474,1.4007,1.4203,1.4268,1.4138,1.3821,1.3888,1.3921,1.396,1.4576,1.5301,1.6172,1.6769,1.7353,1.7882,1.7922,1.7922,1.7963,1.8358,1.8539,1.8616,1.942,1.9726,1.9747,0.0,0.0,0.0,0.0,0.0,0.8908,0.9242,0.9939,0.0,0.0,0.0,0.0,0.0,0.0,1.2382,0.0,0.0,1.2559,1.2225,1.1528,0.0,0.0,0.0,0.9719,0.0,0.0,0.8125,0.7266,0.7265,0.7242,0.7232,0.721,0.7596,0.8333,0.8457,0.8706,0.0,0.0,0.0,0.0,0.0,1.0081,0.9995,0.0,0.0,0.9581,0.9212,0.8915,0.0,0.8578,0.8701,0.8943,0.9123,0.9389,0.965,0.9741,0.9766,0.0,0.0,0.0,1.0684,0.9641,0.0,0.0,0.0,0.0,0.0,0.0,0.0,0.0,0.0,0.0,0.8098,0.7533,0.7425,0.0,0.0,0.0,0.0,0.0,0.0,0.0,0.0,0.0,0.0,0.0,0.7852,0.0,0.0,1.0125,1.1159,1.2131,1.2912,1.3621,1.4254,1.4235,1.4026,1.3661,1.3841,1.3741,1.3459,1.421,1.501,1.5861,1.6487,1.7168,1.7882,1.7882,1.7882,1.7922,1.8029,1.8095,1.8214,1.9011,1.931,1.9325,0.7203,0.0,0.0,0.0,0.0,0.0,0.0,0.0,0.0,0.0,1.0539,0.0,1.1738,0.0,1.2572,0.0,1.317,1.2842,1.2128,1.1888,0.0,1.1687,1.1169,0.0,0.0,0.0,0.9216,0.8063,0.8124,0.8144,0.8123,0.8128,0.8292,0.8589,0.0,0.8646,0.8594,0.0,0.9812,0.0,0.0,0.944,0.0,0.0,0.9518,0.9292,0.0,0.84,0.8202,0.7956,0.7982,0.8129,0.8305,0.864,0.9008,0.9301,0.9431,0.9619,1.0219,1.0545,0.0,0.9431,0.9029,0.0,0.7325,0.0,0.0,0.0,0.0,0.0,0.0,0.0,0.0,0.7967,0.7616,0.0,0.0,0.0,0.0,0.0,0.0,0.0,0.0,0.0,0.7199,0.7578,0.0,0.0,0.0,0.0,1.0812,1.1746,1.2414,1.3155,1.3947,1.396,1.3749,1.3344,1.3459,1.3344,1.3069,1.3607,1.429,1.5149,1.5812,1.6599,1.745,1.7653,1.7788,1.7882,1.7882,1.7882,1.8003,1.863,1.8988,1.9101,0.0,0.0,0.0,0.0,0.7916,0.0,0.0,0.0,0.9058,0.0,0.9795,1.0559,1.1085,1.1693,1.251,1.3623,1.3758,0.0,1.2355,1.2868,0.0,0.0,1.1715,1.1708,1.0934,0.0,0.0,0.0,0.8979,0.9023,0.8957,0.8945,0.8773,0.0,0.9021,0.0,0.7418,0.957,0.9873,0.8945,0.9218,0.8962,0.841,0.8354,0.864,0.8935,0.8238,0.7964,0.7878,0.7443,0.7246,0.7255,0.7647,0.7783,0.794,0.8735,0.9024,0.9161,0.9496,0.9578,0.9375,0.8457,0.0,0.0,0.0,0.0,0.8738,0.0,0.0,0.0,0.0,0.0,0.0,0.8646,0.7876,0.0,0.0,0.0,0.0,0.0,0.0,0.0,0.0,0.0,0.6532,0.6702,0.7162,0.0,0.0,0.0,1.0274,1.1452,1.1989,1.2617,1.3391,1.3459,1.331,1.2896,1.2838,1.2803,1.2768,1.2803,1.3261,1.4145,1.4865,1.5711,1.6625,1.7155,1.757,1.7842,1.7882,1.7882,1.7963,1.8319,1.8707,1.9026,0.6638,0.7109,0.734,0.0,0.725,0.7747,0.0,0.0,0.0,0.0,0.949,0.9987,1.0276,1.0973,1.1732,1.247,1.2992,0.0,0.0,0.0,0.0,1.3129,1.2426,1.2154,1.2439,1.1569,0.0,1.0483,0.0,0.0,0.9721,0.9709,0.9422,0.0,0.0,0.0,0.708,0.8304,0.8895,0.902,0.8664,0.8507,0.0,0.0,0.7715,0.7974,0.7772,0.7549,0.7324,0.7255,0.7068,0.6957,0.7255,0.7558,0.7901,0.8405,0.8564,0.8737,0.9467,0.9443,0.9173,0.8988,0.8621,0.8187,0.0,0.0,0.0,0.0,0.0,0.0,0.0,0.0,0.0,0.0,0.0,0.0,0.0,0.0,0.0,0.0,0.0,0.0,0.0,0.0,0.725,0.6812,0.0,0.0,0.0,0.0,0.0,1.144,1.1627,1.226,1.3446,1.348,1.3276,1.2838,1.2955,1.285,1.252,1.2662,1.3202,1.4074,1.4664,1.5427,1.6269,1.6811,1.7086,1.717,1.7447,1.7666,1.7922,1.8029,1.8109,1.8228,0.6607,0.0,0.0,0.6796,0.0,0.0,0.7549,0.0,0.0,0.8162,0.8787,0.0,0.8983,0.9814,1.0708,1.144,1.217,0.0,0.0,0.0,0.0,1.3462,1.307,1.2847,1.2875,1.1915,0.0,1.0929,0.0,0.0,0.9772,0.9631,0.0,0.0,0.0,0.7662,0.0,0.7138,0.7757,0.8436,0.7694,0.0,0.0,0.6987,0.7102,0.7501,0.7315,0.7222,0.716,0.7066,0.7011,0.7073,0.7373,0.7628,0.7908,0.8502,0.8658,0.8784,0.9263,0.923,0.9009,0.8884,0.8604,0.8256,0.7936,0.8157,0.8291,0.0,0.0,0.0,0.0,0.0,0.0,0.0,0.0,0.0,0.0,0.0,0.0,0.0,0.0,0.0,0.0,0.0,0.0,0.0,0.0,0.0,0.0,0.0,0.0,1.0927,1.1197,1.19,1.3138,1.3151,1.3012,1.2768,1.278,1.2662,1.2413,1.252,1.283,1.3338,1.4221,1.4935,1.5604,1.6321,1.6735,1.6918,1.7115,1.7295,1.7461,1.7461,1.7638,1.7882,0.0,0.0,0.0,0.0,0.0,0.0,0.0,0.7518,0.0,0.7199,0.0,0.8197,0.7607,0.8543,0.9586,1.0491,0.0,1.2091,1.2374,1.3309,1.3561,1.2921,1.345,1.3417,1.2721,1.2095,0.0,0.0,0.0,0.0,0.9421,0.9065,0.0,0.0,0.0,0.0,0.0,0.6136,0.6623,0.0,0.6768,0.6425,0.6411,0.6411,0.6795,0.7307,0.6972,0.7073,0.7323,0.6972,0.7062,0.7336,0.7629,0.7769,0.7942,0.871,0.8919,0.8923,0.9001,0.8975,0.8814,0.8496,0.8414,0.8295,0.7817,0.8027,0.8206,0.7772,0.8503,0.9265,0.0,0.0,0.0,0.0,0.0,0.0,0.0,0.0,0.0,0.0,0.0,0.0,0.0,0.0,0.0,0.0,0.0,0.0,0.0,0.0,0.0,1.0201,1.0786,1.1568,1.2601,0.0,1.2709,1.2709,1.252,1.2449,1.2449,1.2449,1.2449,1.2508,1.3754,1.4447,1.4809,1.5835,1.6466,1.6833,1.6791,1.6791,1.6876,1.6833,1.7212,1.776,0.0,0.0,0.0,0.0,0.0,0.7055,0.6765,0.7145,0.7305,0.6839,0.7138,0.7307,0.7214,0.7771,0.8638,0.9848,1.112,0.0,0.0,0.0,0.0,1.284,1.2922,1.2938,1.2788,1.1974,1.1417,0.0,0.0,0.0,0.9082,0.8576,0.0,0.0,0.0,0.0,0.6218,0.5804,0.0,0.7039,0.6812,0.683,0.6951,0.6951,0.7025,0.715,0.7123,0.7406,0.7722,0.7362,0.7253,0.7301,0.7372,0.7581,0.7905,0.8425,0.8548,0.8577,0.8918,0.8781,0.8496,0.8414,0.8414,0.8382,0.8295,0.8319,0.8343,0.8287,0.8422,0.8672,0.9019,0.0,0.0,0.0,0.0,0.0,0.0,0.0,0.0,0.0,0.0,0.0,0.0,0.0,0.0,0.0,0.0,0.0,0.0,0.0,0.0,0.0,1.0641,0.0,0.0,0.0,1.2709,1.2709,1.2662,1.2639,1.2639,1.2639,1.2639,1.2698,1.3831,1.4329,1.4453,1.5477,1.6076,1.6367,1.6088,1.6362,1.6876,1.6552,1.668,1.7086,0.0,0.0,0.0,0.0,0.0,0.0,0.0,0.6373,0.0,0.6275,0.6163,0.6131,0.6194,0.6745,0.762,0.896,1.0095,1.1105,1.1929,1.2512,1.2787,1.2741,1.2957,0.0,1.2787,1.2037,1.1395,1.0848,0.0,0.0,0.8163,0.7687,0.0,0.6806,0.0,0.6192,0.0,0.0,0.0,0.6674,0.6535,0.6557,0.6622,0.6622,0.6834,0.7093,0.7032,0.7326,0.7787,0.7597,0.7698,0.7857,0.7857,0.7976,0.8151,0.8396,0.8439,0.8455,0.8618,0.8537,0.8414,0.8414,0.8414,0.8414,0.8414,0.8414,0.8414,0.8414,0.8578,0.8896,0.943,0.9185,0.0,0.0,0.0,0.0,0.0,0.0,0.0,0.0,0.0,0.0,0.0,0.0,0.0,0.0,0.0,0.0,0.0,0.0,0.0,0.0,0.0,0.0,0.0,0.0,0.0,1.2377,1.2186,1.2186,1.2377,1.2377,1.2377,1.246,1.3742,1.4289,1.4373,1.5404,1.5913,1.6032,1.5881,1.6013,1.6318,1.612,1.6175,1.6392,0.0,0.6109,0.0,0.0,0.5729,0.0,0.5539,0.5408,0.5401,0.5596,0.5353,0.5179,0.5293,0.5726,0.6596,0.798,0.8926,0.9917,1.1161,1.1645,1.2004,1.2374,1.2682,1.2755,1.2577,1.1917,1.1186,0.0,0.0,0.0,0.0,0.6855,0.0,0.0,0.0,0.0,0.0,0.0,0.5945,0.6377,0.6189,0.6173,0.6225,0.6339,0.6642,0.7046,0.694,0.7208,0.7604,0.7676,0.7975,0.8291,0.8291,0.8332,0.8414,0.8414,0.8414,0.8414,0.8414,0.8414,0.8414,0.8414,0.8414,0.8414,0.8414,0.8414,0.8414,0.8414,0.8741,0.9164,0.9651,0.9465,0.0,0.0,0.0,0.0,0.0,0.0,0.0,0.0,0.0,0.0,0.0,0.0,0.0,0.0,0.0,0.0,0.6721,0.7106,0.0,0.0,0.0,1.0419,1.0953,0.0,1.1968,1.1968,1.1664,1.1664,1.1968,1.1968,1.2029,1.2171,1.3587,1.4329,1.4687,1.5488,1.5792,1.5792,1.5792,1.5792,1.5792,1.5792,1.5792,1.5881,0.0,0.0,0.0,0.0,0.0,0.0,0.0,0.4452,0.4295,0.4966,0.5042,0.5042,0.5047,0.5104,0.5657,0.7018,0.7767,0.86,0.9627,1.036,1.0935,1.1323,1.137,1.1505,1.1812,1.1071,1.0586,0.0,0.0,0.7682,0.0,0.6391,0.0,0.0,0.0,0.0,0.0,0.5387,0.5497,0.6036,0.5976,0.6054,0.6235,0.6732,0.6926,0.6959,0.7085,0.7189,0.7245,0.7384,0.7682,0.7961,0.7961,0.8167,0.8414,0.8414,0.8414,0.8414,0.8414,0.8414,0.8414,0.8414,0.8414,0.8414,0.8414,0.8414,0.8414,0.8414,0.8741,0.8975,0.8918,0.8961,0.8963,0.0,0.0,0.0,0.0,0.0,0.0,0.0,0.0,0.0,0.0,0.0,0.0,0.0,0.0,0.0,0.7389,0.7465,0.7688,0.8127,0.0,0.9772,0.9845,1.0976,1.1553,1.1553,1.1516,1.1516,1.1553,1.1553,1.1774,1.2159,1.3263,1.4488,1.5648,1.5756,1.5792,1.5792,1.5792,1.5792,1.5792,1.5792,1.5792,1.5792,0.0,0.0,0.0,0.0,0.0,0.0,0.0,0.388,0.3968,0.418,0.4268,0.4491,0.484,0.4884,0.5346,0.6476,0.7086,0.7754,0.8604,0.9221,0.9797,1.0379,1.0661,1.0945,1.1331,1.095,1.0433,0.0,0.0,0.7763,0.6946,0.6282,0.0,0.0,0.0,0.5777,0.612,0.5799,0.5927,0.6408,0.6529,0.6588,0.6653,0.6865,0.6823,0.6653,0.6738,0.6745,0.6708,0.6793,0.7286,0.7919,0.7919,0.8126,0.8414,0.8414,0.8414,0.8414,0.8414,0.8414,0.8414,0.8414,0.8414,0.8414,0.8414,0.8414,0.8414,0.8414,0.8537,0.8691,0.8889,0.8949,0.9039,0.0,0.0,0.0,0.0,0.0,0.0,0.0,0.0,0.0,0.0,0.0,0.0,0.0,0.0,0.0,0.0,0.0,0.0,0.7315,0.0,0.9379,0.9156,1.0478,1.1142,1.1142,1.0916,1.0926,1.1142,1.1142,1.1834,1.3073,1.3529,1.4505,1.5792,1.5792,1.5792,1.5792,1.5792,1.5792,1.5792,1.5792,1.5792,1.5792,0.2846,0.0,0.246,0.0,0.2708,0.2939,0.2805,0.3057,0.3255,0.3164,0.3344,0.3744,0.4403,0.4495,0.4879,0.5711,0.6143,0.6687,0.7466,0.7975,0.8594,0.9345,0.9904,0.0,1.0734,1.0651,1.0267,0.955,0.8659,0.0,0.6804,0.0,0.0,0.0,0.5438,0.5618,0.6106,0.571,0.5751,0.6078,0.6223,0.6343,0.6398,0.6568,0.6568,0.6477,0.6477,0.6526,0.6575,0.6538,0.7167,0.7878,0.7795,0.8044,0.8414,0.8414,0.8414,0.8414,0.8414,0.8414,0.8414,0.8414,0.8414,0.8414,0.8414,0.8414,0.8414,0.8414,0.8414,0.8496,0.8773,0.8832,0.8871,0.8998,0.0,0.0,0.0,0.0,0.0,0.0,0.0,0.708,0.0,0.0,0.0,0.0,0.0,0.0,0.0,0.0,0.0,0.0,0.0,0.0,0.0,1.0123,1.0736,1.0736,1.0438,1.0428,1.0736,1.0974,1.1887,1.3283,1.3565,1.4293,1.5379,1.5513,1.5614,1.5614,1.5614,1.5659,1.5792,1.5558,1.5603,1.5703,0.1807,0.1805,0.1805,0.1807,0.1799,0.18,0.1802,0.1833,0.183,0.183,0.2235,0.2815,0.3609,0.3836,0.4096,0.457,0.4753,0.5183,0.6058,0.6693,0.7356,0.0,0.0,0.9619,0.9914,0.9898,0.9898,0.9888,0.0,0.0,0.7358,0.0,0.53,0.5753,0.498,0.5024,0.5665,0.4853,0.4563,0.4613,0.4618,0.4836,0.5183,0.5782,0.6215,0.6477,0.6477,0.6732,0.6979,0.6914,0.7328,0.7829,0.7503,0.787,0.8414,0.8414,0.8414,0.8414,0.8414,0.8414,0.8414,0.8414,0.8414,0.8414,0.8414,0.8414,0.8414,0.8414,0.8414,0.8414,0.8414,0.8414,0.822,0.7694,0.0,0.0,0.0,0.0,0.0,0.0,0.7782,0.7435,0.6498,0.0,0.0,0.0,0.0,0.0,0.0,0.0,0.0,0.8452,0.8622,0.0,0.9288,0.9965,1.0322,1.0322,1.0283,1.0283,1.0332,1.1145,1.1778,1.2372,1.3216,1.3869,1.4351,1.4869,1.5108,1.5108,1.5108,1.5379,1.5703,1.4983,1.504,1.5468,0.0403,0.0352,0.0352,0.0352,0.0698,0.0989,0.0989,0.1271,0.1454,0.1404,0.155,0.1939,0.2665,0.3327,0.3796,0.0,0.4447,0.4787,0.0,0.5556,0.6228,0.7099,0.7439,0.8016,0.8924,0.8734,0.8596,0.852,0.0,0.0,0.0,0.5873,0.5563,0.5192,0.5113,0.5189,0.5424,0.5237,0.543,0.5826,0.5934,0.6236,0.662,0.6806,0.6945,0.6991,0.6991,0.7037,0.7176,0.7406,0.7818,0.8182,0.8348,0.8402,0.8414,0.8414,0.8414,0.8414,0.8414,0.8414,0.8414,0.8414,0.8332,0.8299,0.8373,0.8414,0.8373,0.8299,0.8332,0.8414,0.8414,0.8846,0.8979,0.8217,0.8651,0.0,0.0,0.0,0.0,0.0,0.0,0.7464,0.0,0.712,0.0,0.0,0.0,0.0,0.0,0.0,0.0,0.0,0.877,0.0,0.9106,0.9891,1.0283,1.0283,1.0283,1.0283,1.0332,1.0834,1.1551,1.2329,1.2918,1.3608,1.4294,1.449,1.4536,1.4536,1.4536,1.4628,1.4766,1.4525,1.4536,1.472,-0.0525,-0.0578,-0.0473,-0.0368,0.0,0.0206,0.0206,0.0457,0.0654,0.0603,0.0804,0.1157,0.1763,0.2507,0.0,0.3659,0.407,0.4256,0.4243,0.4674,0.5242,0.5892,0.619,0.6768,0.761,0.0,0.0,0.7732,0.7299,0.6507,0.5404,0.5433,0.5266,0.5024,0.4891,0.4898,0.5066,0.5012,0.5349,0.5835,0.5919,0.6369,0.7014,0.7014,0.7104,0.72,0.72,0.7296,0.7433,0.7868,0.82,0.8569,0.8982,0.8925,0.8731,0.8611,0.8572,0.8548,0.8372,0.8373,0.8373,0.8332,0.8258,0.8216,0.8242,0.8118,0.8044,0.8118,0.8201,0.8242,0.8332,0.8675,0.885,0.837,0.8668,0.8757,0.8263,0.0,0.0,0.0,0.0,0.0,0.0,0.7449,0.0,0.0,0.0,0.0,0.0,0.0,0.0,0.8008,0.9028,0.0,0.9482,1.002,1.0283,1.0283,1.0283,1.0371,1.0537,1.0957,1.1558,1.2304,1.2772,1.3268,1.38,1.3978,1.4025,1.4025,1.4025,1.4165,1.4258,1.3967,1.4014,1.4212,-0.1009,-0.0953,0.0,0.0,-0.0437,0.0,-0.0427,-0.0416,-0.0356,-0.0406,0.0,0.0457,0.1016,0.1471,0.2146,0.322,0.0,0.0,0.0,0.399,0.4357,0.4548,0.5257,0.581,0.6094,0.678,0.7197,0.7339,0.6706,0.595,0.5013,0.4529,0.4578,0.5069,0.4373,0.4271,0.4606,0.4381,0.4485,0.4927,0.494,0.5583,0.652,0.652,0.6818,0.7255,0.7255,0.7448,0.7778,0.8167,0.8547,0.8877,0.9283,0.9469,0.9398,0.904,0.8921,0.879,0.8333,0.8307,0.8332,0.8209,0.8175,0.8126,0.8021,0.7697,0.7496,0.7897,0.7979,0.8028,0.8167,0.8118,0.8111,0.8264,0.8149,0.8094,0.8165,0.0,0.0,0.0,0.0,0.0,0.0,0.7893,0.8042,0.0,0.0,0.0,0.0,0.0,0.8189,0.9014,0.9417,0.9873,1.0312,1.0283,1.0283,1.0283,1.0312,1.0537,1.0928,1.1387,1.1836,1.2209,1.2695,1.2881,1.2929,1.3382,1.3573,1.3573,1.3573,1.3847,1.4118,1.3457,1.3505,1.3884,0.0,0.0,-0.1567,-0.1455,-0.1113,-0.0776,-0.0776,-0.033,-0.0055,-0.0383,-0.0219,0.0164,0.0873,0.1037,0.1561,0.26,0.2852,0.2961,0.2936,0.303,0.3366,0.3948,0.4193,0.4574,0.5254,0.5443,0.5576,0.5582,0.5443,0.5048,0.4486,0.4341,0.417,0.3968,0.4259,0.4228,0.4069,0.4547,0.4853,0.5062,0.5153,0.5903,0.697,0.697,0.7285,0.7715,0.7715,0.7762,0.7918,0.8378,0.8789,0.9198,0.9589,0.995,1.0089,0.9461,0.9043,0.8727,0.8606,0.8346,0.807,0.807,0.7829,0.7628,0.7746,0.7587,0.7496,0.787,0.7946,0.8021,0.8028,0.8308,0.8436,0.8202,0.8357,0.8451,0.8146,0.8121,0.0,0.0,0.8409,0.8501,0.8683,0.8561,0.8379,0.0,0.0,0.0,0.0,0.8731,0.9094,0.9463,0.9902,1.0176,1.0283,1.0283,1.0283,1.0283,1.0605,1.0811,1.0937,1.1719,1.2129,1.2209,1.2695,1.2881,1.2929,1.3017,1.3065,1.3065,1.3065,1.3104,1.32,1.3065,1.3065,1.32,-0.2015,-0.1959,-0.1958,-0.1846,-0.1512,-0.1288,-0.1288,-0.0952,-0.0672,-0.0617,-0.0505,-0.0112,0.0784,0.0952,0.1334,0.2131,0.2519,0.2683,0.2639,0.2583,0.2838,0.3294,0.3388,0.3686,0.426,0.4542,0.4697,0.4697,0.4697,0.4454,0.3969,0.3969,0.3855,0.3715,0.4015,0.4052,0.3912,0.4307,0.4713,0.5034,0.5128,0.5932,0.7025,0.7085,0.7413,0.7901,0.7901,0.7901,0.7955,0.8421,0.8732,0.9047,0.9607,0.9976,1.012,0.9945,0.9534,0.909,0.8889,0.8668,0.8361,0.7946,0.7249,0.6725,0.6985,0.6979,0.7021,0.7405,0.7697,0.7863,0.7946,0.798,0.8014,0.8034,0.8032,0.8029,0.8018,0.8168,0.0,0.8571,0.875,0.897,0.9197,0.9144,0.9001,0.8793,0.8931,0.0,0.8945,0.9461,0.9708,0.9592,1.0059,1.0283,1.0283,1.0283,1.0381,1.0576,1.0801,1.1123,1.1533,1.1966,1.2334,1.2539,1.2783,1.2881,1.2881,1.2881,1.2881,1.2832,1.2881,1.2881,1.2832,1.2881,1.2881,1.2929,-0.2406,-0.2296,-0.224,-0.2015,-0.1846,-0.179,-0.179,-0.1623,-0.1344,-0.0897,-0.0617,-0.0168,0.0785,0.101,0.1234,0.1741,0.2244,0.2493,0.2418,0.2414,0.2468,0.263,0.2808,0.301,0.3268,0.3836,0.4131,0.4181,0.4181,0.3982,0.3586,0.3586,0.3643,0.3797,0.3794,0.386,0.3965,0.3965,0.4294,0.4791,0.4893,0.5655,0.6696,0.6864,0.73,0.7848,0.7901,0.7901,0.7955,0.8421,0.8626,0.883,0.9555,0.9873,0.9976,1.036,1.0147,0.9637,0.9204,0.898,0.8621,0.7843,0.6743,0.5918,0.6215,0.6246,0.638,0.6894,0.7321,0.767,0.7836,0.7525,0.744,0.7883,0.7577,0.7425,0.7764,0.0,0.8415,0.8501,0.8828,0.9096,0.9155,0.9463,0.9502,0.9095,0.973,0.9935,0.9524,0.9964,0.9993,0.9626,1.005,1.0283,1.0283,1.0283,1.0488,1.0908,1.0977,1.1436,1.218,1.2248,1.2529,1.2881,1.2881,1.2881,1.2881,1.2881,1.2832,1.2735,1.2881,1.2832,1.2725,1.2832,1.2881,1.2832,-0.2963,-0.2856,-0.2802,-0.2747,-0.224,-0.179,-0.179,-0.084,-0.0224,-0.0449,0.0056,0.0561,0.0729,0.0842,0.1122,0.1572,0.1797,0.1905,0.1895,0.1893,0.2004,0.2279,0.2321,0.2485,0.2779,0.3147,0.3413,0.3692,0.3692,0.3692,0.3583,0.3583,0.3591,0.3611,0.3767,0.3831,0.3852,0.3965,0.4076,0.4132,0.4187,0.4846,0.5837,0.6095,0.6745,0.7574,0.7794,0.7901,0.7955,0.8421,0.8837,0.9204,0.9666,1.0087,1.0411,1.047,1.0218,0.9898,0.957,0.8772,0.7916,0.7625,0.6756,0.604,0.6257,0.6039,0.6039,0.6852,0.7063,0.7238,0.767,0.7675,0.7674,0.7818,0.7764,0.7646,0.7423,0.0,0.793,0.8017,0.8325,0.8665,0.9007,0.9093,0.9076,0.9015,0.9138,0.9176,0.9112,0.9482,0.967,0.9614,1.004,1.0283,1.0283,1.0283,1.0488,1.0918,1.1279,1.1728,1.219,1.2617,1.2812,1.2881,1.2881,1.2881,1.2881,1.2881,1.2881,1.2881,1.2881,1.2832,1.2676,1.2725,1.2676,1.2578,-0.3074,-0.3021,-0.2968,-0.3023,-0.2685,-0.2462,-0.2408,-0.1849,-0.1288,-0.0728,-0.0336,0.0168,0.0842,0.101,0.1178,0.1403,0.1515,0.1515,0.1515,0.1685,0.1853,0.1964,0.2408,0.3019,0.3633,0.3855,0.4021,0.4193,0.4245,0.4298,0.4298,0.4298,0.4298,0.4298,0.4349,0.4236,0.4015,0.4349,0.4242,0.3858,0.4356,0.4959,0.5504,0.5932,0.6588,0.73,0.7413,0.7467,0.7515,0.7723,0.799,0.8362,0.8764,0.9249,0.9681,0.9621,0.9569,0.9496,0.9241,0.8257,0.7217,0.7146,0.6442,0.5778,0.5771,0.5807,0.5985,0.6538,0.681,0.7154,0.7628,0.7573,0.7512,0.7696,0.7579,0.0,0.0,0.7861,0.814,0.8168,0.8511,0.8779,0.8999,0.9011,0.9015,0.9007,0.9011,0.8985,0.9007,0.9168,0.9279,0.9279,0.9961,1.0283,1.0283,1.0283,1.0615,1.126,1.1508,1.1779,1.2148,1.2385,1.2274,1.1968,1.1968,1.1968,1.1968,1.1968,1.2116,1.2382,1.2431,1.2578,1.2735,1.2783,1.2725,1.2627,-0.3244,-0.3132,-0.313,-0.3188,-0.3074,-0.3021,-0.2916,-0.2802,-0.2296,-0.1229,-0.0783,-0.0168,0.0729,0.1066,0.1234,0.1234,0.129,0.1291,0.1291,0.1515,0.1685,0.1741,0.241,0.3241,0.4128,0.4298,0.4467,0.4691,0.4794,0.4846,0.4897,0.4897,0.4897,0.4897,0.4897,0.4677,0.4398,0.4732,0.4515,0.3968,0.4739,0.5175,0.5445,0.5937,0.6485,0.7031,0.7085,0.7085,0.7139,0.7187,0.7354,0.7622,0.8025,0.8455,0.8837,0.8718,0.8725,0.8725,0.8613,0.7721,0.684,0.6832,0.6238,0.5623,0.541,0.5639,0.6005,0.639,0.6736,0.7128,0.7694,0.7558,0.7395,0.7671,0.0,0.0,0.0,0.7974,0.8229,0.8139,0.8461,0.8692,0.8692,0.8773,0.8814,0.8692,0.8822,0.8814,0.8692,0.8822,0.8895,0.8975,0.9646,1.0,1.0,1.0096,1.0514,1.1246,1.1341,1.1547,1.1868,1.1868,1.1619,1.12,1.12,1.12,1.12,1.115,1.146,1.1927,1.1968,1.2224,1.2627,1.2725,1.2676,1.2578,-0.3583,-0.3471,-0.3357,-0.3357,-0.3244,-0.3077,-0.2916,-0.241,-0.1959,-0.179,-0.0728,0.0,0.0056,0.0673,0.1122,0.1122,0.1234,0.1291,0.1291,0.1347,0.1403,0.1628,0.1797,0.2298,0.3186,0.3186,0.3685,0.4691,0.4691,0.4794,0.4897,0.4897,0.4897,0.4897,0.4897,0.4897,0.4842,0.4897,0.4846,0.4791,0.4901,0.5175,0.5618,0.5891,0.6327,0.6756,0.7031,0.7085,0.7139,0.7509,0.767,0.7771,0.8178,0.833,0.833,0.833,0.7919,0.7503,0.7871,0.7545,0.7057,0.6824,0.6355,0.5835,0.5632,0.5585,0.5916,0.6853,0.6893,0.7039,0.7981,0.7895,0.7662,0.771,0.0,0.0,0.7266,0.7554,0.7647,0.7336,0.7595,0.7795,0.7795,0.8167,0.825,0.7836,0.8209,0.825,0.7836,0.8209,0.8618,0.8984,0.9056,0.9096,0.9096,0.9383,0.9761,1.0228,1.0518,1.0896,1.1259,1.1259,1.125,1.12,1.12,1.12,1.12,1.1082,1.1334,1.1877,1.171,1.1909,1.2323,1.2323,1.2274,1.2126,-0.3744,-0.3635,-0.3527,-0.3527,-0.3471,-0.3357,-0.3249,-0.3023,-0.2629,-0.2014,-0.1511,-0.0896,-0.0112,0.0224,0.0561,0.0954,0.101,0.1066,0.1066,0.1122,0.1457,0.2125,0.2183,0.2794,0.3962,0.3685,0.4073,0.5238,0.5066,0.5171,0.5563,0.5673,0.5732,0.5732,0.5732,0.5563,0.5344,0.5618,0.5395,0.4952,0.5508,0.5677,0.5622,0.6009,0.6228,0.6386,0.65,0.6554,0.6549,0.6712,0.6923,0.7128,0.7283,0.7551,0.7771,0.7605,0.7133,0.6657,0.6815,0.6712,0.6529,0.6445,0.6265,0.6053,0.5845,0.5793,0.5956,0.6493,0.6532,0.6748,0.7775,0.7871,0.7832,0.7965,0.0,0.79,0.7571,0.764,0.7668,0.7543,0.7638,0.7712,0.7712,0.7878,0.7878,0.7712,0.7878,0.7878,0.7719,0.7878,0.8143,0.8477,0.8485,0.8776,0.9308,0.9631,0.9959,1.0283,1.041,1.0524,1.0584,1.0584,1.0431,1.0226,1.0226,1.0226,1.0174,1.0167,1.0635,1.1427,1.1318,1.1769,1.2431,1.2431,1.2323,1.2224,-0.3852,-0.3747,-0.3635,-0.3635,-0.3638,-0.3527,-0.3413,-0.3413,-0.3135,-0.2462,-0.2127,-0.1567,-0.0448,-0.0112,0.0224,0.0842,0.0898,0.0898,0.0898,0.101,0.1456,0.2347,0.2235,0.2736,0.4132,0.3796,0.4181,0.534,0.5281,0.5504,0.595,0.6064,0.6119,0.6119,0.6178,0.6064,0.5791,0.6064,0.5841,0.5344,0.5955,0.6009,0.5841,0.6119,0.6178,0.6178,0.6178,0.6178,0.6178,0.6178,0.6337,0.6544,0.6544,0.682,0.7036,0.6874,0.6549,0.6178,0.6178,0.6178,0.6178,0.6178,0.6178,0.6136,0.6043,0.601,0.6119,0.647,0.6475,0.6717,0.7782,0.7854,0.7923,0.8294,0.8355,0.8238,0.7916,0.7865,0.7829,0.7726,0.7712,0.7712,0.7712,0.7712,0.7712,0.7712,0.7712,0.7763,0.7858,0.7865,0.8019,0.8341,0.8451,0.8815,0.9379,0.963,0.9818,0.9947,1.0067,1.0042,0.9865,0.9865,0.9762,0.951,0.951,0.951,0.951,0.951,1.0035,1.0964,1.0905,1.151,1.2372,1.2372,1.2323,1.2224,-0.4024,-0.391,-0.3796,-0.3796,-0.3691,-0.3583,-0.3413,-0.3413,-0.3357,-0.313,-0.2462,-0.179,-0.1174,-0.0448,0.0224,0.0842,0.0898,0.0898,0.0898,0.0898,0.1289,0.2183,0.1625,0.1962,0.3357,0.3347,0.3729,0.4728,0.5285,0.5677,0.5795,0.595,0.6,0.6,0.6119,0.6178,0.6178,0.6178,0.6178,0.6178,0.6178,0.6178,0.6178,0.6178,0.6178,0.6178,0.6178,0.6178,0.6178,0.6178,0.6178,0.6178,0.6178,0.6178,0.6178,0.6178,0.6178,0.6178,0.6178,0.6178,0.6178,0.6178,0.6178,0.6178,0.6178,0.6178,0.6391,0.6977,0.6844,0.6928,0.8086,0.8048,0.7997,0.8591,0.8692,0.8582,0.8253,0.8209,0.8085,0.7763,0.7719,0.7719,0.7719,0.7712,0.7712,0.7719,0.7719,0.7865,0.8187,0.8209,0.8355,0.8677,0.9007,0.9224,0.9182,0.9182,0.9118,0.8891,0.9263,0.9309,0.9211,0.9211,0.9256,0.9413,0.9413,0.9413,0.9361,0.9263,0.9777,1.06,1.0474,1.1082,1.2076,1.2076,1.2076,1.2076,-0.4138,-0.4024,-0.391,-0.3796,-0.3744,-0.3691,-0.3583,-0.3527,-0.3471,-0.3357,-0.3132,-0.2517,-0.1341,-0.0951,-0.0336,0.0673,0.0842,0.0898,0.0898,0.0898,0.1233,0.1902,0.1457,0.1793,0.3188,0.2903,0.3456,0.4956,0.4952,0.523,0.5677,0.5791,0.5845,0.5845,0.5905,0.5955,0.6059,0.6059,0.6119,0.6178,0.6178,0.6178,0.6178,0.6178,0.6178,0.6178,0.6178,0.6178,0.6178,0.6178,0.6178,0.6178,0.6178,0.6178,0.6178,0.6178,0.6178,0.6178,0.6178,0.6178,0.6178,0.6178,0.6178,0.6178,0.6178,0.6178,0.6228,0.6445,0.6392,0.6663,0.781,0.7951,0.8139,0.8911,0.9029,0.8919,0.859,0.8546,0.8509,0.8407,0.8099,0.7903,0.7903,0.7702,0.7666,0.7889,0.8216,0.8443,0.8538,0.8546,0.8692,0.9021,0.9173,0.9277,0.9482,0.9482,0.938,0.9123,0.9221,0.9211,0.9061,0.9061,0.9106,0.9263,0.9263,0.9263,0.9263,0.9211,0.9517,1.0079,1.0387,1.0956,1.1578,1.1977,1.2076,1.2076,-0.4301,-0.419,-0.4079,-0.3965,-0.3852,-0.3796,-0.3691,-0.3638,-0.3583,-0.3471,-0.3413,-0.2965,-0.1899,-0.1397,-0.0783,0.028,0.0672,0.0898,0.0898,0.0898,0.1065,0.1456,0.1177,0.1513,0.2629,0.2734,0.3287,0.4401,0.4736,0.5124,0.5458,0.5626,0.5736,0.5736,0.5795,0.585,0.5896,0.6005,0.6059,0.6119,0.6178,0.6178,0.6178,0.6178,0.6178,0.6178,0.6178,0.6178,0.6178,0.6178,0.6178,0.6178,0.6178,0.6178,0.6178,0.6178,0.6178,0.6178,0.6178,0.6178,0.6178,0.6178,0.6178,0.6178,0.6178,0.6178,0.6178,0.6178,0.6178,0.6549,0.7711,0.7925,0.8246,0.922,0.9351,0.9241,0.8926,0.8882,0.8831,0.8707,0.8403,0.8182,0.8182,0.7966,0.7937,0.8168,0.8468,0.8689,0.8875,0.8882,0.9021,0.9336,0.9351,0.9431,0.9614,0.9614,0.951,0.9263,0.9211,0.9113,0.9008,0.8962,0.9008,0.9106,0.9106,0.9106,0.9106,0.9106,0.9361,0.9769,1.0079,1.0651,1.1326,1.1678,1.1927,1.2076,-0.4463,-0.4301,-0.4193,-0.4193,-0.3965,-0.3796,-0.3796,-0.3691,-0.3638,-0.3585,-0.3471,-0.3188,-0.2567,-0.1843,-0.1118,-0.0335,0.0448,0.0898,0.0898,0.0898,0.0898,0.0898,0.0898,0.1233,0.1903,0.2621,0.3121,0.3342,0.457,0.5242,0.5301,0.5458,0.5567,0.5567,0.5681,0.574,0.5795,0.5896,0.595,0.6005,0.6119,0.6178,0.6178,0.6178,0.6178,0.6178,0.6178,0.6173,0.6178,0.6178,0.6178,0.6178,0.6178,0.6178,0.6178,0.6178,0.6178,0.6178,0.6178,0.6178,0.6178,0.6178,0.6178,0.6178,0.6178,0.6178,0.6178,0.6178,0.6178,0.6549,0.7664,0.7871,0.8243,0.9406,0.9562,0.9519,0.9255,0.9211,0.9102,0.8809,0.8641,0.8565,0.8565,0.8424,0.8377,0.8518,0.854,0.8738,0.9197,0.9219,0.9336,0.9555,0.9562,0.9562,0.9614,0.9614,0.951,0.9413,0.9263,0.9113,0.9008,0.8857,0.8857,0.8956,0.8956,0.8956,0.8956,0.8956,0.9211,0.951,0.9562,1.0233,1.1167,1.1276,1.1628,1.2026,-0.4301,-0.4249,-0.4193,-0.4079,-0.4021,-0.391,-0.3796,-0.3796,-0.3744,-0.3638,-0.3583,-0.3302,-0.2736,-0.24,-0.1788,-0.0672,0.0224,0.0785,0.0898,0.0898,0.0898,0.0898,0.0898,0.0953,0.1121,0.1846,0.279,0.384,0.4233,0.4736,0.5297,0.5352,0.5352,0.5352,0.5407,0.5517,0.5622,0.5677,0.5732,0.585,0.585,0.5955,0.6059,0.6059,0.6059,0.6059,0.6059,0.5955,0.5905,0.6005,0.6119,0.6178,0.6178,0.6178,0.6178,0.6178,0.6178,0.6178,0.6178,0.6178,0.6178,0.6178,0.6178,0.6178,0.6178,0.6178,0.6178,0.6178,0.6178,0.6495,0.7563,0.7723,0.809,0.9099,0.9361,0.9444,0.9379,0.9467,0.9497,0.9424,0.909,0.8897,0.8897,0.8749,0.87,0.8644,0.8919,0.9095,0.9217,0.9224,0.9297,0.9458,0.9465,0.951,0.9614,0.9614,0.951,0.9413,0.9263,0.9113,0.9008,0.8857,0.8804,0.8857,0.8857,0.8857,0.8857,0.8857,0.891,0.9008,0.9413,0.9769,1.0079,1.0964,1.1368,1.1519,-0.4356,-0.4356,-0.4301,-0.4242,-0.4135,-0.4024,-0.391,-0.3852,-0.3744,-0.3638,-0.3585,-0.3471,-0.3188,-0.2794,-0.2068,-0.0785,0.0168,0.0729,0.0785,0.0842,0.0898,0.0898,0.0911,0.0919,0.0919,0.1263,0.2159,0.3458,0.3898,0.4457,0.5183,0.5183,0.5282,0.5422,0.5422,0.5579,0.5715,0.5684,0.5759,0.5819,0.5931,0.5983,0.6034,0.6034,0.6034,0.6021,0.5931,0.59,0.59,0.6005,0.6114,0.6178,0.6178,0.6178,0.6178,0.6178,0.6178,0.6178,0.6178,0.6178,0.6178,0.6178,0.6178,0.6178,0.6178,0.6178,0.6178,0.6178,0.6178,0.6549,0.761,0.7723,0.8043,0.9099,0.9309,0.9316,0.9316,0.9361,0.9413,0.9413,0.9219,0.9075,0.9024,0.8878,0.8827,0.882,0.9016,0.9106,0.9211,0.9211,0.9211,0.9309,0.9361,0.9413,0.9517,0.9562,0.9562,0.951,0.9361,0.9211,0.9106,0.8956,0.8857,0.8804,0.8804,0.8804,0.8804,0.8804,0.8804,0.8804,0.9113,0.9361,0.9666,1.0285,1.0854,1.1326,-0.4519,-0.4463,-0.4463,-0.4463,-0.4301,-0.4138,-0.4024,-0.391,-0.3799,-0.3638,-0.3638,-0.3585,-0.3585,-0.3091,-0.2261,-0.1139,-0.0114,0.0456,0.0456,0.0742,0.0856,0.0856,0.0879,0.0891,0.0891,0.0891,0.1521,0.2784,0.3492,0.4222,0.4986,0.5102,0.5345,0.5599,0.5657,0.5742,0.588,0.5847,0.5839,0.5839,0.6009,0.6067,0.612,0.6085,0.6076,0.605,0.5861,0.5841,0.595,0.595,0.6064,0.6173,0.6178,0.6178,0.6178,0.6178,0.6178,0.6178,0.6178,0.6178,0.6178,0.6178,0.6178,0.6178,0.6178,0.6178,0.6178,0.6178,0.6178,0.6549,0.7664,0.7771,0.809,0.9204,0.9256,0.9211,0.9211,0.9211,0.9211,0.9211,0.9211,0.9159,0.9008,0.891,0.8857,0.8956,0.8962,0.9008,0.9113,0.9106,0.9159,0.9159,0.9256,0.9361,0.9361,0.9458,0.951,0.951,0.9413,0.9309,0.9211,0.9106,0.8956,0.8857,0.8857,0.8857,0.8857,0.8811,0.8804,0.8804,0.8804,0.9061,0.9465,0.9666,1.0387,1.1326,-0.4519,-0.4356,-0.4249,-0.4249,-0.4193,-0.4193,-0.4193,-0.4079,-0.391,-0.3796,-0.3691,-0.3585,-0.3585,-0.3156,-0.2771,-0.2547,-0.1337,-0.0547,-0.0426,0.0305,0.0732,0.0732,0.0918,0.0982,0.0982,0.0982,0.1406,0.2184,0.2888,0.3656,0.4423,0.5206,0.5576,0.5599,0.5787,0.5864,0.5888,0.586,0.5912,0.5912,0.5912,0.5967,0.6066,0.591,0.5851,0.5825,0.569,0.5622,0.5677,0.5791,0.59,0.6059,0.6173,0.6178,0.6178,0.6178,0.6178,0.6178,0.6178,0.6178,0.6178,0.6178,0.6178,0.6178,0.6178,0.6178,0.6178,0.6178,0.6178,0.6495,0.7563,0.7723,0.8043,0.9047,0.9211,0.9211,0.9211,0.9211,0.9211,0.9211,0.9211,0.9159,0.9008,0.8956,0.8956,0.8857,0.8804,0.8857,0.8857,0.8857,0.891,0.9008,0.9061,0.9113,0.9211,0.9263,0.9263,0.9263,0.9263,0.9263,0.9361,0.9211,0.9159,0.9159,0.9008,0.8956,0.8956,0.8857,0.8804,0.8804,0.8804,0.8857,0.9008,0.9969,1.0736,1.1326,-0.4632,-0.4522,-0.4467,-0.4356,-0.4356,-0.4383,-0.4352,-0.4251,-0.4107,-0.4004,-0.3896,-0.3781,-0.3781,-0.3287,-0.297,-0.2889,-0.1967,-0.1229,-0.0738,-0.0185,0.0247,0.0679,0.0879,0.1014,0.1014,0.1014,0.1148,0.1552,0.2159,0.303,0.4172,0.4658,0.5197,0.5782,0.5968,0.6087,0.6176,0.6075,0.6092,0.6092,0.6092,0.6092,0.6142,0.6063,0.6034,0.6013,0.5831,0.5755,0.5724,0.5893,0.599,0.6005,0.6173,0.6178,0.6178,0.6178,0.6178,0.6178,0.6178,0.6178,0.6178,0.6178,0.6178,0.6178,0.6178,0.6178,0.6178,0.6178,0.6445,0.6923,0.7664,0.8037,0.8362,0.8784,0.9054,0.9054,0.8692,0.8903,0.9113,0.9113,0.9008,0.8956,0.9008,0.8956,0.8857,0.8804,0.8804,0.8804,0.8804,0.8804,0.8804,0.891,0.8956,0.9008,0.9113,0.9159,0.9211,0.9211,0.9211,0.9211,0.9159,0.9106,0.9061,0.8956,0.891,0.891,0.891,0.8804,0.8804,0.8804,0.8804,0.8804,0.891,0.9666,1.0123,1.0336]},{"header":{"parameterUnit":"m.s-1","parameterCategory":1,"la1":30.6,"la2":28.766,"lo1":-90.7593,"lo2":-88.6598,"dy":0.0162,"dx":0.0183,"nx":116,"ny":114,"refTime":"2024-06-10T18:00:00:Z","depth":0,"parameterNumber":3,"parameterNumberName":"V-component_of_WINDS"},"data":[0.0,0.0,0.0,0.0,0.0,0.0,0.0,0.0,0.0,0.0,0.0,0.0,0.0,0.0,0.0,0.0,0.0,0.0,0.0,0.0,0.0,0.0,0.0,0.0,0.0,0.0,0.0,0.0,0.0,0.0,0.0,0.0,0.0,0.0,0.0,0.0,0.0,0.0,0.0,0.0,0.0,0.0,0.0,0.0,0.0,0.0,0.0,0.0,0.0,0.0,0.0,0.0,0.0,0.0,0.0,0.0,0.0,0.0,0.0,0.0,0.0,0.0,0.0,0.0,0.0,0.0,0.0,0.0,0.0,0.0,0.0,0.0,0.0,0.0,0.0,0.0,0.0,0.0,0.0,0.0,0.0,0.0,0.0,0.0,0.0,0.0,0.0,0.0,0.0,0.0,0.0,0.0,0.0,0.0,0.0,0.0,0.0,0.0,0.0,0.0,0.0,0.0,0.0,0.0,0.0,0.0,0.0,0.0,0.0,0.0,0.0,0.0,0.0,0.0,0.0,0.0,0.0,0.0,0.0,0.0,0.0,0.0,0.0,0.0,0.0,0.0,0.0,0.0,0.0,0.0,0.0,0.0,0.0,0.0,0.0,0.0,0.0,0.0,0.0,0.0,0.0,0.0,0.0,0.0,0.0,0.0,0.0,0.0,0.0,0.0,0.0,0.0,0.0,0.0,0.0,0.0,0.0,0.0,0.0,0.0,0.0,0.0,0.0,0.0,0.0,0.0,0.0,0.0,0.0,0.0,0.0,0.0,0.0,0.0,0.0,0.0,0.0,0.0,0.0,0.0,0.0,0.0,0.0,0.0,0.0,0.0,0.0,0.0,0.0,0.0,0.0,0.0,0.0,0.0,0.0,0.0,0.0,0.0,0.0,0.0,0.0,0.0,0.0,0.0,0.0,0.0,0.0,0.0,0.0,0.0,0.0,0.0,0.0,0.0,0.0,0.0,0.0,0.0,0.0,0.0,0.0,0.0,0.0,0.0,0.0,0.0,0.0,0.0,0.0,0.0,0.0,0.0,0.0,0.0,0.0,0.0,0.0,0.0,0.0,0.0,0.0,0.0,0.0,0.0,0.0,0.0,0.0,0.0,0.0,0.0,0.0,0.0,0.0,0.0,0.0,0.0,0.0,0.0,0.0,0.0,0.0,0.0,0.0,0.0,0.0,0.0,0.0,0.0,0.0,0.0,0.0,0.0,0.0,0.0,0.0,0.0,0.0,0.0,0.0,0.0,0.0,0.0,0.0,0.0,0.0,0.0,0.0,0.0,0.0,0.0,0.0,0.0,0.0,0.0,0.0,0.0,0.0,0.0,0.0,0.0,0.0,0.0,0.0,0.0,0.0,0.0,0.0,0.0,0.0,0.0,0.0,0.0,0.0,0.0,0.0,0.0,0.0,0.0,0.0,0.0,0.0,0.0,0.0,0.0,0.0,0.0,0.0,0.0,0.0,0.0,0.0,0.0,0.0,0.0,0.0,0.0,0.0,0.0,0.0,0.0,0.0,0.0,0.0,0.0,0.0,0.0,0.0,0.0,0.0,0.0,0.0,0.0,0.0,0.0,0.0,0.0,0.0,0.0,0.0,0.0,0.0,0.0,0.0,0.0,0.0,0.0,0.0,0.0,0.0,0.0,0.0,0.0,0.0,0.0,0.0,0.0,0.0,0.0,0.0,0.0,0.0,0.0,0.0,0.0,0.0,0.0,0.0,0.0,0.0,0.0,0.0,0.0,0.0,0.0,0.0,0.0,0.0,0.0,0.0,0.0,0.0,0.0,0.0,0.0,0.0,0.0,0.0,0.0,0.0,0.0,0.0,0.0,0.0,0.0,0.0,0.0,0.0,0.0,0.0,0.0,0.0,0.0,0.0,0.0,0.0,0.0,0.0,0.0,0.0,0.0,0.0,0.0,0.0,0.0,0.0,0.0,0.0,0.0,0.0,0.0,0.0,0.0,0.0,0.0,0.0,0.0,0.0,0.0,0.0,0.0,0.0,0.0,0.0,0.0,0.0,0.0,0.0,0.0,0.0,0.0,0.0,0.0,0.0,0.0,0.0,0.0,0.0,0.0,0.0,0.0,0.0,0.0,0.0,0.0,0.0,0.0,0.0,0.0,0.0,0.0,0.0,0.0,0.0,0.0,0.0,0.0,0.0,0.0,0.0,0.0,0.0,0.0,0.0,0.0,0.0,0.0,0.0,0.0,0.0,0.0,0.0,0.0,0.0,0.0,0.0,0.0,0.0,0.0,0.0,0.0,0.0,0.0,0.0,0.0,0.0,0.0,0.0,0.0,0.0,0.0,0.0,0.0,0.0,0.0,0.0,0.0,0.0,0.0,0.0,0.0,0.0,0.0,0.0,0.0,0.0,0.0,0.0,0.0,0.0,0.0,0.0,0.0,0.0,0.0,0.0,0.0,0.0,0.0,0.0,0.0,0.0,0.0,0.0,0.0,0.0,0.0,0.0,0.0,0.0,0.0,0.0,0.0,0.0,0.0,0.0,0.0,0.0,0.0,0.0,0.0,0.0,0.0,0.0,0.0,0.0,0.0,0.0,0.0,0.0,0.0,0.0,0.0,0.0,0.0,0.0,0.0,0.0,0.0,0.0,0.0,0.0,0.0,0.0,0.0,0.0,0.0,0.0,0.0,0.0,0.0,0.0,0.0,0.0,0.0,0.0,0.0,0.0,0.0,0.0,0.0,0.0,0.0,0.0,0.0,0.0,0.0,0.0,0.0,0.0,0.0,0.0,0.0,0.0,0.0,0.0,0.0,0.0,0.0,0.0,0.0,0.0,0.0,0.0,0.0,0.0,0.0,0.0,0.0,0.0,0.0,0.0,0.0,0.0,0.0,0.0,0.0,0.0,0.0,0.0,0.0,0.0,0.0,0.0,0.0,0.0,0.0,0.0,0.0,0.0,0.0,0.0,0.0,0.0,0.0,0.0,0.0,0.0,0.0,0.0,0.0,0.0,0.0,0.0,0.0,0.0,0.0,0.0,0.0,0.0,0.0,0.0,0.0,0.0,0.0,0.0,0.0,0.0,0.0,0.0,0.0,0.0,0.0,0.0,0.0,0.0,0.0,0.0,0.0,0.0,0.0,0.0,0.0,0.0,0.0,0.0,0.0,0.0,0.0,0.0,0.0,0.0,0.0,0.0,0.0,0.0,0.0,0.0,0.0,0.0,0.0,0.0,0.0,0.0,0.0,0.0,0.0,0.0,0.0,0.0,0.0,0.0,0.0,0.0,0.0,0.0,0.0,0.0,0.0,0.0,0.0,0.0,0.0,0.0,0.0,0.0,0.0,0.0,0.0,0.0,0.0,0.0,0.0,0.0,0.0,0.0,0.0,0.0,0.0,0.0,0.0,0.0,0.0,0.0,0.0,0.0,0.0,0.0,0.0,0.0,0.0,0.0,0.0,0.0,0.0,0.0,0.0,0.0,0.0,0.0,0.0,0.0,0.0,0.0,0.0,0.0,0.0,0.0,0.0,0.0,0.0,0.0,0.0,0.0,0.0,0.0,0.0,0.0,0.0,0.0,0.0,0.0,0.0,0.0,0.0,0.0,0.0,0.0,0.0,0.0,0.0,0.0,0.0,0.0,0.0,0.0,0.0,0.0,0.0,0.0,0.0,0.0,0.0,0.0,0.0,0.0,0.0,0.0,0.0,0.0,0.0,0.0,0.0,0.0,0.0,0.0,0.0,0.0,0.0,0.0,0.0,0.0,0.0,0.0,0.0,0.0,0.0,0.0,0.0,0.0,0.0,0.0,0.0,0.0,0.0,0.0,0.0,0.0,0.0,0.0,0.0,0.0,0.0,0.0,0.0,0.0,0.0,0.0,0.0,0.0,0.0,0.0,0.0,0.0,0.0,0.0,0.0,0.0,0.0,0.0,0.0,0.0,0.0,0.0,0.0,0.0,0.0,0.0,0.0,0.0,0.0,0.0,0.0,0.0,0.0,0.0,0.0,0.0,0.0,0.0,0.0,0.0,0.0,0.0,0.0,0.0,0.0,0.0,0.0,0.0,0.0,0.0,0.0,0.0,0.0,0.0,0.0,0.0,0.0,0.0,0.0,0.0,0.0,0.0,0.0,0.0,0.0,0.0,0.0,0.0,0.0,0.0,0.0,0.0,0.0,0.0,0.0,0.0,0.0,0.0,0.0,0.0,0.0,0.0,0.0,0.0,0.0,0.0,0.0,0.0,0.0,0.0,0.0,0.0,0.0,0.0,0.0,0.0,0.0,0.0,0.0,0.0,0.0,0.0,0.0,0.0,0.0,0.0,0.0,0.0,0.0,0.0,0.0,0.0,0.0,0.0,0.0,0.0,0.0,0.0,0.0,0.0,0.0,0.0,0.0,0.0,0.0,0.0,0.0,0.0,0.0,0.0,0.0,0.0,0.0,0.0,0.0,0.0,0.0,0.0,0.0,0.0,0.0,0.0,0.0,0.0,0.0,0.0,0.0,0.0,0.0,0.0,0.0,0.0,0.0,0.0,0.0,0.0,0.0,0.0,0.0,0.0,0.0,0.0,0.0,0.0,0.0,0.0,0.0,0.0,0.0,0.0,0.0,0.0,0.0,0.0,0.0,0.0,0.0,0.0,0.0,0.0,0.0,0.0,0.0,0.0,0.0,0.0,0.0,0.0,0.0,0.0,0.0,0.0,0.0,0.0,0.0,0.0,0.0,0.0,0.0,0.0,0.0,0.0,0.0,0.0,0.0,0.0,0.0,0.0,0.0,0.0,0.0,0.0,0.0,0.0,0.0,0.0,0.0,0.0,0.0,0.0,0.0,0.0,0.0,0.0,0.0,0.0,0.0,0.0,0.0,0.0,0.0,0.0,0.0,0.0,0.0,0.0,0.0,0.0,0.0,0.0,0.0,0.0,0.0,0.0,0.0,0.0,0.0,0.0,0.0,0.0,0.0,0.0,0.0,0.0,0.0,0.0,0.0,0.0,0.0,0.0,0.0,0.0,0.0,0.0,0.0,0.0,0.0,0.0,0.0,0.0,0.0,0.0,0.0,0.0,0.0,0.0,0.0,0.0,0.0,0.0,0.0,0.0,0.0,0.0,0.0,0.0,0.0,0.0,0.0,0.0,0.0,0.0,0.0,0.0,0.0,0.0,0.0,0.0,0.0,0.0,0.0,0.0,0.0,0.0,0.0,0.0,0.0,0.0,0.0,0.0,0.0,0.0,0.0,0.0,0.0,0.0,0.0,0.0,0.0,0.0,0.0,0.0,0.0,0.0,0.0,0.0,0.0,0.0,0.0,0.0,0.0,0.0,0.0,0.0,0.0,0.0,0.0,0.0,0.0,0.0,0.0,0.0,0.0,0.0,0.0,0.0,0.0,0.0,0.0,0.0,0.0,0.0,0.0,0.0,0.0,0.0,0.0,0.0,0.0,0.0,0.0,0.0,0.0,0.0,0.0,0.0,0.0,0.0,0.0,0.0,0.0,0.0,0.0,0.0,0.0,0.0,0.0,0.0,0.0,0.0,0.0,0.0,0.0,0.0,0.0,0.0,0.0,0.0,0.0,0.0,0.0,0.0,0.0,0.0,0.0,0.0,0.0,0.0,0.0,0.0,0.0,0.0,0.0,0.0,0.0,0.0,0.0,0.0,0.0,0.0,0.0,0.0,0.0,0.0,0.0,0.0,0.0,0.0,0.0,0.0,0.0,0.0,0.0,0.0,0.0,0.0,0.0,0.0,0.0,0.0,0.0,0.0,0.0,0.0,0.0,0.0,0.0,0.0,0.0,0.0,0.0,0.0,0.0,0.0,0.0,0.0,0.0,0.0,0.0,0.0,0.0,0.0,0.0,0.0,0.0,0.0,0.0,0.0,0.0,0.0,0.0,0.0,0.0,0.0,0.0,0.0,0.0,0.0,0.0,0.0,0.0,0.0,0.0,0.0,0.0,0.0,0.0,0.0,0.0,0.0,0.0,0.0,0.0,0.0,0.0,0.0,0.0,0.0,0.0,0.0,0.0,0.0,0.0,0.0,0.0,0.0,0.0,0.0,0.0,0.0,0.0,0.0,0.0,0.0,0.0,0.0,0.0,0.0,0.0,0.0,0.0,0.0,0.0,0.0,0.0,0.0,0.0,0.0,0.0,0.5216,0.0,0.0,0.0,0.0,0.0,0.0,0.0,0.0,0.0,0.0,0.0,0.0,0.0,0.0,0.0,0.0,0.0,0.0,0.0,0.0,0.0,0.0,0.0,0.0,0.2896,0.3083,0.3099,0.3345,0.3499,0.3514,0.0,0.0,0.0,0.0,0.0,0.4089,0.4252,0.4548,0.493,0.517,0.5827,0.6855,0.7075,0.687,0.6307,0.0,0.0,0.0,0.0,0.0,0.0,0.0,0.0,0.0,0.0,0.0,0.0,0.0,0.0,0.0,0.0,0.0,0.0,0.0,0.0,0.0,0.0,0.0,0.0,0.0,0.0,0.0,0.0,0.0,0.0,0.0,0.0,0.0,0.0,0.0,0.0,0.0,0.0,0.0,0.0,0.0,0.0,0.0,0.0,0.0,0.0,0.0,0.0,0.0,0.0,0.0,0.0,0.0,0.0,0.0,0.0,0.0,0.0,0.0,0.0,0.0,0.0,0.0,0.0,0.0,0.0,0.0,0.0,0.0,0.0,0.0,0.6225,0.0,0.0,0.0,0.0,0.0,0.0,0.0,0.0,0.0,0.0,0.0,0.0,0.0,0.0,0.0,0.0,0.0,0.0,0.0,0.0,0.0,0.2407,0.2429,0.2642,0.2789,0.2821,0.3025,0.3153,0.3211,0.3381,0.0,0.0,0.0,0.3703,0.3965,0.4143,0.4509,0.5029,0.5607,0.6583,0.7923,0.8911,0.8894,0.8024,0.7555,0.0,0.0,0.0,0.0,0.0,0.0,0.0,0.0,0.0,0.0,0.0,0.0,0.0,0.0,0.0,0.0,0.0,0.0,0.0,0.0,0.0,0.0,0.0,0.0,0.0,0.0,0.0,0.0,0.0,0.0,0.0,0.0,0.0,0.0,0.0,0.0,0.0,0.0,0.0,0.0,0.0,0.0,0.0,0.0,0.0,0.0,0.0,0.0,0.0,0.0,0.0,0.0,0.0,0.0,0.0,0.0,0.0,0.0,0.0,0.0,0.0,0.0,0.0,0.9213,0.9517,0.9422,0.92,0.9591,1.0284,0.922,0.8587,0.8186,0.0,0.0,0.0,0.0,0.0,0.0,0.0,0.0,0.0,0.0,0.0,0.0,0.0,0.0,0.0,0.0,0.0,0.0,0.0,0.0,0.203,0.2144,0.2442,0.2611,0.2555,0.2783,0.2912,0.2875,0.295,0.0,0.0,0.3056,0.319,0.3395,0.3822,0.4157,0.441,0.6144,0.7451,0.837,0.9742,1.0614,1.0869,0.9399,0.8711,0.8586,0.0,0.0,0.0,0.0,0.0,0.0,0.0,0.0,0.0,0.0,0.0,0.0,0.0,0.0,0.0,0.0,0.0,0.0,0.0,0.0,0.0,0.0,0.0,0.0,0.0,0.0,0.0,0.0,0.0,0.0,0.0,0.0,0.0,0.0,0.0,0.0,0.0,0.0,0.0,0.0,0.0,0.4902,0.5517,0.0,0.0,0.0,0.0,0.0,0.0,0.0,0.0,0.0,0.0,0.0,0.0,0.0,0.8354,0.8912,0.9951,1.04,1.028,1.1148,1.1509,1.1245,1.1228,1.1418,1.1709,1.1541,0.0,0.9307,0.7892,0.0,0.0,0.0,0.0,0.0,0.0,0.0,0.0,0.0,0.0,0.0,0.0,0.0,0.0,0.0,0.0,0.0,0.0,0.0,0.0,0.0,0.1997,0.2104,0.2153,0.2444,0.2566,0.2408,0.2706,0.2854,0.2745,0.2864,0.2992,0.3078,0.3468,0.4025,0.4815,0.7065,0.8412,0.8937,1.0695,1.1696,1.1975,1.1254,1.043,0.9541,0.8604,0.0,0.0,0.0,0.0,0.0,0.0,0.0,0.0,0.0,0.0,0.0,0.0,0.0,0.0,0.0,0.0,0.0,0.0,0.0,0.0,0.0,0.0,0.0,0.0,0.0,0.0,0.0,0.0,0.0,0.0,0.0,0.0,0.0,0.0,0.0,0.0,0.0,0.0,0.0,0.5017,0.5636,0.6021,0.6079,0.597,0.0,0.0,0.0,0.0,0.0,0.0,0.0,0.0,0.0,0.8478,0.922,0.994,1.0563,1.1185,1.1483,1.1406,1.2014,1.2233,1.2102,1.2102,1.238,1.2826,1.2277,1.1596,1.0932,0.9511,0.8508,0.7822,0.0,0.0,0.0,0.0,0.5985,0.6152,0.0,0.0,0.0,0.0,0.0,0.0,0.0,0.0,0.0,0.0,0.0,0.0,0.1467,0.1476,0.1509,0.1621,0.1849,0.1878,0.1617,0.216,0.236,0.2125,0.2407,0.2604,0.2702,0.3139,0.3897,0.4976,0.7053,0.835,0.8892,1.0756,1.1763,1.2123,1.2169,1.1549,1.0471,0.9556,0.8417,0.7128,0.0,0.0,0.0,0.0,0.0,0.0,0.0,0.0,0.0,0.0,0.0,0.0,0.0,0.0,0.0,0.0,0.0,0.0,0.0,0.0,0.0,0.0,0.0,0.0,0.0,0.0,0.0,0.0,0.0,0.0,0.0,0.0,0.0,0.0,0.0,0.0,0.0,0.5737,0.6348,0.6492,0.6934,0.7027,0.0,0.0,0.0,0.0,0.0,0.0,0.7075,0.8147,0.9061,0.9658,1.0587,1.1275,1.1677,1.208,1.2284,1.2284,1.2614,1.2767,1.2767,1.2767,1.3038,1.3455,1.2723,1.2405,1.2296,1.0711,0.9741,0.9015,0.7842,0.7186,0.6977,0.7099,0.7198,0.7348,0.0,0.0,0.0,0.0,0.0,0.0,0.0,0.0,0.0,0.0,0.0,0.069,0.0822,0.0852,0.0852,0.0848,0.0885,0.0701,0.0,0.0918,0.1149,0.0818,0.1364,0.1819,0.2128,0.2893,0.3633,0.4341,0.538,0.6462,0.7735,0.9275,1.0456,1.1288,1.1442,1.1606,1.1662,1.0458,0.9483,0.8641,0.703,0.0,0.0,0.0,0.0,0.0,0.0,0.0,0.0,0.0,0.0,0.0,0.0,0.0,0.0,0.0,0.0,0.0,0.0,0.0,0.0,0.0,0.0,0.0,0.0,0.0,0.0,0.0,0.0,0.0,0.0,0.0,0.0,0.0,0.0,0.0,0.0,0.0,0.0,0.7148,0.7994,0.0,0.0,0.0,0.0,0.6738,0.771,0.8325,0.8404,0.924,1.014,1.0975,1.1919,1.2292,1.1949,1.2643,1.2958,1.2965,1.3287,1.3448,1.3448,1.3448,1.3462,1.3492,1.344,1.344,1.3223,1.0982,0.9808,0.9472,0.8694,0.8409,0.8414,0.8436,0.8587,0.8781,0.0,0.0,0.0,0.0,0.0,0.1449,0.1247,0.0868,0.0625,0.0672,0.0186,-0.0101,0.0085,-0.0151,-0.0326,-0.0356,-0.0215,-0.0209,-0.0488,0.009,0.0371,0.0257,0.0614,0.0991,0.1321,0.1736,0.216,0.2637,0.3795,0.4867,0.5852,0.7109,0.8088,0.8741,0.8816,0.8882,0.8975,0.9485,0.9278,0.8553,0.744,0.6666,0.0,0.0,0.0,0.0,0.0,0.0,0.0,0.0,0.0,0.0,0.0,0.0,0.0,0.0,0.0,0.0,0.0,0.0,0.0,0.0,0.0,0.0,0.0,0.0,0.0,0.0,0.0,0.0,0.0,0.0,0.0,0.0,0.0,0.0,0.0,0.0,0.0,0.811,0.8656,0.0,0.8551,0.8976,0.9082,0.8514,0.9029,0.9479,0.969,1.0223,1.0868,1.1636,1.2431,1.2775,1.2665,1.3104,1.3323,1.3323,1.344,1.3492,1.3492,1.3492,1.3609,1.3806,1.3806,1.3697,1.346,1.2182,1.1196,1.0393,0.9313,0.8705,0.8533,0.8684,0.8883,0.9104,0.0,0.0,0.0,0.0,0.143,0.1139,0.0936,0.0468,0.0156,0.0247,-0.0382,-0.0845,-0.0843,-0.1244,-0.1606,-0.1888,-0.1564,-0.1471,-0.173,-0.0967,-0.055,-0.064,-0.0092,0.0369,0.0718,0.0688,0.084,0.1072,0.1936,0.2677,0.339,0.4509,0.5473,0.6241,0.6468,0.6728,0.711,0.8037,0.8385,0.8261,0.7649,0.7222,0.6869,0.0,0.0,0.0,0.0,0.0,0.0,0.0,0.0,0.0,0.0,0.0,0.0,0.0,0.0,0.0,0.0,0.0,0.0,0.0,0.0,0.0,0.0,0.0,0.0,0.0,0.0,0.0,0.0,0.0,0.0,0.0,0.0,0.0,0.0,0.0,0.8325,0.8618,0.9425,0.9885,0.9694,1.0093,1.0305,0.9976,1.0338,1.0586,1.0712,1.1142,1.1627,1.2305,1.2892,1.317,1.317,1.3389,1.3492,1.3492,1.3609,1.366,1.366,1.3777,1.3945,1.4143,1.4143,1.4029,1.3824,1.318,1.233,1.1389,1.0119,0.9438,0.9249,0.9405,0.9556,0.9712,0.0,0.0,0.0,0.1323,0.1116,0.0892,0.069,0.0044,-0.0335,-0.0067,-0.0795,-0.149,-0.1897,-0.2396,-0.2988,-0.364,-0.3214,-0.3051,-0.3357,-0.2217,-0.1657,-0.1876,-0.0827,-0.0077,0.0337,-0.0143,-0.0307,-0.0159,-0.0273,-0.0,0.0548,0.1591,0.2739,0.3932,0.4501,0.5345,0.6357,0.6357,0.6946,0.7894,0.7696,0.7759,0.7878,0.0,0.0,0.0,0.0,0.0,0.0,0.0,0.0,0.0,0.0,0.0,0.0,0.0,0.0,0.0,0.0,0.0,0.0,0.0,0.0,0.0,0.0,0.0,0.0,0.0,0.0,0.0,0.0,0.0,0.0,0.0,0.0,0.0,0.68,0.8387,0.9328,0.8696,1.0358,1.1311,1.0682,1.1487,1.1725,1.1024,1.1514,1.1729,1.1483,1.1909,1.2459,1.3023,1.3331,1.3492,1.3492,1.3506,1.3514,1.3514,1.3843,1.3996,1.4004,1.4326,1.4472,1.4487,1.4487,1.4487,1.4494,1.3859,1.3206,1.2399,1.1117,1.0632,1.0638,1.0638,1.0638,1.0638,0.0,0.0,0.1006,0.1077,0.0624,0.02,-0.0067,-0.0557,-0.0894,-0.0873,-0.1582,-0.2211,-0.2511,-0.3082,-0.3553,-0.3811,-0.3634,-0.3428,-0.3246,-0.2704,-0.2176,-0.1758,-0.146,-0.1248,-0.1148,-0.1697,-0.1965,-0.1981,-0.1997,-0.1722,-0.1108,-0.0389,0.061,0.177,0.2717,0.3938,0.5316,0.5647,0.6617,0.8036,0.7874,0.7832,0.785,0.0,0.0,0.0,0.0,0.0,0.0,0.0,0.0,0.0,0.0,0.0,0.0,0.0,0.0,0.0,0.0,0.0,0.0,0.0,0.0,0.0,0.0,0.0,0.0,0.0,0.0,0.0,0.0,0.0,0.0,0.0,0.0,0.8799,0.8267,0.8738,0.9059,0.9,1.0167,1.0927,1.0753,1.1761,1.2284,1.2056,1.2012,1.22,1.2539,1.2557,1.2774,1.336,1.3448,1.3492,1.3492,1.3733,1.385,1.385,1.4179,1.4333,1.434,1.4428,1.4596,1.4809,1.4809,1.4948,1.5085,1.4489,1.3738,1.3035,1.1897,1.1031,1.0638,1.0638,1.0638,1.0638,0.0,0.074,0.0653,0.0702,0.0223,-0.0267,-0.0555,-0.111,-0.1446,-0.138,-0.2189,-0.2869,-0.3082,-0.3813,-0.4408,-0.4738,-0.4521,-0.4252,-0.4035,-0.3512,-0.2976,-0.2427,-0.2314,-0.2266,-0.2225,-0.2743,-0.3063,-0.307,-0.3347,-0.3123,-0.2563,-0.1953,-0.078,0.0833,0.1726,0.3224,0.5156,0.5378,0.6509,0.81,0.8088,0.8299,0.8566,0.8477,0.8425,0.8253,0.7497,0.7461,0.7639,0.6704,0.0,0.0,0.0,0.0,0.0,0.0,0.0,0.0,0.0,0.0,0.0,0.0,0.0,0.0,0.0,0.0,0.0,0.0,0.0,0.0,0.0,0.0,0.0,0.0,0.8873,0.9603,0.9628,0.9526,0.9455,0.9446,1.0498,1.1231,1.1354,1.2287,1.2928,1.2928,1.2742,1.2849,1.3214,1.3092,1.3119,1.3492,1.3631,1.3697,1.3697,1.4026,1.4187,1.4187,1.4516,1.467,1.467,1.4809,1.497,0.0,1.5145,1.5083,1.4908,1.4566,1.3808,0.0,0.0,0.0,0.0,0.0,1.0934,1.1023,0.0,0.037,0.0324,0.0239,-0.0179,-0.0622,-0.0972,-0.1611,-0.1989,-0.1752,-0.2643,-0.3351,-0.3486,-0.4419,-0.5236,-0.5776,-0.5421,-0.5136,0.0,-0.4398,-0.3863,-0.3605,-0.3466,-0.3328,-0.3192,-0.3624,-0.379,-0.379,-0.4184,-0.4125,-0.3569,-0.2847,-0.1335,0.0721,0.1501,0.3272,0.5592,0.581,0.6779,0.8237,0.8461,0.8964,0.9455,0.905,0.9398,0.9909,0.8265,0.8225,0.8651,0.7229,0.0,0.0,0.0,0.0,0.0,0.0,0.0,0.0,0.0,0.0,0.0,0.0,0.0,0.0,0.0,0.0,0.0,0.0,0.0,0.0,0.0,0.0,0.0,0.0,0.9817,0.9964,1.0602,1.052,1.0307,0.9926,1.1056,1.1861,1.1979,1.2934,1.3492,1.3492,1.3492,1.3514,1.355,0.0,0.0,0.0,0.0,1.404,1.404,1.4355,1.4523,1.4523,1.4845,1.4999,1.5006,1.5292,1.5431,1.5431,1.5431,1.4999,1.4398,1.4398,1.3633,1.2448,1.2363,1.1946,1.1354,1.1348,1.1527,1.1699,0.0,0.0151,-0.0054,-0.0238,-0.0692,-0.1203,-0.1701,-0.2185,-0.2476,-0.2476,-0.297,-0.3381,-0.3568,-0.411,-0.4496,-0.4612,-0.4782,-0.4837,0.0,0.0,-0.4468,-0.467,-0.5016,-0.5147,-0.4977,-0.5082,-0.5105,-0.4948,-0.4177,-0.3738,-0.3569,-0.2009,-0.0557,0.0776,0.266,0.4539,0.6303,0.7587,0.8501,0.9047,0.9503,0.9416,0.9067,0.9475,0.982,1.0036,0.969,0.9749,0.9907,0.9229,0.8416,0.7612,0.7134,0.0,0.0,0.0,0.0,0.0,0.0,0.0,0.0,0.0,0.0,0.0,0.0,0.0,0.0,0.0,0.0,0.0,0.0,0.0,0.0,0.842,0.977,1.0585,0.9929,1.0561,1.077,0.9766,1.1142,1.1952,1.1579,1.2725,1.3492,1.3492,1.3492,1.3609,1.3872,1.3887,0.0,1.4275,1.434,1.4377,1.4377,1.4692,1.4853,1.4853,0.0,0.0,1.5335,1.5401,1.5431,1.5431,1.5431,1.4999,1.4398,1.4398,1.3717,1.2619,1.2037,1.1785,1.1613,1.1785,1.1871,1.1957,-0.0177,-0.0272,-0.0456,-0.0785,-0.1181,-0.1667,-0.2293,-0.2682,-0.2987,-0.3226,-0.3664,-0.3958,-0.3948,-0.4394,-0.4713,-0.4713,-0.5023,0.0,0.0,-0.5675,-0.6002,-0.6389,-0.6487,-0.6535,-0.6484,-0.586,-0.5433,-0.5277,-0.4177,-0.3458,-0.3125,-0.1619,-0.0056,0.1497,0.3214,0.5035,0.6853,0.8237,0.9086,0.9666,1.0174,1.0277,1.0069,1.0077,1.0515,1.1031,1.0586,1.0666,1.078,0.9661,0.8953,0.8379,0.7559,0.685,0.6204,0.0,0.0,0.0,0.0,0.0,0.0,0.0,0.0,0.0,0.0,0.0,0.0,0.0,0.0,0.7284,0.0,0.0,0.8824,0.8978,0.9821,1.0374,1.0028,1.0989,1.1233,0.9929,1.0969,1.1716,1.1563,1.2444,1.3193,1.3499,1.3645,1.3814,1.3975,1.4136,1.4296,1.4465,1.4626,1.4706,1.4706,1.5028,1.5189,1.5189,1.535,1.5431,1.5431,1.5431,1.5431,1.5431,1.5431,1.4999,1.4314,1.3717,1.296,1.2203,1.1952,1.1952,1.2032,1.2037,1.2037,1.2203,-0.0927,-0.0969,-0.1041,-0.1301,-0.1601,-0.2058,-0.2767,-0.3172,-0.3515,-0.3834,-0.4287,-0.4501,-0.4297,-0.4716,-0.5029,0.0,0.0,0.0,0.0,-0.7005,-0.7715,-0.8096,-0.8036,-0.7928,-0.7888,-0.6666,-0.5864,-0.5496,-0.4229,-0.3289,-0.2681,-0.1228,0.0446,0.2277,0.3817,0.5471,0.7192,0.8666,0.9555,1.0072,1.0694,1.1158,1.1309,1.0905,1.1216,1.1865,1.115,1.1076,1.1051,0.9712,0.9105,0.8742,0.774,0.7212,0.6804,0.6145,0.5669,0.0,0.0,0.0,0.0,0.0,0.0,0.0,0.0,0.0,0.656,0.7196,0.7801,0.834,0.8698,0.886,0.9105,0.9706,0.9913,1.007,1.0356,1.1306,1.155,1.042,1.1179,1.1834,1.1835,1.2452,1.2973,1.3492,1.374,1.3945,1.407,1.4326,1.4523,1.4655,1.4904,1.5035,1.5035,1.5299,1.5431,1.5431,1.5431,1.5431,1.5431,1.5431,1.5431,1.5431,1.509,1.4657,1.3886,1.2705,1.2032,1.1785,1.1957,1.2203,1.2448,1.2203,1.2283,1.2448,0.0,-0.2128,-0.2074,-0.1639,-0.1945,-0.244,-0.3066,-0.3695,-0.4094,-0.4138,-0.4375,-0.4432,-0.4242,-0.4485,-0.4766,-0.5076,-0.5784,0.0,-0.6602,-0.7984,-0.8949,-0.9228,-0.9756,-0.9813,-0.9197,-0.8389,-0.7422,-0.6249,-0.4491,-0.3284,-0.2625,-0.039,0.1227,0.2332,0.5105,0.6597,0.7295,0.9909,1.0643,1.0064,1.1158,1.1769,1.1977,1.1927,1.1749,1.1479,1.1387,1.0754,1.004,1.0118,0.9462,0.8524,0.8343,0.8032,0.7617,0.6814,0.0,0.5364,0.5234,0.5207,0.5352,0.6019,0.6023,0.6299,0.0,0.0,0.7422,0.8884,0.8775,0.8628,0.9495,0.9577,0.9388,0.8971,0.9701,1.0356,1.0507,1.1188,1.1594,1.1423,1.2487,1.3084,1.2526,1.3046,1.3419,1.3492,1.3528,1.3806,1.4384,1.445,1.4728,1.5306,1.5357,1.5372,1.5372,1.5416,1.5431,1.5431,1.5431,1.5431,1.5431,1.5431,1.5431,1.534,1.4159,1.3222,1.2534,1.1774,1.1607,1.1957,1.1957,1.2289,1.2619,1.2619,1.2619,1.2705,0.0,-0.2584,-0.2543,-0.2629,-0.2741,-0.2981,-0.3473,-0.3922,-0.4277,-0.4524,-0.4624,-0.4644,-0.4552,-0.4649,-0.4782,-0.4921,-0.5662,-0.6385,-0.6961,-0.8257,-0.9384,-1.0238,-1.0483,-1.0516,-1.0312,-0.9415,-0.8416,-0.7416,-0.5229,-0.3874,-0.3174,-0.039,0.1338,0.2277,0.458,0.6333,0.77,0.9533,1.0576,1.1032,1.2138,1.2559,1.255,1.2626,1.2005,1.1107,1.1107,1.0531,0.0,0.0,0.8898,0.8438,0.8102,0.7968,0.7772,0.719,0.6684,0.0,0.6459,0.6233,0.6081,0.0,0.6637,0.6864,0.781,0.7812,0.8003,0.9066,0.92,0.9149,0.9203,0.9309,0.9289,0.0,0.9309,0.9794,0.995,1.0759,1.139,1.139,1.2305,1.2791,1.2319,1.2715,1.3119,1.3492,1.3667,1.3982,1.4443,1.464,1.4955,1.5416,1.5431,1.5431,1.5431,1.5431,1.5431,1.5431,1.5431,1.5431,1.5431,1.5431,1.5173,1.4741,1.3815,1.3052,1.2534,1.2283,1.2198,1.2198,1.2198,1.2454,1.2705,1.2705,1.2705,1.2705,0.0,-0.3084,-0.316,-0.355,-0.3591,-0.364,-0.3868,-0.4175,-0.4466,-0.4764,-0.4793,-0.4832,-0.4882,-0.4882,-0.4902,-0.4922,-0.5777,-0.6554,-0.708,-0.8478,-0.9676,-1.0551,-1.0885,-1.0989,-1.0913,-1.0234,-0.9341,-0.8159,-0.6026,-0.4576,-0.3779,-0.1113,0.0724,0.1886,0.3643,0.5554,0.7581,0.8881,1.0187,1.1443,1.2384,1.2725,1.2714,1.2761,1.195,1.0732,1.062,0.996,0.0,0.0,0.7867,0.7686,0.7213,0.716,0.7227,0.6859,0.6723,0.6748,0.6896,0.0,0.0,0.7075,0.7297,0.7555,0.772,0.7909,0.8317,0.893,0.9126,0.9138,0.8886,0.8914,0.8907,0.8766,0.8969,0.9384,0.9783,1.0556,1.1141,1.1414,1.1976,1.2308,1.22,1.2513,1.2954,1.3484,1.3711,1.4033,1.445,1.4684,1.4999,1.5416,1.5431,1.5431,1.5431,1.5431,1.5431,1.5431,1.5431,1.5431,1.5431,1.5173,1.4741,1.4062,1.3385,1.2796,1.2283,1.2283,1.2283,1.2198,1.2283,1.2448,1.2619,1.2705,1.2705,1.2705,0.0,0.0,-0.4166,-0.4166,-0.4333,-0.4406,-0.4216,-0.4535,-0.4793,-0.4793,-0.4793,-0.4863,-0.5069,-0.5088,-0.5146,-0.5272,-0.6441,-0.7087,-0.692,-0.8834,-0.992,-0.9759,-1.1173,-1.1584,-1.075,-1.0987,-1.0238,-0.8277,-0.6635,-0.5345,-0.4333,-0.2559,-0.0834,0.0831,0.2516,0.4429,0.6568,0.8233,0.9644,1.0864,1.1443,1.1877,1.22,1.2236,1.1426,1.0264,0.995,0.0,0.7413,0.6916,0.6405,0.5903,0.5559,0.5604,0.0,0.5597,0.5718,0.5927,0.0,0.0,0.7812,0.77,0.8143,0.841,0.7892,0.8017,0.8315,0.8819,0.8578,0.8398,0.883,0.8528,0.8224,0.8229,0.8748,0.9466,1.0365,1.0634,1.1044,1.1898,1.1992,1.2109,0.0,1.2757,1.3155,1.347,1.3506,1.3792,1.4435,1.4479,1.4772,1.5409,1.5431,1.5431,1.5431,1.5431,1.5431,1.5431,1.5431,1.5431,1.5347,1.4741,1.4062,1.3392,1.2705,1.2026,1.1348,1.1348,1.1527,1.1699,1.1957,1.2203,1.2448,1.2619,1.2705,1.2705,0.0,0.0,0.0,-0.4755,-0.4853,-0.4912,-0.4923,-0.4863,-0.4892,-0.5098,-0.5137,0.0,0.0,0.0,0.0,0.0,-0.6213,-0.6804,-0.7135,-0.828,-0.9162,-0.9622,-1.0498,-1.0887,-1.0646,-1.104,-1.0629,-0.9285,-0.7603,-0.636,-0.554,-0.3397,-0.1955,-0.1076,0.0869,0.2697,0.4507,0.6832,0.8511,0.9699,1.0886,1.1398,1.1519,1.1412,1.0591,0.9432,0.0,0.0,0.6892,0.6487,0.5968,0.5547,0.5726,0.0,0.0,0.5688,0.5897,0.6254,0.6674,0.0,0.7967,0.8259,0.8844,0.9294,0.9114,0.9071,0.913,0.9172,0.8997,0.8746,0.8488,0.8387,0.8321,0.8403,0.8721,0.9198,0.9791,1.0526,1.1039,1.1099,1.1815,0.0,0.0,0.0,0.0,1.347,1.3492,1.4067,1.5242,1.4762,1.4971,1.5867,1.5338,1.5101,1.5101,1.5101,1.5211,1.5431,1.5431,1.5431,1.5347,1.4741,1.4062,1.3392,1.2705,1.2118,1.1613,1.1613,1.1699,1.1871,1.1957,1.2037,1.2118,1.2209,1.2369,1.2534,0.0,0.0,0.0,0.0,0.0,0.0,0.0,0.0,0.0,0.0,0.0,0.0,0.0,0.0,0.0,0.0,0.0,-0.6845,-0.7132,-0.7915,-0.865,-0.9294,-0.9841,-1.0189,-1.0272,-1.0914,-1.0709,-0.9605,-0.8743,-0.7812,-0.6719,-0.5243,-0.3917,-0.2754,-0.0886,0.0981,0.2914,0.514,0.6852,0.8194,0.9095,0.9534,0.9611,0.9647,0.9009,0.0,0.0,0.6171,0.5657,0.5275,0.4903,0.4648,0.4763,0.4799,0.4802,0.4989,0.5435,0.5997,0.6744,0.7417,0.8037,0.8404,0.9126,0.9735,0.9456,0.9574,0.9618,0.9132,0.8895,0.8588,0.7935,0.7873,0.7963,0.807,0.8544,0.9037,0.9552,1.0521,1.1179,1.1037,1.1901,0.0,0.0,0.0,0.0,1.347,1.3492,1.4081,1.5427,1.5026,1.5111,1.5975,1.5456,1.5004,1.4772,1.4889,1.5101,1.5431,1.5431,1.5431,1.5347,1.4741,1.4062,1.3392,1.2705,1.2118,1.1527,1.1527,1.1613,1.1785,1.1871,1.1871,1.1871,1.1596,1.1854,1.2198,0.0,0.0,0.0,0.0,0.0,0.0,0.0,0.0,0.0,0.0,0.0,0.0,0.0,0.0,0.0,0.0,0.0,0.0,-0.694,-0.7793,-0.8444,-0.8733,-0.9243,-0.9558,-0.967,-1.0606,-1.052,-0.9297,-1.001,-0.9506,-0.7853,-0.7867,-0.6597,-0.4267,-0.2858,-0.087,0.1546,0.3085,0.4694,0.6233,0.6282,0.6428,0.6698,0.717,0.0,0.0,0.0,0.0,0.3806,0.3343,0.0,0.0,0.0,0.0,0.0,0.3674,0.4348,0.5179,0.6119,0.7162,0.8039,0.8276,0.9182,0.9806,0.9013,0.9419,0.9655,0.8776,0.8354,0.7942,0.0,0.0,0.7204,0.7408,0.8305,0.9131,0.9594,1.0602,1.134,0.0,0.0,0.0,0.0,0.0,0.0,1.3615,0.0,1.4056,1.5184,1.5208,1.5284,1.5702,1.5634,1.5265,1.4521,1.4779,1.5094,1.5401,1.5423,1.5431,1.5347,1.4741,1.4062,1.3392,1.2705,1.194,1.1262,1.1262,1.1262,1.1348,1.1613,1.1699,1.1607,1.0885,1.1149,1.178,0.0,0.0,0.0,0.0,0.0,0.0,0.0,0.0,0.0,0.0,0.0,0.0,0.0,0.0,0.0,0.0,0.0,0.0,0.0,-0.7846,-0.8266,-0.8219,-0.8988,-0.933,-0.9103,-0.9756,-0.9793,-0.9238,-0.9475,-0.9308,-0.8763,-0.8816,-0.8306,-0.7302,-0.5889,-0.4538,-0.3135,0.0236,0.2116,0.2998,0.4563,0.5421,0.5732,0.0,0.0,0.0,0.0,0.0,0.0,0.0,0.0,0.0,0.0,0.3067,0.3567,0.0,0.0,0.5016,0.6125,0.716,0.8102,0.8524,0.9188,0.9754,0.97,0.9269,0.8775,0.8391,0.7914,0.7321,0.0,0.0,0.0,0.7985,0.9166,0.0,1.0536,1.1533,0.0,1.2745,0.0,1.3995,1.3824,1.4735,0.0,0.0,1.4824,1.5631,1.681,1.6237,1.628,1.6978,1.5865,1.5119,1.4976,1.4885,1.4903,1.5065,1.5313,1.5431,1.5347,1.4741,1.4062,1.3392,1.2705,1.194,1.1262,1.1262,1.1262,1.1354,1.1354,1.1435,1.1354,1.1165,1.0992,1.0641,0.0,0.0,0.0,0.0,0.0,0.0,0.0,0.0,0.0,0.0,0.0,0.0,0.0,0.0,0.0,0.0,0.0,0.0,0.0,-0.7521,-0.7899,-0.8202,-0.8378,-0.8576,-0.8812,-0.9308,-0.9377,-0.9034,-0.9764,-0.9803,-0.9195,-0.947,-0.9167,-0.8299,-0.6715,-0.5652,-0.4829,-0.1593,-0.0035,0.0,0.0,0.2431,0.0,0.0,0.0,0.0,0.0,0.0,0.0,0.0,0.0,0.2845,0.2639,0.2845,0.3235,0.3822,0.0,0.4855,0.5758,0.6746,0.7629,0.8066,0.8701,0.921,0.8956,0.8789,0.8459,0.7494,0.7124,0.0,0.0,0.0,0.0,0.0,0.0,0.0,1.0645,1.1673,1.2662,0.0,1.4119,0.0,1.4821,1.5687,1.6088,0.0,1.5675,1.6122,1.7202,1.6786,1.6715,1.722,1.634,1.5632,1.5125,1.4704,1.4662,1.4867,1.5131,1.5292,1.5347,1.4741,1.4062,1.3392,0.0,1.194,1.1262,1.1262,1.1262,1.1262,1.1262,1.1262,1.1262,1.0824,1.0733,1.0559,0.0,0.0,0.0,0.0,0.0,0.0,0.0,0.0,0.0,0.0,0.0,0.0,0.0,0.0,0.0,0.0,0.0,0.0,0.0,0.0,0.0,-0.8385,-0.7788,-0.7823,-0.8679,-0.9107,-0.9135,-0.882,0.0,0.0,-0.935,-0.9911,-0.9551,-0.8358,-0.6749,-0.58,-0.5284,-0.3061,-0.2074,-0.1948,-0.1358,-0.1103,0.0,0.0,0.0,0.0,0.0,0.0,0.0,0.0,0.1256,0.2151,0.2289,0.2489,0.2807,0.3281,0.4028,0.4798,0.5283,0.6169,0.7003,0.7298,0.7901,0.828,0.7505,0.7925,0.797,0.6355,0.0,0.5971,0.5649,0.6194,0.687,0.7318,0.0,0.9952,1.0457,1.1505,1.2607,1.3754,1.4419,1.5029,1.5807,1.6585,1.701,1.6941,1.6376,1.6306,1.701,1.7079,1.7001,1.6932,1.6932,1.6325,1.5062,1.4463,1.4337,1.4816,1.4823,1.5005,1.5191,1.4552,1.3893,1.3222,0.0,0.0,1.1262,1.1262,1.1262,1.1262,1.1262,1.1262,1.1176,1.0386,1.0559,1.0911,0.0,0.0,0.0,0.0,0.0,0.0,0.0,0.0,0.0,0.0,-0.5911,-0.5973,0.0,0.0,0.0,0.0,0.0,0.0,0.0,0.0,0.0,-0.7916,-0.8054,-0.8301,-0.8679,0.0,0.0,0.0,0.0,0.0,0.0,0.0,0.0,0.0,0.0,0.0,0.0,-0.5696,-0.4609,0.0,0.0,0.0,0.0,0.0,0.0,0.0,0.0,0.0,0.0,0.0,-0.009,0.1388,0.2269,0.2591,0.2832,0.3517,0.416,0.4755,0.5377,0.6195,0.6907,0.6872,0.7007,0.7047,0.6658,0.61,0.0,0.0,0.4694,0.4394,0.4382,0.5796,0.708,0.7433,0.0,0.0,0.0,0.0,1.3051,0.0,0.0,0.0,0.0,0.0,0.0,0.0,0.0,1.7657,1.7794,1.7794,1.751,1.6932,1.6932,1.6193,1.4697,1.4843,1.4689,1.4157,1.4684,1.4639,1.4117,1.3787,1.3222,1.2534,1.1774,0.0,1.1262,1.1262,1.1262,1.1262,1.1262,1.1262,1.1262,1.1089,1.0651,1.012,0.0,0.0,0.0,0.0,0.0,0.0,0.0,-0.5954,-0.59,-0.5771,-0.5826,-0.5874,-0.5811,-0.6039,0.0,0.0,0.0,0.0,0.0,0.0,0.0,0.0,0.0,-0.8251,0.0,0.0,0.0,0.0,0.0,0.0,0.0,0.0,0.0,0.0,0.0,0.0,0.0,0.0,0.0,0.0,0.0,0.0,0.0,0.0,0.0,0.0,0.0,0.0,0.0,0.0,-0.1288,-0.0619,0.1243,0.2287,0.2895,0.3173,0.373,0.4391,0.4961,0.5687,0.6306,0.6637,0.6621,0.6464,0.5855,0.0,0.0,0.0,0.3836,0.3828,0.4049,0.0,0.0,0.0,0.0,0.0,0.0,0.0,0.0,0.0,0.0,0.0,0.0,0.0,0.0,0.0,0.0,1.8395,1.8008,1.8008,1.7862,1.7501,1.7079,1.6367,1.5171,1.4921,1.4525,1.3989,1.4296,1.4453,1.4367,1.3526,1.3084,1.2875,1.1774,0.0,1.1262,1.1262,1.1262,1.1262,1.1262,1.1262,1.1262,1.1262,1.1003,1.0646,0.0,0.0,0.0,0.0,0.0,0.0,0.0,-0.5904,-0.5943,-0.5815,-0.5863,-0.5874,-0.5793,-0.6039,-0.6278,0.0,0.0,0.0,0.0,0.0,0.0,0.0,0.0,0.0,0.0,0.0,0.0,0.0,0.0,0.0,0.0,0.0,0.0,0.0,0.0,0.0,0.0,0.0,0.0,0.0,0.0,0.0,0.0,0.0,0.0,0.0,0.0,0.0,0.0,0.0,-0.2359,-0.2303,-0.0291,0.1202,0.2261,0.2416,0.2968,0.3651,0.435,0.5049,0.5723,0.6258,0.6376,0.6098,0.5127,0.4771,0.0,0.0,0.3224,0.3425,0.3831,0.0,0.0,0.0,0.0,0.0,0.0,0.0,0.0,0.0,0.0,0.0,0.0,0.0,0.0,0.0,0.0,0.0,1.8269,1.8076,1.8008,1.8008,1.7442,1.6733,1.5956,1.5242,1.4607,1.4097,1.4021,1.4168,1.4496,1.3404,1.301,1.3049,1.1837,0.0,0.0,1.1262,1.1262,1.1262,1.1262,1.1262,1.1262,1.1262,1.1262,1.1262,0.0,0.0,0.0,0.0,0.0,0.0,0.0,-0.5774,-0.6045,-0.6147,-0.6002,-0.5936,-0.6052,-0.6147,-0.6376,0.0,0.0,0.0,0.0,0.0,0.0,0.0,0.0,0.0,0.0,0.0,0.0,0.0,0.0,0.0,0.0,0.0,0.0,0.0,0.0,0.0,0.0,0.0,0.0,0.0,0.0,0.0,0.0,0.0,0.0,0.0,0.0,0.0,0.0,0.0,0.0,-0.2462,-0.2226,-0.1328,-0.0108,0.1151,0.0,0.0,0.3666,0.4789,0.549,0.5272,0.5762,0.5945,0.4684,0.0,0.0,0.3101,0.2732,0.2723,0.3183,0.4418,0.0,0.0,0.0,0.8875,0.0,0.0,0.0,0.0,0.0,0.0,0.0,0.0,0.0,0.0,0.0,0.0,1.8911,1.8337,1.8008,1.8008,1.794,1.751,1.6793,1.6026,1.5259,1.4513,1.4201,1.3701,1.3146,1.2978,1.2572,1.2022,1.1508,0.0,0.0,1.1262,1.1262,1.1262,1.1262,1.1262,1.1262,1.1262,1.1262,1.1262,0.0,0.0,0.0,0.0,0.0,0.0,-0.5437,-0.5864,-0.6213,-0.6465,-0.643,-0.6436,-0.6561,-0.6613,-0.6647,-0.6714,0.0,0.0,0.0,0.0,0.0,0.0,0.0,0.0,0.0,0.0,0.0,0.0,0.0,0.0,0.0,0.0,0.0,0.0,0.0,0.0,0.0,0.0,0.0,0.0,0.0,0.0,0.0,0.0,0.0,0.0,0.0,0.0,0.0,0.0,0.0,0.0,-0.3191,-0.2898,0.0,0.0,0.1463,0.2117,0.4045,0.4716,0.5037,0.5884,0.5804,0.5348,0.4615,0.0,0.3365,0.2867,0.2609,0.2596,0.3103,0.3921,0.47,0.5269,0.6614,0.7959,0.8998,0.0,0.0,0.0,0.0,0.0,0.0,0.0,0.0,0.0,0.0,0.0,1.9639,1.8596,1.8008,1.8008,1.7579,1.6941,1.6167,1.5384,1.4681,1.3912,1.377,1.3635,1.3596,1.2746,1.2387,1.2227,1.1282,0.0,0.0,1.1133,1.1219,1.1262,1.1262,1.1262,1.1262,1.1262,1.1262,1.1262,0.0,0.0,0.0,0.0,0.0,-0.4568,-0.5175,-0.5889,-0.6441,-0.6723,-0.6757,-0.6807,-0.6944,-0.696,-0.6911,-0.6765,-0.6963,0.0,0.0,0.0,0.0,0.0,0.0,0.0,0.0,0.0,0.0,0.0,0.0,0.0,0.0,0.0,0.0,0.0,0.0,0.0,0.0,0.0,0.0,0.0,0.0,0.0,0.0,0.0,0.0,0.0,0.0,0.0,0.0,0.0,0.0,0.0,0.0,0.0,0.0,0.0,0.0546,0.1337,0.3724,0.4458,0.4883,0.6052,0.5936,0.5309,0.0,0.3854,0.3266,0.281,0.2489,0.2515,0.3154,0.378,0.4392,0.5045,0.6311,0.7512,0.8465,0.0,0.0,0.0,0.0,0.0,0.0,0.0,0.0,0.0,0.0,0.0,0.0,1.8921,1.8202,1.8008,1.7295,1.6655,1.6097,1.51,1.4322,1.384,1.3637,1.3616,1.3836,1.2851,1.2376,1.2334,0.0,0.0,0.0,1.088,1.0982,1.1059,1.1214,1.1198,1.107,1.1214,1.1219,1.1252,0.0,0.0,0.0,0.0,0.0,0.0,-0.4512,-0.5765,-0.674,-0.6891,-0.6908,-0.6944,-0.7075,-0.7091,-0.7091,-0.7091,-0.7091,0.0,0.0,0.0,0.0,0.0,0.0,0.0,0.0,0.0,0.0,0.0,0.0,0.0,0.0,0.0,0.0,0.0,0.0,0.0,0.0,0.0,0.0,0.0,0.0,0.0,0.0,0.0,0.0,0.0,0.0,0.0,0.0,0.0,0.0,0.0,0.0,0.0,0.0,0.0,-0.1416,-0.0486,0.2183,0.3916,0.505,0.5324,0.5995,0.6136,0.0,0.3966,0.3673,0.2866,0.2371,0.2382,0.3336,0.4086,0.4683,0.494,0.6511,0.7855,0.8261,0.0,0.0,0.0,0.0,0.0,0.0,0.0,0.0,0.0,0.0,0.0,0.0,1.9375,1.8721,1.8008,1.7295,1.6932,1.6862,1.5376,1.4601,1.4601,1.384,1.3492,1.3514,1.314,1.2662,0.0,0.0,0.0,0.0,1.0638,1.0643,1.0665,1.0896,1.0848,1.0621,1.1091,1.1198,1.1025,0.0,0.0,0.0,0.0,0.0,0.0,0.0,-0.5406,-0.6155,-0.694,-0.7042,-0.7058,-0.7091,-0.7107,-0.7107,-0.7107,-0.7107,0.0,0.0,0.0,0.0,0.0,0.0,0.0,0.0,0.0,-0.8476,-0.853,-0.8296,0.0,0.0,0.0,0.0,0.0,0.0,0.0,0.0,0.0,0.0,0.0,0.0,0.0,0.0,0.0,0.0,0.0,0.0,0.0,0.0,0.0,0.0,0.0,0.0,0.0,0.0,-0.262,-0.1445,0.0,0.1964,0.3444,0.4587,0.5073,0.5363,0.5245,0.4219,0.3608,0.3184,0.3003,0.2656,0.2637,0.3483,0.3792,0.4443,0.6042,0.7063,0.0,0.0,0.0,0.0,0.0,0.0,0.0,0.0,0.0,0.0,0.0,0.0,0.0,0.0,1.9361,1.8864,1.7998,1.6733,1.6097,1.6097,1.4617,1.384,1.384,1.3637,1.3492,1.3499,1.2998,0.0,0.0,0.0,0.0,0.0,1.0401,1.0327,1.0227,1.055,1.0534,1.0253,1.0899,1.1052,1.102,0.0,0.0,0.0,0.0,0.0,0.0,0.0,-0.4939,-0.5592,-0.6259,-0.6616,-0.6795,-0.6795,-0.6985,-0.7107,-0.7107,-0.7107,0.0,0.0,0.0,0.0,0.0,0.0,0.0,0.0,-0.8371,-0.8322,-0.8351,-0.8121,-0.7884,-0.765,-0.7096,0.0,0.0,0.0,0.0,0.0,0.0,0.0,0.0,0.0,0.0,0.0,0.0,0.0,0.0,0.0,0.0,0.0,0.0,0.0,0.0,0.0,0.0,0.0,0.0,-0.1427,0.0164,0.0,0.2714,0.3868,0.479,0.4866,0.4568,0.403,0.3319,0.2866,0.3058,0.2793,0.277,0.3618,0.3943,0.454,0.5889,0.697,0.0,0.0,0.0,0.0,0.0,0.0,0.0,0.0,0.0,0.0,0.0,0.0,0.0,0.0,1.9175,1.8776,1.8145,1.6858,1.6026,1.5675,1.4474,1.3775,1.3492,1.3492,1.3492,1.3492,1.3119,0.0,0.0,0.0,0.0,0.0,1.0153,1.0078,0.9968,1.0386,1.0285,1.0,1.0648,1.0853,1.0885,0.0,0.0,0.0,0.0,0.0,0.0,0.0,-0.4413,-0.5034,-0.5085,-0.5768,-0.6255,-0.631,-0.6757,-0.7066,-0.7123,0.0,0.0,0.0,0.0,0.0,0.0,0.0,0.0,0.0,-0.8119,-0.8203,-0.8094,-0.7997,-0.7753,-0.7376,-0.6944,-0.6693,0.0,0.0,0.0,0.0,0.0,0.0,0.0,0.0,0.0,0.0,0.0,0.0,0.0,0.0,0.0,0.0,0.0,0.0,0.0,0.0,0.0,0.0,0.0,0.0,0.0,0.0,0.1841,0.0,0.4396,0.4448,0.4049,0.3728,0.3137,0.0,0.3057,0.28,0.2819,0.3807,0.4456,0.4877,0.5013,0.0,0.0,0.0,0.0,0.0,0.0,0.0,0.0,0.0,0.0,0.0,0.0,0.0,0.0,0.0,1.8922,1.8545,1.8266,1.7331,1.6531,1.5807,1.5029,1.4258,1.3564,1.3499,1.3492,1.3492,1.3492,0.0,0.0,0.0,0.0,0.0,0.9916,0.9846,0.9868,1.018,1.0126,0.99,1.0359,1.0611,1.0643,0.0,0.0,0.0,0.0,0.0,0.0,0.0,0.0,0.0,0.0,-0.5394,-0.5832,-0.6394,-0.6476,-0.6722,0.0,0.0,0.0,0.0,0.0,0.0,0.0,0.0,0.0,0.0,-0.7911,-0.7884,-0.8094,-0.7621,-0.7331,-0.7235,-0.6566,-0.6236,-0.6201,-0.5786,0.0,0.0,0.0,0.0,0.0,0.0,0.0,0.0,0.0,0.0,0.0,0.0,0.0,0.0,0.0,0.0,0.0,0.0,0.0,0.0,0.0,-0.1692,-0.0972,-0.0248,0.0,0.2754,0.3013,0.3331,0.35,0.0,0.2811,0.2659,0.3285,0.3038,0.3163,0.4563,0.4487,0.4886,0.0,0.0,0.0,0.0,0.0,0.0,0.0,0.0,0.0,0.0,0.0,0.0,0.0,0.0,0.0,0.0,1.84,1.798,1.7791,1.7091,1.6722,1.6645,1.5313,1.4537,1.4322,1.3775,1.3492,1.3492,1.3492,0.0,0.0,0.0,0.0,1.0513,1.0067,0.9695,0.9478,0.9834,0.9748,0.9509,1.011,1.0374,1.0406,0.0,0.0,0.0,0.0,0.0,0.0,0.0,0.0,0.0,0.0,0.0,0.0,0.0,0.0,0.0,0.0,0.0,0.0,0.0,0.0,0.0,0.0,0.0,0.0,-0.7796,-0.7635,-0.7605,-0.768,-0.7453,-0.7173,-0.6865,-0.6527,-0.6213,-0.5895,-0.5453,0.0,0.0,0.0,0.0,0.0,0.0,0.0,0.0,0.0,0.0,0.0,-0.3245,-0.3031,0.0,-0.2794,-0.2729,-0.2621,0.0,0.0,0.0,0.0,-0.1201,-0.0688,-0.0089,0.0844,0.1799,0.2439,0.2653,0.2786,0.3046,0.2838,0.2768,0.3379,0.0,0.0,0.0,0.0,0.0,0.0,0.0,0.0,0.0,0.0,0.0,0.0,0.0,0.0,0.0,0.0,0.0,0.0,0.0,0.0,0.0,1.8059,1.7651,1.7719,1.69,1.6411,1.6312,1.566,1.4985,1.43,1.4117,1.384,1.3492,1.3492,1.3193,0.0,0.0,0.0,1.0738,1.0143,0.9771,0.962,0.9846,0.9771,0.964,0.9996,1.0196,1.0309,0.0,0.0,0.0,0.0,0.0,0.0,0.0,0.0,0.0,0.0,0.0,0.0,0.0,0.0,0.0,0.0,0.0,0.0,0.0,0.0,0.0,0.0,0.0,-0.7107,-0.7171,-0.7329,-0.7345,-0.7171,-0.7298,-0.7061,-0.651,-0.654,-0.6195,-0.5555,-0.5205,-0.501,0.0,0.0,0.0,0.0,0.0,0.0,0.0,0.0,0.0,0.0,0.0,0.0,0.0,-0.2686,-0.2577,-0.2381,-0.1993,0.0,0.0,0.0,0.0,0.0,0.0539,0.0727,0.1108,0.2377,0.2372,0.2252,0.3127,0.0,0.0,0.0,0.0,0.0,0.0,0.0,0.0,0.0,0.0,0.0,0.0,0.0,0.0,0.0,0.0,0.0,0.0,0.0,0.0,0.0,0.0,0.0,0.0,1.7875,1.7387,1.7802,1.6595,1.5888,1.5541,1.5936,1.5525,1.4368,1.4598,1.4347,1.371,1.371,1.3339,0.0,0.0,0.0,1.0887,1.0293,0.9992,0.9922,0.9922,0.9922,0.9922,0.9922,1.0056,1.0245,0.0,0.0,0.0,0.0,0.0,0.0,0.0,0.0,0.0,0.0,0.0,0.0,0.0,0.0,0.0,0.0,0.0,0.0,0.0,0.0,0.0,0.0,-0.6944,-0.7009,-0.7026,-0.7058,-0.7058,-0.7026,-0.6781,-0.6613,-0.6493,-0.6058,-0.5518,-0.4941,-0.4872,-0.4803,-0.4745,0.0,0.0,0.0,0.0,0.0,0.0,0.0,0.0,0.0,0.0,0.0,0.0,-0.221,-0.2188,-0.2118,-0.1891,0.0,0.0,0.0,0.0,0.0,0.0836,0.1752,0.2626,0.2697,0.2681,0.2855,0.3607,0.3677,0.0,0.0,0.0,0.0,0.0,0.0,0.0,0.0,0.0,0.0,0.0,0.0,0.0,0.0,0.0,0.0,0.0,0.0,0.0,0.0,0.0,0.0,0.0,1.7875,1.7234,1.7311,1.6128,1.5478,1.5428,1.5575,1.5731,1.5847,1.5308,1.4813,1.4466,1.4466,1.4042,0.0,0.0,1.215,1.1484,1.0887,1.0368,0.9922,0.9922,0.9922,0.9922,0.9922,0.9943,1.0008,0.0,0.0,0.0,0.0,0.0,0.0,0.0,0.0,0.0,0.0,0.0,0.0,0.0,0.0,0.0,0.0,0.0,0.0,0.0,0.0,0.0,-0.6794,-0.6621,-0.6557,-0.6676,-0.6668,-0.66,-0.6458,-0.6411,-0.6289,-0.6058,-0.5593,-0.5175,-0.4805,-0.4803,-0.4664,-0.4443,0.0,0.0,0.0,0.0,0.0,0.0,0.0,0.0,0.0,0.0,0.0,0.0,0.0,-0.1781,-0.1692,-0.1156,0.0,0.0,0.0,0.0,0.0,0.1448,0.2459,0.3489,0.3942,0.4309,0.462,0.4787,0.5508,0.0,0.0,0.0,0.0,0.0,0.0,0.0,0.0,0.0,0.0,0.0,0.0,0.0,0.0,0.0,0.0,0.0,0.0,0.0,0.0,0.0,0.0,0.0,0.0,1.7534,1.7202,1.6368,1.5748,1.541,1.5441,1.5461,1.5487,1.5444,1.5109,1.4542,1.4383,1.4057,1.3727,0.0,1.2452,1.2077,1.1186,1.0663,1.0368,0.9992,0.9922,0.9922,0.9922,0.9922,0.9938,0.0,0.0,0.0,0.0,0.0,0.0,0.0,0.0,0.0,0.0,0.0,0.0,0.0,0.0,0.0,0.0,0.0,0.0,0.0,0.0,-0.6028,-0.646,-0.6212,-0.6159,-0.6348,-0.6306,-0.6183,-0.5954,-0.6112,-0.5968,-0.5555,-0.5136,-0.4824,-0.4569,-0.4575,-0.4382,-0.4055,-0.4252,0.0,0.0,0.0,0.0,0.0,0.0,0.0,0.0,0.0,0.0,0.0,0.0,0.0,0.0,0.0,0.0,0.0,0.0469,0.0936,0.1427,0.216,0.3147,0.4207,0.5102,0.5578,0.5942,0.6362,0.7377,0.0,0.0,0.0,0.0,0.0,0.0,0.0,0.0,0.0,0.0,0.0,0.0,0.0,0.0,0.0,0.0,0.0,0.0,0.0,0.0,0.0,0.0,0.0,0.0,1.7809,1.7202,1.6585,1.6026,1.541,1.541,1.5319,1.5189,1.5566,1.5387,1.4715,1.432,1.4082,1.397,1.3035,1.2684,1.2526,1.1484,1.0962,1.0738,1.0293,1.0143,1.0067,0.9916,0.9922,0.9922,0.0,0.0,0.0,0.0,0.0,0.0,0.0,0.0,0.0,0.0,0.0,0.0,0.0,0.0,0.0,0.0,0.0,0.0,0.0,0.0,-0.5773,-0.5524,-0.5821,-0.608,-0.6201,-0.6027,-0.5893,-0.5811,-0.5819,-0.5595,-0.5127,-0.4726,-0.4305,-0.3875,-0.3875,-0.3751,-0.3556,-0.3772,-0.3834,0.0,0.0,0.0,0.0,0.0,0.0,0.0,0.0,0.0,0.0,0.0,0.0,0.0,0.0,0.0,-0.0067,0.1079,0.1586,0.1949,0.2881,0.3951,0.4957,0.5595,0.5407,0.5772,0.8432,0.865,0.0,1.0884,0.0,0.0,0.0,0.0,0.0,0.0,0.0,0.0,0.0,0.0,0.0,0.0,0.0,0.0,0.0,0.0,0.0,0.0,0.0,0.0,0.0,0.0,0.0,1.7202,1.6585,1.6026,1.541,1.541,1.5625,1.5994,1.6033,1.5875,1.5477,1.4854,1.4321,1.3955,1.3304,1.2849,1.2526,1.1929,1.1335,1.0812,1.0738,1.0738,1.0663,1.0143,0.9922,0.9922,0.0,0.0,0.0,0.0,0.0,0.0,0.0,0.0,0.0,0.0,0.0,0.0,0.0,0.0,0.0,0.0,0.0,0.0,0.0,0.0,-0.4834,-0.5367,-0.5382,-0.5538,-0.5888,-0.5566,-0.5444,-0.556,-0.5349,-0.5146,-0.4971,-0.4515,-0.4211,-0.4032,-0.3875,-0.3612,-0.3323,-0.3521,-0.3542,-0.3408,0.0,0.0,0.0,0.0,0.0,0.0,0.0,0.0,0.0,0.0,-0.0333,0.0,0.0577,0.0863,0.1104,0.1564,0.1938,0.2367,0.2968,0.4679,0.6335,0.6592,0.7441,0.0,0.0,1.0318,1.1569,1.2307,1.3271,0.0,0.0,0.0,0.0,0.0,0.0,0.0,0.0,0.0,0.0,0.0,0.0,0.0,0.0,0.0,0.0,0.0,0.0,0.0,0.0,0.0,0.0,1.7809,1.7146,1.6585,1.5968,1.5584,1.5498,1.5654,1.5654,1.5623,1.5476,1.4612,1.4165,1.3934,1.3309,1.2933,1.2842,1.2444,1.2157,1.1855,1.1484,1.1335,1.126,1.0663,1.0438,1.0443,0.0,0.0,0.0,0.0,0.0,0.0,0.0,0.0,0.0,0.0,0.0,0.0,0.0,0.0,0.0,0.0,0.0,0.0,0.0,-0.374,-0.41,-0.4713,-0.4954,-0.5177,-0.5404,-0.5211,-0.5195,-0.5398,-0.5078,-0.4932,-0.4912,-0.4463,-0.4191,-0.4086,-0.3751,-0.3408,-0.3074,-0.3211,-0.319,-0.3052,-0.295,0.0,0.0,0.0,0.0,0.0,0.0,0.0,0.0,0.0,0.0399,0.0731,0.1353,0.1701,0.196,0.2246,0.2505,0.2853,0.3646,0.5159,0.6673,0.7439,0.0,0.0,1.0368,1.1992,1.356,1.41,1.46,0.0,0.0,0.0,0.0,0.0,0.0,0.0,0.0,0.0,0.0,0.0,0.0,0.0,0.0,0.0,0.0,0.0,0.0,0.0,0.0,0.0,0.0,0.0,1.7474,1.6938,1.6301,1.5911,1.5575,1.541,1.541,1.541,1.5362,1.4572,1.4089,1.3975,1.3302,1.2959,1.28,1.2444,1.2367,1.2396,1.189,1.1855,1.1929,1.1335,1.1111,1.1037,0.0,0.0,0.0,0.0,0.0,0.0,0.0,0.0,0.0,0.0,0.0,0.0,0.0,0.0,0.0,0.0,0.0,0.0,-0.27,-0.3436,-0.3709,-0.3311,-0.4514,-0.5062,-0.4811,-0.5005,-0.5195,-0.5398,-0.5127,-0.501,-0.499,-0.4515,-0.4155,-0.3874,-0.3402,-0.3052,-0.2794,-0.2794,-0.2794,-0.2794,-0.2864,-0.2649,0.0,0.0,0.0,0.0,0.0,0.0,0.0,0.0,0.1208,0.1269,0.2207,0.2332,0.2302,0.3232,0.3319,0.3465,0.5054,0.536,0.5783,0.0,0.0,0.0,1.2601,1.3592,1.4466,1.6389,0.0,1.5655,0.0,0.0,0.0,0.0,0.0,0.0,0.0,0.0,0.0,0.0,0.0,0.0,0.0,0.0,0.0,0.0,0.0,0.0,0.0,0.0,0.0,0.0,1.7283,1.6979,1.6291,1.6301,1.5958,1.54,1.541,1.541,1.5352,1.4765,1.4326,1.3941,1.3299,1.2787,1.2451,1.1826,1.1798,1.2097,1.1812,1.207,1.2519,1.1929,1.1706,1.1706,0.0,0.0,0.0,0.0,0.0,0.0,0.0,0.0,0.0,0.0,0.0,0.0,0.0,0.0,0.0,0.0,0.0,0.0,-0.2491,-0.2716,-0.2989,-0.3289,-0.4016,-0.4543,-0.4794,-0.5268,-0.5415,-0.5195,-0.5117,-0.5127,-0.5204,-0.4587,-0.4244,-0.4086,-0.3521,-0.3089,-0.2794,-0.2642,-0.2507,-0.2372,-0.2285,-0.211,0.0,0.0,0.0,0.0,0.0,0.0,0.0,0.0,0.0,0.0,0.209,0.2612,0.3163,0.3591,0.3661,0.3785,0.4683,0.6138,0.0,0.8748,0.0,0.0,0.0,1.4468,0.0,0.0,0.0,0.0,0.0,0.0,0.0,0.0,0.0,0.0,0.0,0.0,0.0,0.0,0.0,0.0,0.0,0.0,0.0,0.0,0.0,0.0,0.0,0.0,0.0,0.0,1.697,1.6633,1.6458,1.5997,1.5669,1.5457,1.5436,1.541,1.5352,1.4765,1.4474,1.43,1.3375,1.2971,1.2829,1.2416,1.2298,1.2391,1.2276,1.2522,1.2792,1.2206,1.2124,1.2305,0.0,0.0,0.0,0.0,0.0,0.0,0.0,0.0,0.0,0.0,0.0,0.0,0.0,0.0,0.0,0.0,0.0,0.0,0.0,0.0,-0.265,-0.3229,-0.3834,-0.4429,-0.5055,-0.5266,-0.5272,-0.5136,-0.5266,-0.5385,-0.544,-0.4776,-0.4446,-0.4357,-0.3619,-0.319,0.0,0.0,-0.2376,-0.2198,-0.2048,-0.1872,-0.167,0.0,0.0,0.0,0.0,0.0,0.0,0.0,0.0,0.0,0.2345,0.2981,0.3591,0.4025,0.4208,0.4509,0.5592,0.7068,0.0,1.0044,1.1899,1.3794,1.541,0.0,0.0,0.0,0.0,0.0,0.0,0.0,0.0,0.0,0.0,0.0,0.0,0.0,0.0,0.0,0.0,0.0,0.0,0.0,0.0,0.0,0.0,0.0,0.0,0.0,0.0,0.0,1.6751,1.6541,1.6489,1.5899,1.552,1.5273,1.5177,1.5156,1.5166,1.4925,1.4706,1.4419,1.3293,1.283,1.279,1.2445,1.2328,1.2343,1.2475,1.2643,1.2764,1.253,1.2628,1.2732,0.0,0.0,0.0,0.0,0.0,0.0,0.0,0.0,0.0,0.0,0.0,0.0,0.0,0.0,0.0,0.0,0.0,0.0,0.0,0.0,-0.2609,-0.3109,-0.3803,-0.4602,-0.5472,-0.5051,-0.4964,-0.5242,-0.5507,-0.5621,-0.5639,-0.5001,-0.4695,-0.4646,-0.3702,-0.3296,0.0,0.0,-0.2376,-0.2172,-0.2052,-0.1872,-0.1645,-0.1463,0.0,0.0,0.0,0.0,0.0,0.0,0.0,0.0,0.2762,0.3319,0.3695,0.4492,0.4875,0.5432,0.7185,0.0,0.0,1.1575,1.2733,0.0,1.6103,0.0,0.0,0.0,0.0,0.0,0.0,0.0,0.0,0.0,0.0,0.0,0.0,0.0,0.0,0.0,0.0,0.0,0.0,0.0,0.0,0.0,0.0,0.0,0.0,0.0,0.0,1.658,1.6558,1.6492,1.6451,1.5998,1.5461,0.0,1.4839,1.4782,1.4746,1.5205,1.5059,1.441,1.3122,1.2573,1.2474,1.2116,1.1992,1.2021,1.2321,1.2453,1.2511,1.2811,1.2958,1.3045,0.0,0.0,0.0,0.0,0.0,0.0,0.0,0.0,0.0,0.0,0.0,0.0,0.0,0.0,0.0,0.0,0.0,0.0,0.0,0.0,-0.234,-0.2562,-0.3574,-0.4549,-0.5472,-0.519,-0.5216,-0.5588,-0.5187,-0.5099,-0.531,-0.4952,-0.4704,-0.4507,-0.3668,-0.3211,-0.3041,-0.2664,-0.2315,-0.2052,-0.2008,-0.1787,-0.1444,-0.1368,-0.1351,0.0,0.0,0.0,0.0,0.0,0.0,0.0,0.2319,0.3183,0.4022,0.4738,0.5184,0.5748,0.7046,0.8215,0.0,0.0,1.4123,1.6038,0.0,0.0,0.0,0.0,0.0,0.0,0.0,0.0,0.0,0.0,0.0,0.0,0.0,0.0,0.0,0.0,0.0,0.0,0.0,0.0,0.0,0.0,0.0,0.0,0.0,0.0,0.0,1.6523,1.6171,1.5975,1.5934,1.5808,1.547,0.0,1.4894,1.4643,1.4297,1.5068,1.5059,1.4469,1.3623,1.3009,1.2458,1.1939,1.1663,1.167,1.1743,1.1919,1.2145,1.2219,1.257,1.3016,0.0,0.0,0.0,0.0,0.0,0.0,0.0,0.0,0.0,0.0,0.0,0.0,0.0,0.0,0.0,0.0,0.0,0.0,0.0,0.0,-0.2339,-0.2763,-0.3631,-0.4326,-0.4815,-0.4468,-0.4517,-0.4986,-0.4638,-0.4792,-0.5421,-0.5001,-0.4704,-0.4515,-0.3751,-0.3269,-0.3014,-0.261,-0.2316,-0.2084,-0.1896,-0.1658,-0.1444,-0.1337,-0.1293,-0.1284,-0.112,0.0,0.0,0.0,0.0,0.0,0.0,0.0,0.3859,0.4845,0.5404,0.5952,0.708,0.0,0.0,1.2871,0.0,0.0,0.0,0.0,0.0,0.0,0.0,0.0,0.0,0.0,0.0,0.0,0.0,0.0,0.0,0.0,0.0,0.0,0.0,0.0,0.0,0.0,0.0,0.0,0.0,0.0,0.0,1.7434,1.6976,1.6522,1.6044,1.5792,1.5792,1.5544,1.53,1.5029,1.4718,1.4397,1.4107,1.4814,1.5052,1.4883,1.3923,1.3321,1.2887,1.1988,1.1622,1.1622,1.1622,1.1663,1.1823,1.1977,1.2248,1.2584,0.0,0.0,0.0,0.0,0.0,0.0,0.0,0.0,0.0,0.0,0.0,0.0,0.0,0.0,0.0,0.0,0.0,0.0,0.0,-0.1924,-0.2434,-0.3155,-0.3682,-0.4002,-0.4092,-0.3615,-0.3661,-0.4254,-0.4026,-0.4476,0.0,0.0,-0.4684,-0.4463,-0.3772,-0.3311,-0.3008,-0.2525,-0.2258,-0.2088,-0.1713,-0.1501,-0.141,-0.1292,-0.1221,-0.1134,-0.0819,-0.065,-0.0519,-0.0137,0.0,0.0,0.0,0.0,0.3612,0.4884,0.5555,0.6089,0.725,0.0,1.1085,1.3997,1.5391,0.0,0.0,0.0,0.0,0.0,0.0,0.0,0.0,0.0,0.0,0.0,0.0,0.0,0.0,0.0,0.0,0.0,0.0,0.0,0.0,0.0,0.0,0.0,0.0,0.0,1.7922,1.7516,1.7102,1.665,1.6262,1.5957,1.5792,1.5513,1.5232,1.5074,1.4419,1.4053,1.398,1.4394,1.4834,1.5245,1.4064,1.3631,1.3563,1.229,1.174,1.174,1.1622,1.1622,1.1659,1.186,1.1984,1.2109,0.0,0.0,0.0,0.0,0.0,0.0,0.0,0.0,0.0,0.0,0.0,-0.1086,-0.106,-0.1108,0.0,0.0,0.0,0.0,-0.1583,0.0,0.0,-0.3087,-0.3299,-0.362,-0.4084,-0.3525,-0.3627,-0.4464,-0.3639,0.0,0.0,0.0,0.0,-0.4053,0.0,0.0,-0.2799,0.0,-0.1981,-0.183,-0.1481,-0.1265,-0.1149,-0.1063,-0.1072,-0.1071,-0.0793,-0.0436,-0.0087,-0.0019,0.0312,0.0,0.0,0.0,0.0,0.4817,0.5571,0.6319,0.0,0.0,1.2013,0.0,1.5069,1.5509,0.0,0.0,0.0,0.0,0.0,0.0,0.0,0.0,0.0,0.0,0.0,0.0,0.0,0.0,0.0,0.0,0.0,0.0,0.0,0.0,0.0,0.0,0.0,0.0,1.84,1.7962,1.7516,1.7115,1.7031,1.6595,1.5792,1.6132,1.5901,1.5108,1.4146,1.3658,1.3594,1.3652,1.4111,1.4817,1.4118,1.3965,1.4282,1.294,1.2389,1.2336,1.1802,1.1622,1.163,1.1611,1.1794,1.1978,0.0,0.0,0.0,0.0,0.0,0.0,0.0,0.0,0.0,0.0,0.0,-0.0911,-0.0995,-0.1027,0.0,0.0,0.0,0.0,-0.1583,-0.1764,0.0,0.0,-0.2677,-0.2884,-0.3192,-0.2948,-0.307,-0.3607,0.0,0.0,0.0,-0.3815,-0.3839,0.0,0.0,0.0,0.0,0.0,0.0,-0.1768,-0.1318,-0.1168,-0.1189,-0.1049,-0.0942,-0.0861,-0.0744,-0.0057,0.0,0.0,0.0,0.0,0.0,0.0,0.0,0.0,0.5221,0.0,0.765,0.9498,1.1358,0.0,1.4289,1.5502,0.0,0.0,0.0,0.0,0.0,0.0,0.0,0.0,0.0,0.0,0.0,0.0,0.0,0.0,0.0,0.0,0.0,0.0,0.0,0.0,0.0,0.0,0.0,1.8517,1.8517,1.8042,1.772,1.7557,1.7323,1.6863,1.6219,1.6392,1.6032,1.5108,1.464,1.4142,1.3579,1.3579,1.386,1.436,1.3756,1.3579,1.3705,1.2982,1.2712,1.2677,1.2265,1.2097,1.2035,1.174,1.1648,1.1794,0.0,0.0,0.0,0.0,0.0,0.0,0.0,0.0,0.0,0.0,0.0,0.0,-0.0911,0.0,0.0,0.0,0.0,0.0,-0.1502,0.0,0.0,0.0,0.0,-0.2263,-0.2421,-0.2392,-0.2542,-0.2882,0.0,0.0,-0.2935,-0.2771,-0.2918,0.0,-0.3008,-0.2757,0.0,0.0,0.0,0.0,-0.1196,-0.1084,-0.1198,-0.0994,-0.0708,-0.0392,-0.0222,0.0,0.0,0.0,0.0,0.0,0.0,0.0,0.0,0.0,0.0,0.0,0.0,0.0,1.0229,1.1264,1.318,1.4876,0.0,0.0,0.0,0.0,0.0,0.0,0.0,0.0,0.0,0.0,0.0,0.0,0.0,0.0,0.0,0.0,0.0,0.0,0.0,0.0,0.0,0.0,0.0,1.8054,1.8054,1.7871,1.769,1.7571,1.7518,1.7199,1.6522,1.6392,1.5988,1.5277,1.5153,1.4593,1.3621,1.3621,1.3689,1.3776,1.3449,1.3338,1.3405,1.3093,1.2989,1.2958,1.2677,1.2506,1.2332,1.195,1.174,1.1659,0.0,0.0,0.0,0.0,0.0,0.0,0.0,0.0,0.0,0.0,0.0,0.0,0.0,0.0,0.0,0.0,0.0,0.0,0.0,0.0,0.0,0.0,0.0,0.0,-0.2215,-0.2084,-0.2289,0.0,0.0,0.0,-0.2518,-0.1886,-0.1829,-0.228,-0.245,-0.2524,-0.2454,0.0,0.0,0.0,0.0,-0.1007,-0.0995,-0.0788,-0.0283,0.0433,0.0,0.0,0.0,0.0,0.0,0.0,0.0,0.0,0.0,0.0,0.0,0.0,0.0,0.8068,0.0,1.0387,0.0,0.0,0.0,0.0,0.0,0.0,0.0,0.0,0.0,0.0,0.0,0.0,0.0,0.0,0.0,0.0,0.0,0.0,0.0,0.0,0.0,0.0,0.0,0.0,0.0,1.6775,1.6775,1.7301,1.7408,1.6962,1.7924,1.7814,1.6522,1.6044,1.5824,1.5744,1.5322,1.4593,1.3621,1.3621,1.3364,1.2969,1.3319,1.3717,1.4024,1.3405,1.3195,1.3177,1.2949,1.2505,1.1949,1.2332,1.2097,1.163,0.0,0.0,0.0,0.0,0.0,0.0,0.0,0.0,0.0,0.0,0.0,0.0,0.0,-0.0718,-0.0729,-0.0706,0.0,0.0,0.0,0.0,0.0,0.0,0.0,0.0,0.0,-0.1979,0.0,0.0,0.0,-0.1631,-0.1725,-0.1442,-0.1253,-0.1198,-0.1752,-0.2132,-0.2311,-0.1386,0.0,0.0,0.0,0.0,0.0,-0.0017,0.0246,0.0739,0.0,0.0,0.0,0.0,0.0,0.0,0.0,0.2454,0.2831,0.3943,0.4956,0.0,0.0,0.0,0.0,0.9141,0.0,0.0,0.0,0.0,0.0,0.0,0.0,0.0,0.0,0.0,0.0,0.0,0.0,0.0,0.0,0.0,0.0,0.0,0.0,0.0,0.0,0.0,0.0,0.0,0.0,0.0,1.6691,1.6888,1.6942,1.6784,1.7152,1.717,1.6744,1.6712,1.6552,1.625,1.6076,1.549,1.4547,1.4212,1.38,1.3354,1.3185,1.3193,1.335,1.3365,1.3418,1.3351,1.3168,1.3072,1.3061,1.2856,1.251,1.2158,0.0,0.0,0.0,0.0,0.0,0.0,0.0,0.0,0.0,-0.0593,0.0,0.0,0.0,0.0,-0.067,-0.0604,-0.0659,-0.0759,-0.0893,0.0,0.0,0.0,0.0,0.0,0.0,0.0,0.0,0.0,0.0,0.0,0.0,-0.1066,-0.079,-0.0491,-0.0889,-0.1244,0.0,0.0,0.0,-0.0921,0.0,0.0,0.0307,0.0,0.0962,0.0,0.0,0.0,0.0,0.0,0.0,0.0,0.0,0.2826,0.3283,0.4147,0.4891,0.0,0.6118,0.0,0.0,0.0,0.0,0.0,0.0,0.0,0.0,0.0,0.0,0.0,0.0,0.0,0.0,0.0,0.0,0.0,0.0,0.0,0.0,0.0,0.0,0.0,0.0,0.0,0.0,0.0,0.0,0.0,1.6059,1.6255,1.6466,1.6677,1.6536,1.6669,1.715,1.6943,1.6866,1.6934,1.6827,1.6247,1.5322,1.4981,1.4363,1.3563,1.3248,1.3065,1.29,1.3184,1.3301,1.3289,1.3289,1.334,1.3322,1.3261,1.2982,1.2663,0.0,0.0,0.0,0.0,0.0,0.0,0.0,0.0,-0.0089,-0.0357,0.0,0.0,0.0,0.0,0.0,-0.0405,-0.0575,-0.0695,-0.0704,-0.0882,0.0,0.0,0.0,0.0,0.0,0.0,0.0,0.0,0.0,0.0,0.0,0.0,-0.0408,-0.0195,0.0088,0.0094,-0.0066,0.0,0.0044,0.0044,0.0,0.0067,0.0225,0.0,0.0,0.0,0.3401,0.3727,0.0,0.0,0.0,0.0,0.0,0.3832,0.4163,0.4501,0.4933,0.5396,0.0,0.0,0.0,0.0,0.0,0.0,0.0,0.0,0.0,0.0,0.0,0.0,0.0,0.0,0.0,0.0,0.0,0.0,0.0,0.0,0.0,0.0,0.0,0.0,0.0,0.0,0.0,0.0,0.0,1.5086,1.4808,1.537,1.5974,1.6607,1.6217,1.6469,1.7534,1.6675,1.6731,1.7774,1.7462,1.6789,1.5836,1.5881,1.5096,1.3678,1.3621,1.3344,1.2929,1.2929,1.2881,1.292,1.333,1.3077,1.265,1.3478,1.3438,1.2997,0.0,0.0,0.0,0.0,0.0,0.0,0.0,0.0,-0.0022,0.0,0.0,0.0,-0.0658,-0.0695,-0.0541,-0.0145,-0.0343,-0.0542,-0.0695,-0.0748,-0.0826,-0.0929,-0.0918,-0.1002,-0.1205,-0.1421,-0.1577,-0.1679,-0.1614,-0.1565,-0.1499,-0.0973,-0.0562,-0.0261,0.0051,0.0382,0.07,0.0912,0.0,0.0,0.1005,0.145,0.0,0.0,0.0,0.0,0.0,0.5159,0.5094,0.0,0.5474,0.4806,0.0,0.0,0.4256,0.4365,0.489,0.5526,0.595,0.0,0.0,0.0,0.0,0.0,0.0,0.0,0.0,0.0,0.0,0.0,0.0,0.0,0.0,0.0,0.0,0.0,0.0,0.0,0.0,0.0,0.0,0.0,0.0,0.0,0.0,0.0,1.5328,1.5086,1.4808,1.4963,1.5145,1.5314,1.5616,1.5923,1.6207,1.6429,1.677,1.7151,1.7037,1.698,1.6863,1.617,1.5602,1.5199,1.4457,1.3847,1.3392,1.3017,1.2881,1.2891,1.3008,1.3142,1.3269,1.3509,1.3411,1.3164,0.0,0.0,0.0,0.0,0.0,0.0454,0.0054,0.0,0.0,0.0,0.0,0.0,-0.0382,-0.0407,-0.0296,-0.0028,-0.014,-0.0368,-0.0678,-0.0706,-0.0729,-0.0796,-0.0848,-0.0933,-0.1053,-0.1297,-0.1459,-0.1555,-0.1592,-0.1626,-0.1635,-0.1297,-0.09,-0.0461,-0.0234,0.0214,0.0813,0.0,0.0,0.0,0.216,0.0,0.0,0.458,0.4902,0.0,0.0,0.0,0.6398,0.708,0.6606,0.0,0.0,0.4799,0.4739,0.4885,0.5268,0.0,0.6088,0.0,0.0,0.0,0.0,0.0,0.0,0.0,0.0,0.0,0.0,0.0,0.0,0.0,0.0,0.0,0.0,0.0,0.0,0.0,0.0,0.0,0.0,0.0,0.0,0.0,0.0,1.5668,1.5566,1.5328,1.4994,1.4871,1.4808,1.4808,1.5145,1.5469,1.5688,1.6101,1.6577,1.7202,1.7204,1.7316,1.7497,1.6754,1.6218,1.5788,1.4982,1.4351,1.3894,1.3621,1.3248,1.2929,1.3113,1.3214,1.3271,1.3447,1.3403,1.3406,0.0,0.0,0.1185,0.1341,0.1391,0.1108,0.0248,0.0101,0.0067,0.0,0.0,0.0,0.0,0.0,0.0,0.0,0.0,-0.0175,-0.0592,-0.0667,-0.0729,-0.0784,-0.09,-0.0973,-0.0973,-0.1166,-0.134,-0.1496,-0.1507,-0.1581,-0.1723,-0.1641,-0.1321,-0.0806,-0.0669,-0.0234,0.043,0.0,0.0,0.2404,0.3277,0.425,0.0,0.0,0.6184,0.0,0.7355,0.7664,0.7712,0.8214,0.7576,0.0,0.0,0.6122,0.5588,0.5782,0.5937,0.0,0.6349,0.6606,0.0,0.0,0.0,0.0,0.8099,0.8875,0.0,0.0,0.0,0.0,0.0,0.0,0.0,0.0,0.0,0.0,0.0,0.0,0.0,0.0,0.0,0.0,0.0,1.6176,1.6111,1.5928,1.5842,1.5624,1.5208,1.4963,1.4808,1.4808,1.4808,1.5075,1.5576,1.559,1.6213,1.7393,1.7523,1.7666,1.7774,1.7493,1.6866,1.6005,1.548,1.496,1.4479,1.449,1.3894,1.3113,1.3525,1.343,1.3115,1.3401,1.3529,1.3547,0.0,0.1291,0.13,0.1178,0.1293,0.128,0.094,0.0708,0.0421,0.005,0.0,0.0,0.0,0.0,0.0,0.0,0.0,-0.0046,-0.0135,-0.0492,-0.0706,-0.0718,-0.0748,-0.0781,-0.084,-0.0987,-0.1205,-0.1496,-0.1555,-0.1679,-0.1858,-0.1679,-0.1563,-0.148,-0.0925,-0.048,-0.0102,0.0,0.0,0.3123,0.3644,0.0,0.5644,0.687,0.7718,0.8357,0.9136,0.9537,0.9642,0.0,0.8633,0.797,0.0,0.0,0.0,0.6245,0.0,0.7515,0.7259,0.7568,0.7908,0.7634,0.0,0.0,0.0,0.8602,0.0,0.0,0.0,0.0,0.0,0.0,0.0,0.0,0.0,0.0,0.0,0.0,0.0,0.0,0.0,0.0,0.0,1.5964,1.6111,1.5928,1.5536,1.5313,1.5208,1.4963,1.4808,1.4808,1.4808,1.4864,1.4977,1.4991,1.5356,1.6101,1.6627,1.7198,1.772,1.7705,1.7652,1.7547,1.661,1.5932,1.5522,1.5501,1.4903,1.4025,1.4118,1.4118,1.3988,1.3714,1.3562,1.3575,0.0,0.1436,0.1537,0.1511,0.1591,0.1555,0.13,0.1017,0.0822,0.0705,0.0294,0.0,0.0,0.0,0.0,0.0,0.0,0.0,0.0,-0.0222,-0.0413,-0.055,-0.0648,-0.0718,-0.0751,-0.0848,-0.1009,-0.1244,-0.1453,-0.1619,-0.1753,-0.1647,-0.1655,-0.1726,-0.1194,-0.0838,-0.0618,0.0,0.1233,0.2922,0.4266,0.0,0.6842,0.8262,0.911,0.9612,0.997,1.0273,1.0354,0.9407,0.9017,0.0,0.0,0.7588,0.7625,0.0,0.7193,0.7653,0.7461,0.7606,0.792,0.8234,0.0,0.0,0.0,0.0,0.8767,0.0,0.0,0.0,0.0,0.0,0.0,0.0,0.0,0.0,0.0,0.0,0.0,0.0,0.0,0.0,0.0,1.5428,1.5814,1.6039,1.5741,1.5477,1.5344,1.5178,1.4963,1.4808,1.4839,1.4839,1.4808,1.4808,1.5103,1.5688,1.6045,1.6703,1.7642,1.7433,1.7558,1.7858,1.7148,1.6723,1.6497,1.625,1.5856,1.5344,1.4858,1.4536,1.4258,1.4025,1.3931,1.3926,0.0,0.1665,0.1829,0.1883,0.1992,0.1896,0.1471,0.1289,0.125,0.1388,0.0739,0.0224,0.0134,0.0045,0.0,0.0,0.0,0.0,0.0,0.0,-0.0097,-0.0308,-0.0477,-0.061,-0.0692,-0.0751,-0.0837,-0.094,-0.1255,-0.1453,-0.1545,-0.1583,-0.1645,-0.1695,-0.1432,0.0,0.0,0.0,0.0,0.3071,0.0,0.645,0.7671,0.9193,0.9906,1.0128,1.043,1.0678,1.0719,0.9747,0.0,0.9328,0.8657,0.8445,0.0,0.0,0.0,0.0,0.0,0.0,0.0,0.0,0.0,0.8447,0.0,0.0,0.0,0.8773,0.0,0.0,0.0,0.0,0.0,0.0,0.0,0.0,0.0,0.0,0.0,0.0,0.0,0.0,0.0,1.4528,1.5098,1.5749,1.5497,1.5334,1.5373,1.5169,1.5018,1.4887,1.4871,1.4839,1.4808,1.4808,1.5047,1.552,1.5632,1.6255,1.7239,1.7092,1.7295,1.7758,1.7435,1.7323,1.7282,1.6808,1.6637,1.6552,1.5591,1.496,1.4582,1.449,1.4444,1.4444,0.1832,0.2017,0.2158,0.1933,0.2297,0.2345,0.1526,0.1683,0.1774,0.1452,0.1299,0.1074,0.0,0.0,0.0,0.0,0.0,0.0,0.0,0.0,-0.0016,-0.0048,-0.0073,-0.0273,-0.0685,-0.0712,-0.0723,-0.0737,-0.0947,-0.1158,-0.1336,-0.1523,-0.151,-0.1363,-0.1627,0.0,0.0,0.0,0.1618,0.0,0.5579,0.6067,0.0,0.8553,0.9307,0.9499,1.0869,1.1378,1.1363,0.0,1.06,1.0114,0.0,0.9484,0.0,0.0,0.0,0.0,0.0,0.0,0.0,0.0,0.9219,0.0,0.0,0.0,0.865,0.8152,0.0,0.0,0.0,0.0,0.0,0.0,0.0,0.0,0.0,0.0,0.0,0.0,0.0,0.0,0.0,0.0,1.3698,1.4375,1.3637,1.3655,1.4824,1.4469,1.4514,1.5133,1.4932,1.4808,1.4808,1.4808,1.4836,1.4921,1.5455,1.5792,1.5941,1.7012,1.7558,1.7618,1.769,1.772,1.772,1.7269,1.7115,1.7031,1.6088,1.5703,1.5558,1.5153,1.5017,1.4915,0.2155,0.2372,0.2666,0.2358,0.2693,0.2837,0.2402,0.2503,0.2425,0.1832,0.1545,0.0,0.0,0.0,0.0,0.0,0.0,0.1336,0.0,0.0,0.0,0.0,0.0,-0.0091,-0.0294,-0.0449,-0.0588,-0.0698,-0.0783,-0.0868,-0.0954,-0.1238,-0.1472,-0.1647,-0.1475,0.0,-0.178,0.0,0.0,0.0,0.0,0.0,0.0,0.908,1.016,1.0422,1.1402,1.1725,1.1665,0.0,1.0958,0.0,0.0,0.0,0.0,0.0,0.0,0.0,0.0,0.0,0.0,0.0,0.0,0.0,0.0,0.0,0.8165,0.0,0.0,0.0,0.0,0.0,0.0,0.0,0.0,0.0,0.0,0.0,0.0,0.0,0.0,0.0,0.0,0.0,0.0,0.0,0.0,1.3379,1.4175,1.4328,1.4442,1.4572,1.4797,1.4873,1.4808,1.4839,1.4839,1.4808,1.5075,1.537,1.5716,1.6663,1.7267,1.7632,1.8043,1.8214,1.8175,1.772,1.7557,1.7475,1.685,1.6436,1.6132,1.5691,1.5525,1.5468,0.3078,0.0,0.0,0.0,0.3191,0.329,0.3078,0.3011,0.2762,0.2228,0.0,0.0,0.1955,0.1837,0.0,0.0,0.0,0.2661,0.0,0.0,0.0241,0.0385,0.0142,0.0,0.0,-0.0195,-0.036,-0.0514,-0.0579,-0.0706,-0.0873,-0.111,-0.1428,-0.1773,-0.1285,-0.1151,-0.1287,0.0,0.0,0.2422,0.802,0.9232,0.7934,0.9721,1.0768,1.1362,1.1753,1.194,1.1942,1.1532,1.1373,0.0,1.0757,0.0,0.0,0.0,0.0,0.0,0.9705,0.0,0.0,0.0,0.0,0.0,0.0,0.0,0.0,0.0,0.0,0.0,0.0,0.0,0.0,0.0,0.0,0.0,0.0,0.0,0.0,0.0,0.0,0.0,0.0,0.0,0.0,0.0,0.0,0.0,1.3325,1.3844,1.4153,1.4212,1.4758,1.4966,1.4839,1.4871,1.4902,1.4932,1.4932,1.5142,1.5594,1.6231,1.6832,1.7393,1.7998,1.8363,1.8478,1.8135,1.8002,1.7962,1.7516,1.7144,1.6808,1.6219,1.6013,1.5957,0.4909,0.4557,0.0,0.0,0.0,0.3647,0.3247,0.2869,0.2616,0.0,0.0,0.0,0.0,0.0,0.0,0.0,0.0,0.3575,0.3141,0.0,0.0884,0.0,0.0,0.0,0.0,-0.0,-0.0016,-0.0028,-0.0278,-0.0707,-0.1287,-0.1289,-0.1374,-0.15,-0.1153,-0.0362,0.0703,0.0574,0.2399,0.556,0.8115,1.0131,1.1475,0.0,1.0523,1.179,1.1858,0.0,0.0,1.2178,1.2077,0.0,0.0,0.0,0.0,0.0,0.0,0.0,0.0,0.0,0.0,0.9738,0.0,0.0,0.0,0.0,0.9502,0.0,0.0,0.0,0.0,0.0,0.0,0.9077,0.0,0.0,0.0,0.0,0.0,0.0,0.0,0.0,0.0,0.0,0.0,0.0,0.0,0.0,1.2143,1.2629,1.3362,1.4449,1.4964,1.5086,1.4902,1.4839,1.4963,1.5283,1.5222,1.5192,1.5235,1.5837,1.6336,1.6747,1.7365,1.7969,1.8517,1.8478,1.8478,1.8439,1.7962,1.7747,1.7666,1.6808,1.6479,1.6423,0.0,0.0,0.0,0.0,0.0,0.4837,0.4163,0.3865,0.0,0.0,0.0,0.0,0.0,0.0,0.4233,0.0,0.0,0.5202,0.4329,0.2848,0.0,0.0,0.0,0.0957,0.0,0.0,0.0,-0.0,-0.0095,-0.0237,-0.0458,-0.1174,-0.1101,-0.0327,0.0814,0.1574,0.0,0.0,0.0,0.0,0.0,1.0439,1.1652,0.0,0.0,1.2045,1.228,1.2498,0.0,1.2778,1.26,1.2309,1.2273,1.2072,1.1864,1.1764,1.1743,0.0,0.0,0.0,1.2732,1.1389,0.0,0.0,0.0,0.0,0.0,0.0,0.0,0.0,0.0,0.0,0.965,0.8977,0.8889,0.0,0.0,0.0,0.0,0.0,0.0,0.0,0.0,0.0,0.0,0.0,0.9827,0.0,0.0,1.2283,1.3124,1.3833,1.434,1.4671,1.4825,1.4871,1.5041,1.5374,1.5238,1.5328,1.5551,1.6062,1.6525,1.6935,1.7526,1.8092,1.8517,1.8517,1.8517,1.8478,1.8347,1.8254,1.8135,1.7269,1.6934,1.6947,0.7298,0.0,0.0,0.0,0.0,0.0,0.0,0.0,0.0,0.0,0.5722,0.0,0.654,0.0,0.5663,0.0,0.6141,0.592,0.4595,0.3863,0.0,0.3911,0.3415,0.0,0.0,0.0,0.0241,0.0246,0.0089,-0.0053,-0.0195,-0.0765,-0.038,0.0865,0.0,0.3083,0.3985,0.0,0.736,0.0,0.0,1.1201,0.0,0.0,1.202,1.222,0.0,1.2873,1.3,1.3175,1.309,1.2884,1.2911,1.2689,1.2455,1.2628,1.2629,1.2707,1.3257,1.3868,0.0,1.3041,1.2895,0.0,1.0129,0.0,0.0,0.0,0.0,0.0,0.0,0.0,0.0,0.9708,0.9238,0.0,0.0,0.0,0.0,0.0,0.0,0.0,0.0,0.0,0.8772,0.9193,0.0,0.0,0.0,0.0,1.2829,1.3572,1.4156,1.4674,1.5088,1.5102,1.5269,1.5624,1.5551,1.5624,1.5854,1.6144,1.6511,1.6899,1.7485,1.7956,1.8309,1.8521,1.8581,1.8517,1.8517,1.8517,1.84,1.7679,1.7323,1.7199,0.0,0.0,0.0,0.0,0.6269,0.0,0.0,0.0,0.6672,0.0,0.6987,0.7325,0.7834,0.7271,0.6757,0.6462,0.6452,0.0,0.4254,0.462,0.0,0.0,0.4526,0.4378,0.3109,0.0,0.0,0.0,0.0314,-0.0059,-0.0371,-0.0059,0.0787,0.0,0.2758,0.0,0.617,0.6455,0.7474,0.9063,1.1183,1.2392,1.2889,1.2926,1.2689,1.2411,1.2931,1.3124,1.3176,1.3427,1.3556,1.3573,1.3379,1.3346,1.348,1.398,1.4097,1.4242,1.4978,1.518,1.5077,1.4648,0.0,0.0,0.0,0.0,1.3585,0.0,0.0,0.0,0.0,0.0,0.0,1.1116,0.9857,0.0,0.0,0.0,0.0,0.0,0.0,0.0,0.0,0.0,0.803,0.7812,0.8498,0.0,0.0,0.0,1.2464,1.377,1.4416,1.5037,1.561,1.5551,1.5653,1.5996,1.6067,1.6095,1.6123,1.6095,1.6303,1.6635,1.7176,1.7602,1.7985,1.8639,1.876,1.8556,1.8517,1.8517,1.8439,1.8002,1.7598,1.7282,0.7841,0.8106,0.8188,0.0,0.7001,0.6415,0.0,0.0,0.0,0.0,0.8696,0.9394,1.0412,0.988,0.9125,0.8372,0.7729,0.0,0.0,0.0,0.0,0.5949,0.4958,0.4849,0.5767,0.3372,0.0,0.1731,0.0,0.0,0.128,0.1365,0.2415,0.0,0.0,0.0,0.6867,0.8268,0.9836,1.1442,1.2316,1.2732,0.0,0.0,1.3295,1.3141,1.3261,1.3412,1.3559,1.3573,1.365,1.3728,1.3573,1.392,1.4401,1.434,1.4834,1.5522,1.6071,1.6356,1.6465,1.6299,1.5877,1.5157,0.0,0.0,0.0,0.0,0.0,0.0,0.0,0.0,0.0,0.0,0.0,0.0,0.0,0.0,0.0,0.0,0.0,0.0,0.0,0.0,0.8267,0.7768,0.0,0.0,0.0,0.0,0.0,1.3755,1.398,1.4546,1.5536,1.5507,1.5682,1.6067,1.5998,1.6083,1.6316,1.6207,1.6376,1.6772,1.7399,1.7903,1.8308,1.9002,1.9228,1.9153,1.8874,1.8697,1.8478,1.8347,1.8268,1.8149,0.8495,0.0,0.0,0.9185,0.0,0.0,0.7615,0.0,0.0,0.939,0.9932,0.0,1.1447,1.124,1.0615,0.9642,0.8802,0.0,0.0,0.0,0.0,0.6206,0.5649,0.572,0.6525,0.4604,0.0,0.298,0.0,0.0,0.2619,0.3223,0.0,0.0,0.0,0.699,0.0,0.9515,1.1234,1.2685,1.3194,0.0,0.0,1.3713,1.3939,1.4106,1.4203,1.4251,1.4282,1.4329,1.4616,1.4912,1.4787,1.5052,1.5436,1.5497,1.5946,1.6521,1.7239,1.7544,1.7681,1.7722,1.7447,1.6834,1.5575,1.5923,1.6271,0.0,0.0,0.0,0.0,0.0,0.0,0.0,0.0,0.0,0.0,0.0,0.0,0.0,0.0,0.0,0.0,0.0,0.0,0.0,0.0,0.0,0.0,0.0,0.0,1.3494,1.3828,1.4565,1.5797,1.5812,1.5926,1.6123,1.6139,1.6207,1.6398,1.6316,1.6422,1.6693,1.7562,1.8037,1.8189,1.9194,1.9508,1.9376,1.9176,1.904,1.8889,1.8889,1.875,1.8517,0.0,0.0,0.0,0.0,0.0,0.0,0.0,0.9368,0.0,1.0928,0.0,1.1761,1.2174,1.2258,1.1891,1.0911,0.0,0.8744,0.6965,0.7002,0.6724,0.5888,0.6596,0.6836,0.6482,0.5672,0.0,0.0,0.0,0.0,0.3687,0.4999,0.0,0.0,0.0,0.0,0.0,1.0417,1.2072,0.0,1.3953,1.4264,1.4399,1.4399,1.474,1.5233,1.5389,1.5343,1.5182,1.5389,1.5862,1.6381,1.6269,1.6289,1.6466,1.6912,1.7134,1.7418,1.8253,1.8505,1.8582,1.8751,1.8788,1.8413,1.6957,1.7117,1.74,1.6762,1.6161,1.6211,0.0,0.0,0.0,0.0,0.0,0.0,0.0,0.0,0.0,0.0,0.0,0.0,0.0,0.0,0.0,0.0,0.0,0.0,0.0,0.0,0.0,1.2998,1.3806,1.4806,1.6056,0.0,1.6194,1.6194,1.6316,1.6371,1.6371,1.6371,1.6371,1.6449,1.7683,1.8082,1.7964,1.9295,1.9711,1.945,1.9487,1.9487,1.9413,1.945,1.9116,1.8634,0.0,0.0,0.0,0.0,0.0,1.2993,1.2927,1.3367,1.3812,1.4179,1.4881,1.5406,1.5471,1.5089,1.4519,1.3679,1.2459,0.0,0.0,0.0,0.0,0.783,0.7958,0.8006,0.7952,0.7337,0.6592,0.0,0.0,0.0,0.4503,0.5256,0.0,0.0,0.0,0.0,1.0663,1.1269,0.0,1.4841,1.4947,1.5431,1.6082,1.6082,1.6156,1.625,1.6284,1.6157,1.6008,1.6155,1.629,1.6397,1.6365,1.6828,1.7346,1.7274,1.7822,1.8499,1.8489,1.8619,1.8751,1.8788,1.8788,1.8717,1.8413,1.8467,1.852,1.8395,1.8269,1.7979,1.7324,0.0,0.0,0.0,0.0,0.0,0.0,0.0,0.0,0.0,0.0,0.0,0.0,0.0,0.0,0.0,0.0,0.0,0.0,0.0,0.0,0.0,1.3498,0.0,0.0,0.0,1.6194,1.6194,1.6207,1.625,1.625,1.625,1.625,1.6327,1.7623,1.8176,1.8252,1.9633,2.003,1.9767,2.0045,1.9848,1.9413,1.9639,1.953,1.9228,0.0,0.0,0.0,0.0,0.0,0.0,0.0,1.6821,0.0,1.5433,1.5646,1.5973,1.6032,1.6084,1.5797,1.4986,1.3959,1.2887,1.1825,1.1118,1.0588,1.018,1.0032,0.0,0.9248,0.8786,0.7868,0.6518,0.0,0.0,0.5742,0.6365,0.0,0.746,0.0,0.9626,0.0,0.0,0.0,1.535,1.5875,1.6331,1.6704,1.6704,1.6914,1.723,1.7297,1.7471,1.7592,1.7163,1.729,1.7646,1.7646,1.7914,1.82,1.8109,1.8412,1.8769,1.8695,1.8732,1.8788,1.8788,1.8788,1.8788,1.8788,1.8788,1.8788,1.8788,1.8714,1.8239,1.6925,1.5671,0.0,0.0,0.0,0.0,0.0,0.0,0.0,0.0,0.0,0.0,0.0,0.0,0.0,0.0,0.0,0.0,0.0,0.0,0.0,0.0,0.0,0.0,0.0,0.0,0.0,1.6425,1.6543,1.6543,1.6425,1.6425,1.6425,1.646,1.7668,1.8207,1.8315,1.9716,2.0185,2.0065,2.0235,2.0131,1.9884,1.9995,1.9975,1.9797,0.0,1.4657,0.0,0.0,1.6639,0.0,1.826,1.9174,1.8993,1.6725,1.6476,1.6552,1.666,1.7114,1.7071,1.6361,1.5617,1.4773,1.3782,1.322,1.2761,1.232,1.2087,1.1637,1.0837,1.0405,0.9428,0.0,0.0,0.0,0.0,0.7547,0.0,0.0,0.0,0.0,0.0,0.0,1.4997,1.6087,1.689,1.7311,1.7458,1.7417,1.7764,1.8237,1.8319,1.8656,1.8941,1.8193,1.8341,1.8843,1.8843,1.8824,1.8788,1.8788,1.8788,1.8788,1.8788,1.8788,1.8788,1.8788,1.8788,1.8788,1.8788,1.8788,1.8788,1.8788,1.8638,1.8084,1.68,1.6231,0.0,0.0,0.0,0.0,0.0,0.0,0.0,0.0,0.0,0.0,0.0,0.0,0.0,0.0,0.0,0.0,0.8153,0.862,0.0,0.0,0.0,1.389,1.5146,0.0,1.6701,1.6701,1.6892,1.6892,1.6701,1.6701,1.6633,1.6675,1.7787,1.8423,1.8714,1.9823,2.0304,2.0304,2.0304,2.0304,2.0304,2.0304,2.0304,2.0235,0.0,0.0,0.0,0.0,0.0,0.0,0.0,1.9478,1.9993,1.9555,1.9495,1.9495,1.9514,1.956,1.9407,1.8895,1.8409,1.7536,1.6181,1.5652,1.4845,1.3675,1.361,1.347,1.3176,1.2736,1.1913,0.0,0.0,0.9361,0.0,0.8291,0.0,0.0,0.0,0.0,0.0,1.4313,1.5851,1.804,1.8122,1.8631,1.9332,1.9144,1.9158,1.925,1.9204,1.9227,1.9248,1.9111,1.9014,1.8984,1.8984,1.8896,1.8788,1.8788,1.8788,1.8788,1.8788,1.8788,1.8788,1.8788,1.8788,1.8788,1.8788,1.8788,1.8788,1.8788,1.8638,1.82,1.7223,1.7683,1.7309,0.0,0.0,0.0,0.0,0.0,0.0,0.0,0.0,0.0,0.0,0.0,0.0,0.0,0.0,0.0,0.869,0.8779,0.9203,1.0081,0.0,1.3637,1.3802,1.5895,1.6968,1.6968,1.6993,1.6993,1.6968,1.6968,1.6815,1.6659,1.8006,1.9139,2.0119,2.0258,2.0304,2.0304,2.0304,2.0304,2.0304,2.0304,2.0304,2.0304,0.0,0.0,0.0,0.0,0.0,0.0,0.0,1.9958,2.018,2.0097,2.0079,2.005,1.9969,1.9958,1.9778,1.9355,1.9078,1.8605,1.7838,1.7527,1.7054,1.6291,1.6108,1.5631,1.4767,1.4664,1.3659,0.0,0.0,1.1087,0.9967,1.0054,0.0,0.0,0.0,1.4033,1.5053,1.6263,1.7335,1.8222,1.8697,1.9132,1.946,1.9387,1.9402,1.946,1.9431,1.945,1.9483,1.9453,1.9232,1.9002,1.9002,1.8914,1.8788,1.8788,1.8788,1.8788,1.8788,1.8788,1.8788,1.8788,1.8788,1.8788,1.8788,1.8788,1.8788,1.8788,1.8732,1.8532,1.8025,1.7755,1.7181,0.0,0.0,0.0,0.0,0.0,0.0,0.0,0.0,0.0,0.0,0.0,0.0,0.0,0.0,0.0,0.0,0.0,0.0,0.9576,0.0,1.384,1.3965,1.6135,1.724,1.724,1.7384,1.7401,1.724,1.724,1.7462,1.783,1.8368,1.9248,2.0304,2.0304,2.0304,2.0304,2.0304,2.0304,2.0304,2.0304,2.0304,2.0304,1.9935,0.0,1.9336,0.0,1.9895,1.9961,2.0611,2.0456,2.0268,2.0262,2.0253,2.0203,2.0069,2.0069,1.9939,1.9595,1.9484,1.9284,1.8954,1.8788,1.8534,1.8145,1.7868,0.0,1.6294,1.6091,1.515,1.3388,1.3334,0.0,1.215,0.0,0.0,0.0,1.5147,1.5975,1.6442,1.7839,1.8522,1.8705,1.9295,1.9523,1.9546,1.9489,1.9489,1.9499,1.9499,1.9504,1.9508,1.9541,1.9298,1.9019,1.9053,1.8949,1.8788,1.8788,1.8788,1.8788,1.8788,1.8788,1.8788,1.8788,1.8788,1.8788,1.8788,1.8788,1.8788,1.8788,1.8788,1.8751,1.8601,1.8009,1.7225,1.6316,0.0,0.0,0.0,0.0,0.0,0.0,0.0,1.0302,0.0,0.0,0.0,0.0,0.0,0.0,0.0,0.0,0.0,0.0,0.0,0.0,0.0,1.652,1.7519,1.7519,1.7721,1.7704,1.7519,1.7647,1.813,1.8882,1.9017,1.9672,2.0595,2.0494,2.0441,2.0441,2.0441,2.0407,2.0304,2.046,2.0426,2.0373,2.2956,2.2937,2.2937,2.2956,2.2232,2.1664,2.1683,2.0955,2.0406,2.0406,2.0405,2.0353,2.0208,2.0205,2.0134,1.9992,1.999,1.9862,1.9511,1.9302,1.9038,0.0,0.0,1.809,1.7885,1.6973,1.6474,1.6457,0.0,0.0,1.4838,0.0,1.4864,1.5594,1.5796,1.6825,1.8385,1.8596,1.9191,1.9982,2.0001,1.995,1.9862,1.9676,1.9564,1.9499,1.9499,1.9413,1.9305,1.939,1.9216,1.9018,1.917,1.9001,1.8788,1.8788,1.8788,1.8788,1.8788,1.8788,1.8788,1.8788,1.8788,1.8788,1.8788,1.8788,1.8788,1.8788,1.8788,1.8788,1.8788,1.8788,1.7932,1.5347,0.0,0.0,0.0,0.0,0.0,0.0,1.0859,1.0048,0.9634,0.0,0.0,0.0,0.0,0.0,0.0,0.0,0.0,1.2769,1.3797,0.0,1.5382,1.7002,1.7789,1.7789,1.7811,1.7811,1.7805,1.8276,1.8849,1.9514,2.0062,2.0659,2.1276,2.0942,2.0794,2.0794,2.0794,2.0595,2.0373,2.0812,2.0795,2.0527,2.3063,2.3064,2.3064,2.3064,2.2841,2.2654,2.2654,2.2386,2.2179,2.2163,2.2172,2.2161,2.2105,2.1008,2.0233,0.0,2.006,1.9941,0.0,1.97,1.9457,1.9115,1.9006,1.877,1.8399,1.8209,1.782,1.7183,0.0,0.0,0.0,1.6817,1.725,1.7671,1.8283,1.887,1.9393,2.007,2.0443,2.0659,2.1217,2.1395,2.132,2.1261,2.1216,2.1201,2.1201,2.1186,2.1139,2.106,2.091,2.0771,2.0662,1.9794,1.8788,1.8788,1.8788,1.8788,1.8788,1.8788,1.8788,1.8788,1.8824,1.886,1.8806,1.8788,1.8806,1.886,1.8824,1.8788,1.8788,1.8545,1.7718,1.587,1.5526,0.0,0.0,0.0,0.0,0.0,0.0,1.1385,0.0,1.0605,0.0,0.0,0.0,0.0,0.0,0.0,0.0,0.0,1.4668,0.0,1.5536,1.7045,1.7811,1.7811,1.7811,1.7811,1.7805,1.8485,1.9035,1.9541,2.0278,2.0855,2.1291,2.1182,2.115,2.115,2.115,2.1087,2.0991,2.1134,2.115,2.1023,2.4076,2.4075,2.4077,2.4079,2.3809,2.3593,2.3593,2.3277,2.3038,2.3039,2.3033,2.3037,2.3038,2.2006,0.0,2.0754,2.0936,2.0919,2.0623,2.0449,2.0271,2.0051,1.9633,1.938,1.9443,0.0,0.0,1.8551,1.8411,1.8249,1.8097,1.8638,1.9152,1.9601,2.0177,2.0598,2.0899,2.1494,2.1654,2.1589,2.2092,2.221,2.2077,2.2077,2.2027,2.1996,2.1996,2.1964,2.1898,2.1766,2.1643,2.1479,2.1288,2.0526,1.9609,1.9341,1.9252,1.9199,1.8914,1.8806,1.8806,1.8824,1.8878,1.8896,1.8843,1.8896,1.8949,1.8896,1.8861,1.8843,1.8824,1.8604,1.7848,1.6165,1.5718,1.5016,1.3353,0.0,0.0,0.0,0.0,0.0,0.0,1.1581,0.0,0.0,0.0,0.0,0.0,0.0,0.0,1.3394,1.5559,0.0,1.6424,1.7354,1.7811,1.7811,1.7811,1.7963,1.8251,1.8978,1.9622,2.0177,2.0944,2.1441,2.1661,2.1524,2.1493,2.1493,2.1493,2.1401,2.1339,2.1507,2.1477,2.137,2.5683,2.5685,0.0,0.0,2.5035,0.0,2.4488,2.3805,2.3278,2.3278,2.3281,2.3277,2.3279,2.3215,2.2809,2.1874,0.0,0.0,0.0,2.1528,2.1417,2.1397,2.0327,2.0095,2.0907,1.983,1.9641,2.0441,1.9896,1.9769,2.0107,2.0222,2.0651,2.132,2.1493,2.1972,2.2642,2.2806,2.2805,2.2694,2.2751,2.2602,2.237,2.237,2.2301,2.2163,2.2163,2.2099,2.1964,2.1843,2.1698,2.1565,2.135,2.1268,2.1108,2.0305,2.0037,1.986,1.9165,1.8878,1.8824,1.8878,1.8914,1.8914,1.8895,1.9051,1.9152,1.8948,1.8913,1.8913,1.8896,1.8896,1.8217,1.6219,1.5993,1.5384,1.339,0.0,0.0,0.0,0.0,0.0,0.0,1.2271,1.287,0.0,0.0,0.0,0.0,0.0,1.3169,1.5612,1.6394,1.7101,1.7772,1.7811,1.7811,1.7811,1.7862,1.8251,1.8927,1.9722,2.05,2.1254,2.1989,2.231,2.2282,2.1945,2.1827,2.1827,2.1827,2.1631,2.1432,2.1853,2.1823,2.1584,0.0,0.0,2.5616,2.5623,2.5503,2.5398,2.5398,2.5213,2.5078,2.5075,2.5077,2.5078,2.5004,2.4998,2.4638,2.3745,2.3224,2.2876,2.2682,2.263,2.2523,2.2389,2.2086,2.199,2.2099,2.1832,2.1758,2.1978,2.1832,2.1866,2.2048,2.2077,2.2229,2.2504,2.2431,2.2537,2.2784,2.339,2.3588,2.3564,2.4243,2.4353,2.411,2.411,2.4017,2.3923,2.3923,2.3888,2.3836,2.3658,2.3508,2.3351,2.3151,2.302,2.266,2.1251,2.0432,1.9952,1.9792,1.9309,1.8896,1.8896,1.9018,1.912,1.9052,1.9137,1.9152,1.9001,1.8948,1.8895,1.8913,1.8771,1.8091,1.6272,1.5885,1.5168,1.3425,1.3188,0.0,0.0,1.3722,1.3872,1.431,1.4178,1.4014,0.0,0.0,0.0,0.0,1.4532,1.5134,1.639,1.7151,1.7625,1.7811,1.7811,1.7811,1.7811,1.8369,1.8724,1.8944,2.0297,2.1008,2.1254,2.1989,2.231,2.2282,2.2209,2.218,2.218,2.218,2.2135,2.2077,2.218,2.218,2.2077,2.5604,2.5609,2.5589,2.5598,2.5639,2.5651,2.5651,2.5646,2.5675,2.5696,2.5698,2.5683,2.5652,2.5646,2.5453,2.4987,2.448,2.4011,2.3622,2.3589,2.354,2.3441,2.3014,2.2948,2.3266,2.2834,2.2583,2.2583,2.2583,2.2652,2.2802,2.2802,2.3039,2.3458,2.3368,2.358,2.4019,2.4428,2.4532,2.4468,2.4927,2.4949,2.4704,2.4707,2.4631,2.45,2.45,2.45,2.4482,2.4284,2.4154,2.4037,2.3777,2.3646,2.3414,2.2468,2.1667,2.103,2.0691,2.0297,1.9939,1.9666,1.9518,1.9394,1.9323,1.9305,1.9289,1.9166,1.9051,1.8983,1.8948,1.8573,1.779,1.6291,1.568,1.4865,1.3411,1.3526,0.0,1.4264,1.4634,1.5003,1.5459,1.5446,1.528,1.4927,1.5163,0.0,1.5494,1.6143,1.6564,1.6699,1.7422,1.7811,1.7811,1.7811,1.798,1.8318,1.8707,1.9266,1.9976,2.0831,2.1363,2.1718,2.2141,2.231,2.231,2.231,2.231,2.2338,2.231,2.231,2.2338,2.231,2.231,2.2282,2.5571,2.56,2.5605,2.5604,2.5598,2.5601,2.5601,2.5613,2.5648,2.5687,2.5696,2.5703,2.5691,2.5703,2.5693,2.5703,2.5644,2.5307,2.4549,2.451,2.4505,2.4508,2.3721,2.3657,2.4411,2.3557,2.313,2.3121,2.3121,2.3176,2.33,2.33,2.3667,2.4315,2.4295,2.472,2.5395,2.5395,2.5322,2.5233,2.5173,2.4993,2.4775,2.4749,2.4645,2.4517,2.45,2.45,2.4482,2.4284,2.4192,2.4097,2.3798,2.3689,2.3646,2.3544,2.3062,2.2431,2.1682,2.1416,2.1205,2.0567,2.0152,1.9819,1.9564,1.9513,1.949,1.9335,1.9198,1.9104,1.9036,1.8509,1.7635,1.6343,1.5709,1.4892,1.3447,0.0,1.4649,1.4577,1.5291,1.5835,1.5937,1.639,1.6458,1.5993,1.7025,1.747,1.7007,1.7521,1.7572,1.6927,1.7495,1.7811,1.7811,1.7811,1.8166,1.8894,1.9012,1.9807,2.1204,2.1322,2.1701,2.231,2.231,2.231,2.231,2.231,2.2338,2.2394,2.231,2.2338,2.2377,2.2338,2.231,2.2338,2.5512,2.5564,2.5589,2.5595,2.5605,2.5601,2.5601,2.565,2.5683,2.5699,2.5703,2.5697,2.5693,2.5709,2.5698,2.5694,2.5699,2.5632,2.5496,2.5477,2.5468,2.5406,2.5265,2.5229,2.5376,2.5175,2.5081,2.5081,2.5081,2.5081,2.5097,2.5097,2.5155,2.529,2.5208,2.5258,2.5393,2.5395,2.5378,2.5369,2.536,2.5222,2.5032,2.491,2.4741,2.4582,2.4534,2.45,2.4482,2.4284,2.4115,2.3978,2.3774,2.362,2.3522,2.3517,2.35,2.3318,2.2545,2.1987,2.1457,2.0669,2.0641,2.0557,1.9694,1.9599,1.9599,1.935,1.9274,1.923,1.9104,1.8996,1.83,1.6482,1.6745,1.6304,1.3816,0.0,1.5906,1.5819,1.6517,1.7285,1.7966,1.7374,1.725,1.7984,1.746,1.744,1.8176,1.8118,1.7996,1.7893,1.7837,1.7811,1.7811,1.7811,1.8166,1.891,1.9536,2.0314,2.1221,2.1854,2.2192,2.231,2.231,2.231,2.231,2.231,2.231,2.231,2.231,2.2338,2.2405,2.2377,2.2405,2.246,2.5499,2.5525,2.5551,2.5544,2.5543,2.5565,2.559,2.5636,2.5651,2.5654,2.5642,2.5663,2.5709,2.5703,2.5696,2.5704,2.5697,2.5697,2.5697,2.5707,2.5695,2.5667,2.559,2.5506,2.5445,2.5412,2.5387,2.5398,2.537,2.5341,2.5341,2.5341,2.5341,2.5341,2.5313,2.5312,2.5348,2.5313,2.5351,2.5432,2.5351,2.522,2.5087,2.4949,2.4804,2.4645,2.4631,2.4615,2.458,2.4495,2.4409,2.4284,2.408,2.3939,2.381,2.3813,2.3834,2.3801,2.346,2.2996,2.2545,2.2157,2.1925,2.1563,2.0634,2.0421,2.0206,1.9541,1.9365,1.9261,1.912,1.8743,1.8135,1.7184,1.7022,0.0,0.0,1.6028,1.6782,1.6747,1.7449,1.81,1.845,1.8073,1.7984,1.8467,1.8073,1.8021,1.8467,1.8388,1.831,1.831,1.7971,1.7811,1.7811,1.7811,1.8386,1.9502,1.9833,2.0713,2.2029,2.2344,2.2605,2.2747,2.2747,2.2747,2.2747,2.2747,2.2668,2.2569,2.2542,2.246,2.2394,2.2366,2.2377,2.2432,2.5498,2.5511,2.5492,2.5505,2.5499,2.5525,2.5596,2.5589,2.56,2.5595,2.5613,2.5644,2.5693,2.5701,2.5693,2.5693,2.569,2.571,2.571,2.5697,2.5707,2.5703,2.5609,2.5478,2.535,2.5341,2.5332,2.5311,2.5252,2.5222,2.5192,2.5192,2.5192,2.5192,2.5192,2.5234,2.5265,2.5224,2.5284,2.5415,2.5262,2.5157,2.508,2.4968,2.4851,2.4723,2.4707,2.4707,2.4692,2.4657,2.4629,2.4547,2.4336,2.4211,2.4115,2.4117,2.4135,2.4135,2.4155,2.3942,2.366,2.3439,2.3078,2.2552,2.1699,2.1419,2.1116,2.0266,1.9845,1.9583,1.9409,1.8707,1.8077,1.7749,0.0,0.0,0.0,1.7099,1.7648,1.7453,1.8144,1.8639,1.8639,1.8601,1.8582,1.8639,1.86,1.8582,1.8639,1.86,1.8544,1.8505,1.8142,1.7949,1.7949,1.812,1.887,2.0184,2.0355,2.1267,2.2799,2.2799,2.2927,2.3091,2.3091,2.3091,2.3091,2.3116,2.2985,2.279,2.2747,2.2632,2.2432,2.2377,2.2405,2.246,2.5492,2.5507,2.5503,2.5503,2.5498,2.5518,2.5596,2.5609,2.5609,2.5601,2.5654,2.5684,2.5703,2.5694,2.5698,2.5698,2.5693,2.571,2.571,2.5707,2.5704,2.5691,2.5699,2.562,2.5485,2.5485,2.5418,2.5311,2.5311,2.5252,2.5192,2.5192,2.5192,2.5192,2.5192,2.5192,2.5203,2.5192,2.5222,2.5233,2.5212,2.5157,2.5082,2.5019,2.4912,2.4779,2.4723,2.4707,2.4692,2.4561,2.4512,2.4459,2.4264,2.4192,2.4192,2.4192,2.4371,2.4543,2.4407,2.4489,2.441,2.3604,2.3512,2.3405,2.259,2.24,2.2274,2.1902,2.1213,2.0588,2.0262,1.954,1.8728,1.7839,0.0,0.0,1.6711,1.7905,1.8692,1.7932,1.8565,1.9053,1.9053,1.8896,1.8861,1.9036,1.8878,1.8861,1.9036,1.8878,1.8695,1.8522,1.8465,1.8445,1.8445,1.9132,1.9903,2.074,2.1446,2.2218,2.3084,2.3084,2.3067,2.3091,2.3091,2.3091,2.3091,2.3105,2.2982,2.2816,2.2859,2.2756,2.2579,2.2579,2.2605,2.2685,2.5429,2.5464,2.5499,2.5499,2.5507,2.5503,2.5536,2.5544,2.5549,2.5585,2.5619,2.5648,2.5703,2.5702,2.5697,2.5705,2.5703,2.5701,2.5701,2.5698,2.5662,2.5576,2.5591,2.5511,2.5376,2.5418,2.5359,2.5184,2.5179,2.5138,2.5094,2.5069,2.5076,2.5076,2.5076,2.5094,2.5141,2.5082,2.5111,2.5182,2.5106,2.5088,2.5101,2.5031,2.4977,2.4917,2.4908,2.4894,2.4875,2.4832,2.4753,2.4654,2.4588,2.4508,2.4459,2.4491,2.4673,2.4846,2.4783,2.4832,2.4799,2.4478,2.4444,2.4276,2.3442,2.3234,2.3031,2.2276,2.1878,2.1566,2.1218,2.0912,2.0404,1.9469,0.0,1.9432,1.8279,1.8673,1.8978,1.867,1.8906,1.9087,1.9087,1.9019,1.9019,1.9087,1.9019,1.9019,1.9105,1.9019,1.9183,1.9613,1.9631,1.9482,1.919,1.9967,2.0762,2.156,2.1824,2.244,2.3359,2.3359,2.3427,2.3518,2.3518,2.3518,2.354,2.3522,2.3335,2.3045,2.3077,2.285,2.2542,2.2542,2.2579,2.2632,2.5393,2.5448,2.5464,2.5464,2.5484,2.5499,2.5495,2.5495,2.5531,2.5565,2.5595,2.5616,2.566,2.5683,2.5702,2.5709,2.5707,2.5707,2.5707,2.5703,2.5642,2.5537,2.5547,2.5498,2.5369,2.5401,2.5321,2.5122,2.5115,2.5087,2.5025,2.5018,2.5004,2.5004,2.501,2.5018,2.5082,2.5018,2.5051,2.5141,2.5044,2.5031,2.5051,2.5004,2.501,2.501,2.501,2.501,2.501,2.501,2.495,2.4856,2.4856,2.4802,2.4742,2.4787,2.4875,2.501,2.501,2.501,2.501,2.501,2.501,2.4839,2.4238,2.4106,2.3877,2.3136,2.2769,2.2495,2.2129,2.1875,2.1476,2.0789,2.068,2.0391,1.9594,1.9467,1.9377,1.9123,1.9087,1.9087,1.9087,1.9087,1.9087,1.9087,1.9087,1.9214,1.9449,1.9467,1.9847,2.0644,2.0916,2.0892,2.0581,2.1132,2.1669,2.221,2.2478,2.2958,2.3671,2.3671,2.3714,2.3837,2.3837,2.3837,2.3837,2.3837,2.3642,2.3247,2.3253,2.296,2.2552,2.2552,2.2579,2.2632,2.5406,2.5404,2.5401,2.5401,2.5456,2.5492,2.5495,2.5495,2.5503,2.5492,2.5565,2.5601,2.5598,2.566,2.5702,2.5709,2.5707,2.5707,2.5707,2.5707,2.5671,2.5591,2.5652,2.5648,2.5503,2.5425,2.5332,2.5205,2.5134,2.5088,2.5101,2.5025,2.4993,2.4993,2.5004,2.501,2.501,2.501,2.501,2.501,2.501,2.501,2.501,2.501,2.501,2.501,2.501,2.501,2.501,2.501,2.501,2.501,2.501,2.501,2.501,2.501,2.501,2.501,2.501,2.501,2.501,2.501,2.501,2.501,2.501,2.501,2.4936,2.4738,2.4065,2.339,2.2995,2.2262,2.1677,2.1533,2.1514,2.1242,2.0427,2.0318,2.001,1.9214,1.9105,1.9105,1.9105,1.9087,1.9087,1.9105,1.9105,1.9467,2.0264,2.0318,2.068,2.1477,2.2292,2.2689,2.2727,2.2727,2.2711,2.2716,2.3515,2.3937,2.3996,2.3996,2.3958,2.3896,2.3896,2.3896,2.3917,2.3976,2.375,2.3394,2.3387,2.3105,2.2712,2.2712,2.2712,2.2712,2.5407,2.5406,2.5404,2.5401,2.5429,2.5456,2.5492,2.5499,2.5507,2.5503,2.5511,2.556,2.559,2.5627,2.5642,2.5694,2.5709,2.5707,2.5707,2.5707,2.5673,2.5593,2.5662,2.564,2.5505,2.548,2.5391,2.5201,2.5182,2.5145,2.5088,2.5082,2.507,2.507,2.5076,2.5044,2.4999,2.4999,2.5004,2.501,2.501,2.501,2.501,2.501,2.501,2.501,2.501,2.501,2.501,2.501,2.501,2.501,2.501,2.501,2.501,2.501,2.501,2.501,2.501,2.501,2.501,2.501,2.501,2.501,2.501,2.501,2.4977,2.4922,2.4714,2.444,2.4036,2.3764,2.3307,2.2478,2.2347,2.2075,2.126,2.1151,2.1061,2.0807,2.03,1.9936,1.9936,1.9427,1.9337,1.99,2.0463,2.0898,2.1133,2.1151,2.1514,2.2328,2.2562,2.2962,2.3469,2.3469,2.351,2.3611,2.3866,2.3996,2.4074,2.4074,2.4036,2.3976,2.3976,2.3976,2.3976,2.3996,2.3855,2.3602,2.3468,2.323,2.297,2.2764,2.2712,2.2712,2.5361,2.5379,2.5397,2.5395,2.5393,2.5401,2.5456,2.5484,2.5492,2.5507,2.5495,2.5531,2.5554,2.5587,2.5613,2.5662,2.5675,2.5707,2.5707,2.5707,2.5681,2.5642,2.5676,2.5658,2.5549,2.5479,2.5394,2.5284,2.5243,2.5187,2.5137,2.512,2.5095,2.5095,2.5101,2.5089,2.5038,2.5012,2.4999,2.5004,2.501,2.501,2.501,2.501,2.501,2.501,2.501,2.501,2.501,2.501,2.501,2.501,2.501,2.501,2.501,2.501,2.501,2.501,2.501,2.501,2.501,2.501,2.501,2.501,2.501,2.501,2.501,2.501,2.501,2.4875,2.4458,2.4389,2.4118,2.3258,2.3143,2.2872,2.2093,2.1984,2.1858,2.155,2.1061,2.0771,2.0771,2.0352,2.0279,2.0734,2.1225,2.1641,2.1966,2.1984,2.2328,2.3107,2.3143,2.3343,2.3795,2.3795,2.3837,2.3976,2.3996,2.4054,2.4094,2.4132,2.4094,2.4036,2.4036,2.4036,2.4036,2.4036,2.3917,2.3732,2.3602,2.3371,2.3095,2.2919,2.279,2.2712,2.5313,2.5361,2.5398,2.5398,2.5395,2.5401,2.5401,2.5456,2.5484,2.5511,2.5507,2.5505,2.5496,2.5559,2.5601,2.5603,2.566,2.5707,2.5707,2.5707,2.5707,2.5707,2.5707,2.5673,2.5613,2.5471,2.5415,2.5386,2.5274,2.5203,2.521,2.5137,2.5113,2.5113,2.5107,2.5114,2.5101,2.5038,2.5025,2.5012,2.5004,2.501,2.501,2.501,2.501,2.501,2.501,2.4991,2.501,2.501,2.501,2.501,2.501,2.501,2.501,2.501,2.501,2.501,2.501,2.501,2.501,2.501,2.501,2.501,2.501,2.501,2.501,2.501,2.501,2.4875,2.4493,2.4407,2.4284,2.3878,2.3816,2.356,2.2908,2.2799,2.2528,2.1803,2.166,2.1606,2.1606,2.1662,2.168,2.1625,2.1679,2.2042,2.2763,2.2817,2.3107,2.3798,2.3816,2.3816,2.3795,2.3795,2.3837,2.3896,2.3976,2.4054,2.4094,2.417,2.417,2.4113,2.4113,2.4113,2.4113,2.4113,2.3996,2.3837,2.3816,2.3535,2.3151,2.3119,2.2944,2.2738,2.5361,2.5389,2.5398,2.5397,2.5387,2.5404,2.5401,2.5401,2.5429,2.5484,2.5492,2.551,2.5498,2.5512,2.5563,2.5675,2.5683,2.5691,2.5707,2.5707,2.5707,2.5707,2.5707,2.5685,2.5679,2.5598,2.5473,2.5316,2.5293,2.5243,2.5191,2.518,2.518,2.518,2.5168,2.5144,2.5101,2.5088,2.5076,2.5089,2.5089,2.5044,2.4999,2.4999,2.4999,2.4999,2.4999,2.5044,2.5076,2.5012,2.5004,2.501,2.501,2.501,2.501,2.501,2.501,2.501,2.501,2.501,2.501,2.501,2.501,2.501,2.501,2.501,2.501,2.501,2.501,2.4889,2.4545,2.4495,2.4355,2.4018,2.3917,2.3821,2.3658,2.3581,2.3506,2.3324,2.2785,2.2441,2.2441,2.2499,2.2518,2.2519,2.3083,2.3538,2.3701,2.3719,2.3753,2.3858,2.3876,2.3837,2.3795,2.3795,2.3837,2.3896,2.3976,2.4054,2.4094,2.417,2.419,2.417,2.417,2.417,2.417,2.417,2.4151,2.4094,2.3896,2.3732,2.3602,2.3247,2.3052,2.2977,2.5351,2.5351,2.5361,2.5351,2.5388,2.5406,2.5404,2.5393,2.5429,2.5484,2.5511,2.5507,2.5505,2.5511,2.5561,2.5691,2.5703,2.5693,2.5691,2.5709,2.5707,2.5707,2.6097,2.6312,2.6312,2.6298,2.5985,2.541,2.5327,2.5274,2.5195,2.5195,2.5394,2.5784,2.5784,2.597,2.632,2.5907,2.5711,2.5717,2.5691,2.5659,2.5627,2.5627,2.5627,2.557,2.519,2.5057,2.5057,2.5012,2.4985,2.501,2.501,2.501,2.501,2.501,2.501,2.501,2.501,2.501,2.501,2.501,2.501,2.501,2.501,2.501,2.501,2.501,2.501,2.4875,2.451,2.4495,2.4392,2.4018,2.3937,2.3955,2.3955,2.3917,2.3896,2.3896,2.3553,2.3337,2.3356,2.3433,2.3452,2.3434,2.3798,2.4036,2.3996,2.3996,2.3996,2.3937,2.3917,2.3896,2.3855,2.3816,2.3816,2.3837,2.3917,2.3996,2.4036,2.4113,2.417,2.419,2.419,2.419,2.419,2.419,2.419,2.419,2.4054,2.3917,2.3774,2.3513,2.3277,2.3095,2.5303,2.5313,2.5313,2.5313,2.5361,2.5407,2.5406,2.5404,2.5421,2.5484,2.5484,2.5511,2.5511,2.5635,2.5839,2.6088,2.6113,2.6129,2.6129,2.6142,2.6138,2.6138,2.6841,2.7212,2.7212,2.7212,2.6793,2.5945,2.5662,2.5572,2.5653,2.565,2.5979,2.6625,2.6612,2.7014,2.7663,2.6931,2.6613,2.6613,2.6555,2.6542,2.651,2.6357,2.6319,2.6205,2.5387,2.5051,2.5025,2.5025,2.5018,2.4991,2.501,2.501,2.501,2.501,2.501,2.501,2.501,2.501,2.501,2.501,2.501,2.501,2.501,2.501,2.501,2.501,2.501,2.4875,2.4493,2.4459,2.4355,2.3978,2.3958,2.3996,2.3996,2.3996,2.3996,2.3996,2.3996,2.4016,2.4094,2.4151,2.417,2.4113,2.4132,2.4094,2.4054,2.4036,2.4016,2.4016,2.3958,2.3917,2.3917,2.3858,2.3837,2.3837,2.3896,2.3937,2.3996,2.4036,2.4113,2.417,2.417,2.417,2.417,2.4208,2.419,2.419,2.419,2.4074,2.3876,2.3774,2.3468,2.3095,2.5303,2.5351,2.5389,2.5389,2.5398,2.5398,2.5398,2.5397,2.5404,2.5401,2.5456,2.5511,2.5511,2.6178,2.6928,2.7715,2.7839,2.7866,2.7868,2.7928,2.7959,2.7959,2.8051,2.8127,2.8127,2.8127,2.7992,2.7746,2.6916,2.6862,2.7538,2.742,2.7407,2.7522,2.7523,2.7587,2.7701,2.7568,2.7517,2.7517,2.7517,2.7485,2.7363,2.6657,2.639,2.6276,2.5406,2.5101,2.5088,2.5082,2.5057,2.4999,2.4991,2.501,2.501,2.501,2.501,2.501,2.501,2.501,2.501,2.501,2.501,2.501,2.501,2.501,2.501,2.501,2.501,2.4889,2.4545,2.4495,2.4392,2.4037,2.3996,2.3996,2.3996,2.3996,2.3996,2.3996,2.3996,2.4016,2.4094,2.4113,2.4113,2.417,2.419,2.417,2.417,2.417,2.4151,2.4094,2.4074,2.4054,2.3996,2.3976,2.3976,2.3976,2.3976,2.3976,2.3917,2.3996,2.4016,2.4016,2.4094,2.4113,2.4113,2.417,2.419,2.419,2.419,2.417,2.4094,2.3628,2.3289,2.3095,2.5302,2.5322,2.5332,2.5351,2.5351,2.5505,2.6006,2.6101,2.6302,2.6792,2.6867,2.6904,2.6904,2.7263,2.7673,2.8074,2.8134,2.8157,2.8193,2.8222,2.8261,2.8293,2.8776,2.9025,2.9025,2.9025,2.9216,2.9608,2.8218,2.7667,2.7913,2.7836,2.8038,2.8422,2.8383,2.8637,2.9058,2.858,2.8357,2.8357,2.8357,2.8357,2.8286,2.7924,2.779,2.7695,2.6855,2.6231,2.5818,2.578,2.5437,2.5012,2.4991,2.501,2.501,2.501,2.501,2.501,2.501,2.501,2.501,2.501,2.501,2.501,2.501,2.501,2.501,2.501,2.4922,2.4753,2.4493,2.4373,2.4284,2.4135,2.4056,2.4056,2.4209,2.4133,2.4054,2.4054,2.4094,2.4113,2.4094,2.4113,2.417,2.419,2.419,2.419,2.419,2.419,2.419,2.4151,2.4113,2.4094,2.4054,2.4016,2.3996,2.3996,2.3996,2.3996,2.4016,2.4036,2.4074,2.4113,2.4151,2.4151,2.4151,2.419,2.419,2.419,2.419,2.419,2.4151,2.3774,2.3562,2.3491]}]]